[[{"header":{"parameterUnit":"m.s-1","parameterCategory":1,"la1":30.6,"la2":28.766,"lo1":-90.7593,"lo2":-88.6598,"dy":0.0162,"dx":0.0183,"nx":116,"ny":114,"refTime":"2023-06-24T12:00:00:Z","depth":0,"parameterNumber":2,"parameterNumberName":"U-component_of_WINDS"},"data":[0.0,0.0,0.0,0.0,0.0,0.0,0.0,0.0,0.0,0.0,0.0,0.0,0.0,0.0,0.0,0.0,0.0,0.0,0.0,0.0,0.0,0.0,0.0,0.0,0.0,0.0,0.0,0.0,0.0,0.0,0.0,0.0,0.0,0.0,0.0,0.0,0.0,0.0,0.0,0.0,0.0,0.0,0.0,0.0,0.0,0.0,0.0,0.0,0.0,0.0,0.0,0.0,0.0,0.0,0.0,0.0,0.0,0.0,0.0,0.0,0.0,0.0,0.0,0.0,0.0,0.0,0.0,0.0,0.0,0.0,0.0,0.0,0.0,0.0,0.0,0.0,0.0,0.0,0.0,0.0,0.0,0.0,0.0,0.0,0.0,0.0,0.0,0.0,0.0,0.0,0.0,0.0,0.0,0.0,0.0,0.0,0.0,0.0,0.0,0.0,0.0,0.0,0.0,0.0,0.0,0.0,0.0,0.0,0.0,0.0,0.0,0.0,0.0,0.0,0.0,0.0,0.0,0.0,0.0,0.0,0.0,0.0,0.0,0.0,0.0,0.0,0.0,0.0,0.0,0.0,0.0,0.0,0.0,0.0,0.0,0.0,0.0,0.0,0.0,0.0,0.0,0.0,0.0,0.0,0.0,0.0,0.0,0.0,0.0,0.0,0.0,0.0,0.0,0.0,0.0,0.0,0.0,0.0,0.0,0.0,0.0,0.0,0.0,0.0,0.0,0.0,0.0,0.0,0.0,0.0,0.0,0.0,0.0,0.0,0.0,0.0,0.0,0.0,0.0,0.0,0.0,0.0,0.0,0.0,0.0,0.0,0.0,0.0,0.0,0.0,0.0,0.0,0.0,0.0,0.0,0.0,0.0,0.0,0.0,0.0,0.0,0.0,0.0,0.0,0.0,0.0,0.0,0.0,0.0,0.0,0.0,0.0,0.0,0.0,0.0,0.0,0.0,0.0,0.0,0.0,0.0,0.0,0.0,0.0,0.0,0.0,0.0,0.0,0.0,0.0,0.0,0.0,0.0,0.0,0.0,0.0,0.0,0.0,0.0,0.0,0.0,0.0,0.0,0.0,0.0,0.0,0.0,0.0,0.0,0.0,0.0,0.0,0.0,0.0,0.0,0.0,0.0,0.0,0.0,0.0,0.0,0.0,0.0,0.0,0.0,0.0,0.0,0.0,0.0,0.0,0.0,0.0,0.0,0.0,0.0,0.0,0.0,0.0,0.0,0.0,0.0,0.0,0.0,0.0,0.0,0.0,0.0,0.0,0.0,0.0,0.0,0.0,0.0,0.0,0.0,0.0,0.0,0.0,0.0,0.0,0.0,0.0,0.0,0.0,0.0,0.0,0.0,0.0,0.0,0.0,0.0,0.0,0.0,0.0,0.0,0.0,0.0,0.0,0.0,0.0,0.0,0.0,0.0,0.0,0.0,0.0,0.0,0.0,0.0,0.0,0.0,0.0,0.0,0.0,0.0,0.0,0.0,0.0,0.0,0.0,0.0,0.0,0.0,0.0,0.0,0.0,0.0,0.0,0.0,0.0,0.0,0.0,0.0,0.0,0.0,0.0,0.0,0.0,0.0,0.0,0.0,0.0,0.0,0.0,0.0,0.0,0.0,0.0,0.0,0.0,0.0,0.0,0.0,0.0,0.0,0.0,0.0,0.0,0.0,0.0,0.0,0.0,0.0,0.0,0.0,0.0,0.0,0.0,0.0,0.0,0.0,0.0,0.0,0.0,0.0,0.0,0.0,0.0,0.0,0.0,0.0,0.0,0.0,0.0,0.0,0.0,0.0,0.0,0.0,0.0,0.0,0.0,0.0,0.0,0.0,0.0,0.0,0.0,0.0,0.0,0.0,0.0,0.0,0.0,0.0,0.0,0.0,0.0,0.0,0.0,0.0,0.0,0.0,0.0,0.0,0.0,0.0,0.0,0.0,0.0,0.0,0.0,0.0,0.0,0.0,0.0,0.0,0.0,0.0,0.0,0.0,0.0,0.0,0.0,0.0,0.0,0.0,0.0,0.0,0.0,0.0,0.0,0.0,0.0,0.0,0.0,0.0,0.0,0.0,0.0,0.0,0.0,0.0,0.0,0.0,0.0,0.0,0.0,0.0,0.0,0.0,0.0,0.0,0.0,0.0,0.0,0.0,0.0,0.0,0.0,0.0,0.0,0.0,0.0,0.0,0.0,0.0,0.0,0.0,0.0,0.0,0.0,0.0,0.0,0.0,0.0,0.0,0.0,0.0,0.0,0.0,0.0,0.0,0.0,0.0,0.0,0.0,0.0,0.0,0.0,0.0,0.0,0.0,0.0,0.0,0.0,0.0,0.0,0.0,0.0,0.0,0.0,0.0,0.0,0.0,0.0,0.0,0.0,0.0,0.0,0.0,0.0,0.0,0.0,0.0,0.0,0.0,0.0,0.0,0.0,0.0,0.0,0.0,0.0,0.0,0.0,0.0,0.0,0.0,0.0,0.0,0.0,0.0,0.0,0.0,0.0,0.0,0.0,0.0,0.0,0.0,0.0,0.0,0.0,0.0,0.0,0.0,0.0,0.0,0.0,0.0,0.0,0.0,0.0,0.0,0.0,0.0,0.0,0.0,0.0,0.0,0.0,0.0,0.0,0.0,0.0,0.0,0.0,0.0,0.0,0.0,0.0,0.0,0.0,0.0,0.0,0.0,0.0,0.0,0.0,0.0,0.0,0.0,0.0,0.0,0.0,0.0,0.0,0.0,0.0,0.0,0.0,0.0,0.0,0.0,0.0,0.0,0.0,0.0,0.0,0.0,0.0,0.0,0.0,0.0,0.0,0.0,0.0,0.0,0.0,0.0,0.0,0.0,0.0,0.0,0.0,0.0,0.0,0.0,0.0,0.0,0.0,0.0,0.0,0.0,0.0,0.0,0.0,0.0,0.0,0.0,0.0,0.0,0.0,0.0,0.0,0.0,0.0,0.0,0.0,0.0,0.0,0.0,0.0,0.0,0.0,0.0,0.0,0.0,0.0,0.0,0.0,0.0,0.0,0.0,0.0,0.0,0.0,0.0,0.0,0.0,0.0,0.0,0.0,0.0,0.0,0.0,0.0,0.0,0.0,0.0,0.0,0.0,0.0,0.0,0.0,0.0,0.0,0.0,0.0,0.0,0.0,0.0,0.0,0.0,0.0,0.0,0.0,0.0,0.0,0.0,0.0,0.0,0.0,0.0,0.0,0.0,0.0,0.0,0.0,0.0,0.0,0.0,0.0,0.0,0.0,0.0,0.0,0.0,0.0,0.0,0.0,0.0,0.0,0.0,0.0,0.0,0.0,0.0,0.0,0.0,0.0,0.0,0.0,0.0,0.0,0.0,0.0,0.0,0.0,0.0,0.0,0.0,0.0,0.0,0.0,0.0,0.0,0.0,0.0,0.0,0.0,0.0,0.0,0.0,0.0,0.0,0.0,0.0,0.0,0.0,0.0,0.0,0.0,0.0,0.0,0.0,0.0,0.0,0.0,0.0,0.0,0.0,0.0,0.0,0.0,0.0,0.0,0.0,0.0,0.0,0.0,0.0,0.0,0.0,0.0,0.0,0.0,0.0,0.0,0.0,0.0,0.0,0.0,0.0,0.0,0.0,0.0,0.0,0.0,0.0,0.0,0.0,0.0,0.0,0.0,0.0,0.0,0.0,0.0,0.0,0.0,0.0,0.0,0.0,0.0,0.0,0.0,0.0,0.0,0.0,0.0,0.0,0.0,0.0,0.0,0.0,0.0,0.0,0.0,0.0,0.0,0.0,0.0,0.0,0.0,0.0,0.0,0.0,0.0,0.0,0.0,0.0,0.0,0.0,0.0,0.0,0.0,0.0,0.0,0.0,0.0,0.0,0.0,0.0,0.0,0.0,0.0,0.0,0.0,0.0,0.0,0.0,0.0,0.0,0.0,0.0,0.0,0.0,0.0,0.0,0.0,0.0,0.0,0.0,0.0,0.0,0.0,0.0,0.0,0.0,0.0,0.0,0.0,0.0,0.0,0.0,0.0,0.0,0.0,0.0,0.0,0.0,0.0,0.0,0.0,0.0,0.0,0.0,0.0,0.0,0.0,0.0,0.0,0.0,0.0,0.0,0.0,0.0,0.0,0.0,0.0,0.0,0.0,0.0,0.0,0.0,0.0,0.0,0.0,0.0,0.0,0.0,0.0,0.0,0.0,0.0,0.0,0.0,0.0,0.0,0.0,0.0,0.0,0.0,0.0,0.0,0.0,0.0,0.0,0.0,0.0,0.0,0.0,0.0,0.0,0.0,0.0,0.0,0.0,0.0,0.0,0.0,0.0,0.0,0.0,0.0,0.0,0.0,0.0,0.0,0.0,0.0,0.0,0.0,0.0,0.0,0.0,0.0,0.0,0.0,0.0,0.0,0.0,0.0,0.0,0.0,0.0,0.0,0.0,0.0,0.0,0.0,0.0,0.0,0.0,0.0,0.0,0.0,0.0,0.0,0.0,0.0,0.0,0.0,0.0,0.0,0.0,0.0,0.0,0.0,0.0,0.0,0.0,0.0,0.0,0.0,0.0,0.0,0.0,0.0,0.0,0.0,0.0,0.0,0.0,0.0,0.0,0.0,0.0,0.0,0.0,0.0,0.0,0.0,0.0,0.0,0.0,0.0,0.0,0.0,0.0,0.0,0.0,0.0,0.0,0.0,0.0,0.0,0.0,0.0,0.0,0.0,0.0,0.0,0.0,0.0,0.0,0.0,0.0,0.0,0.0,0.0,0.0,0.0,0.0,0.0,0.0,0.0,0.0,0.0,0.0,0.0,0.0,0.0,0.0,0.0,0.0,0.0,0.0,0.0,0.0,0.0,0.0,0.0,0.0,0.0,0.0,0.0,0.0,0.0,0.0,0.0,0.0,0.0,0.0,0.0,0.0,0.0,0.0,0.0,0.0,0.0,0.0,0.0,0.0,0.0,0.0,0.0,0.0,0.0,0.0,0.0,0.0,0.0,0.0,0.0,0.0,0.0,0.0,0.0,0.0,0.0,0.0,0.0,0.0,0.0,0.0,0.0,0.0,0.0,0.0,0.0,0.0,0.0,0.0,0.0,0.0,0.0,0.0,0.0,0.0,0.0,0.0,0.0,0.0,0.0,0.0,0.0,0.0,0.0,0.0,0.0,0.0,0.0,0.0,0.0,0.0,0.0,0.0,0.0,0.0,0.0,0.0,0.0,0.0,0.0,0.0,0.0,0.0,0.0,0.0,0.0,0.0,0.0,0.0,0.0,0.0,0.0,0.0,0.0,0.0,0.0,0.0,0.0,0.0,0.0,0.0,0.0,0.0,0.0,0.0,0.0,0.0,0.0,0.0,0.0,0.0,0.0,0.0,0.0,0.0,0.0,0.0,0.0,0.0,0.0,0.0,0.0,0.0,0.0,0.0,0.0,0.0,0.0,0.0,0.0,0.0,0.0,0.0,0.0,0.0,0.0,0.0,0.0,0.0,0.0,0.0,0.0,0.0,0.0,0.0,0.0,0.0,0.0,0.0,0.0,0.0,0.0,0.0,0.0,0.0,0.0,0.0,0.0,0.0,0.0,0.0,0.0,0.0,0.0,0.0,0.0,0.0,0.0,0.0,0.0,0.0,0.0,0.0,0.0,0.0,0.0,0.0,0.0,0.0,0.0,0.0,0.0,0.0,0.0,0.0,0.0,0.0,0.0,0.0,0.0,0.0,0.0,0.0,0.0,0.0,0.0,0.0,0.0,0.0,0.0,0.0,0.0,0.0,0.0,0.0,0.0,0.0,0.0,0.0,0.0,0.0,0.0,0.0,0.0,0.0,0.0,0.0,0.0,0.0,0.0,0.0,0.0,0.0,0.0,0.0,0.0,0.0,0.0,0.0,0.0,0.0,0.0,0.0,0.0,0.0,0.0,0.0,0.0,0.0,0.0,0.0,0.0,0.0,0.0,0.0,0.0,0.0,0.0,0.0,0.0,0.0,0.0,0.0,0.0,0.0,0.0,0.0,0.0,0.0,0.0,0.0,0.0,0.0,0.0,0.0,0.0,0.0,0.0,0.0,0.0,0.0,0.0,0.0,0.0,0.0,0.0,0.0,0.0,0.0,0.0,0.0,0.0,0.0,-1.0247,0.0,0.0,0.0,0.0,0.0,0.0,0.0,0.0,0.0,0.0,0.0,0.0,0.0,0.0,0.0,0.0,0.0,0.0,0.0,0.0,0.0,0.0,0.0,0.0,0.0,0.0,0.0,0.0,0.0,0.0,0.0,0.0,0.0,0.0,0.0,0.0,0.0,0.0,0.0,0.0,0.0,0.0,0.0,0.0,0.0,0.0,0.0,0.0,0.0,0.0,0.0,0.0,0.0,0.0,0.0,0.0,0.0,0.0,0.0,0.0,0.0,0.0,0.0,0.0,0.0,0.0,0.0,0.0,0.0,0.0,0.0,0.0,0.0,0.0,0.0,0.0,0.0,0.0,0.0,0.0,0.0,0.0,0.0,0.0,0.0,0.0,0.0,0.0,0.0,0.0,0.0,0.0,0.0,0.0,0.0,0.0,0.0,0.0,0.0,0.0,0.0,0.0,0.0,0.0,0.0,0.0,0.0,0.0,0.0,0.0,0.0,0.0,0.0,0.0,0.0,0.0,-1.1069,0.0,0.0,0.0,0.0,0.0,0.0,0.0,0.0,0.0,0.0,0.0,0.0,0.0,0.0,0.0,0.0,0.0,0.0,0.0,0.0,0.0,0.0,0.0,0.0,0.0,0.0,0.0,0.0,0.0,0.0,0.0,0.0,0.0,0.0,0.0,0.0,0.0,0.0,0.0,0.0,0.0,0.0,0.0,0.0,0.0,0.0,0.0,0.0,0.0,0.0,0.0,0.0,0.0,0.0,0.0,0.0,0.0,0.0,0.0,0.0,0.0,0.0,0.0,0.0,0.0,0.0,0.0,0.0,0.0,0.0,0.0,0.0,0.0,0.0,0.0,0.0,0.0,0.0,0.0,0.0,0.0,0.0,0.0,0.0,0.0,0.0,0.0,0.0,0.0,0.0,0.0,0.0,0.0,0.0,0.0,0.0,0.0,0.0,0.0,0.0,0.0,0.0,0.0,0.0,0.0,0.0,0.0,0.0,-0.9184,-0.9727,-1.0297,-1.0616,-1.088,-1.1036,-1.1524,-1.1391,-1.0779,-1.178,0.0,0.0,0.0,0.0,0.0,0.0,0.0,0.0,0.0,0.0,0.0,0.0,0.0,0.0,0.0,0.0,0.0,0.0,0.0,0.0,0.0,0.0,0.0,0.0,0.0,0.0,0.0,0.0,0.0,0.0,0.0,0.0,0.0,0.0,0.0,0.0,0.0,0.0,-1.2986,-1.3387,-1.3748,-1.4041,-1.3601,0.0,0.0,0.0,0.0,0.0,0.0,0.0,0.0,0.0,0.0,0.0,0.0,0.0,0.0,0.0,0.0,0.0,0.0,0.0,0.0,0.0,0.0,0.0,0.0,0.0,0.0,0.0,0.0,0.0,0.0,0.0,0.0,0.0,0.0,0.0,0.0,0.0,0.0,0.0,0.0,0.0,0.0,0.0,-0.872,-0.8974,0.0,0.0,0.0,0.0,0.0,0.0,0.0,0.0,0.0,0.0,0.0,0.0,0.0,-0.8106,-0.8499,-0.8818,-0.9137,-0.9469,-1.0175,-1.0758,-1.1226,-1.166,-1.2081,-1.2454,-1.2368,0.0,-1.0114,-0.9945,0.0,0.0,0.0,0.0,0.0,0.0,0.0,0.0,0.0,0.0,0.0,0.0,0.0,0.0,0.0,0.0,0.0,0.0,0.0,0.0,0.0,0.0,0.0,0.0,0.0,0.0,0.0,0.0,0.0,0.0,0.0,0.0,0.0,0.0,0.0,0.0,-1.2896,-1.3831,-1.3721,-1.4669,-1.5351,-1.5738,-1.5484,-1.5124,-1.4683,-1.4162,0.0,0.0,0.0,0.0,0.0,0.0,0.0,0.0,0.0,0.0,0.0,0.0,0.0,0.0,0.0,0.0,0.0,0.0,0.0,0.0,0.0,0.0,0.0,0.0,0.0,0.0,0.0,0.0,0.0,0.0,0.0,0.0,0.0,0.0,0.0,0.0,0.0,0.0,0.0,-0.9441,-0.8508,-0.7758,-0.7346,-0.7291,0.0,0.0,0.0,0.0,0.0,0.0,0.0,0.0,0.0,-0.8411,-0.8581,-0.8723,-0.8838,-0.93,-0.972,-1.0114,-1.0867,-1.1545,-1.2162,-1.261,-1.301,-1.3342,-1.32,-1.2583,-1.1619,-1.0744,-1.0059,-0.953,0.0,0.0,0.0,0.0,-1.041,-1.2126,0.0,0.0,0.0,0.0,0.0,0.0,0.0,0.0,0.0,0.0,0.0,0.0,0.0,0.0,0.0,-1.6465,0.0,0.0,0.0,0.0,0.0,0.0,0.0,0.0,0.0,0.0,0.0,0.0,-1.4356,-1.5359,-1.479,-1.6032,-1.6807,-1.7154,-1.7154,-1.6553,-1.5511,-1.5044,-1.4522,0.0,0.0,0.0,0.0,0.0,0.0,0.0,0.0,0.0,0.0,0.0,0.0,0.0,0.0,0.0,0.0,0.0,0.0,0.0,0.0,0.0,0.0,0.0,0.0,0.0,0.0,0.0,0.0,0.0,0.0,0.0,0.0,0.0,0.0,0.0,0.0,0.0,0.0,-0.9479,-0.8787,-0.7458,-0.7424,-0.7468,0.0,0.0,0.0,0.0,0.0,0.0,-0.854,-0.8764,-0.8954,-0.911,-0.9327,-0.9442,-0.9456,-0.989,-1.0337,-1.0785,-1.143,-1.2121,-1.2854,-1.3268,-1.3641,-1.3953,-1.3804,-1.3532,-1.3091,-1.1891,-1.1023,-1.0419,-1.0039,-1.0207,-1.0642,-1.0711,-1.2406,-1.4622,0.0,0.0,0.0,0.0,0.0,0.0,0.0,0.0,0.0,0.0,0.0,0.0,0.0,0.0,-1.6523,-1.7793,-1.7969,-1.8144,0.0,0.0,0.0,0.0,0.0,0.0,0.0,0.0,0.0,-1.3507,-1.4188,-1.5217,-1.6593,-1.7221,-1.7836,-1.8397,-1.8397,-1.8357,-1.8183,-1.6486,-1.5899,-1.5992,0.0,0.0,0.0,0.0,0.0,0.0,0.0,0.0,0.0,0.0,0.0,0.0,0.0,0.0,0.0,0.0,0.0,0.0,0.0,0.0,0.0,0.0,0.0,0.0,0.0,0.0,0.0,0.0,0.0,0.0,0.0,0.0,0.0,0.0,0.0,0.0,0.0,0.0,0.0,-0.8798,-0.8298,0.0,0.0,0.0,0.0,-0.8201,-0.8499,-0.8859,-0.93,-0.934,-0.9612,-1.0181,-1.0215,-1.0426,-1.0839,-1.0873,-1.1118,-1.1565,-1.1884,-1.2433,-1.3159,-1.3471,-1.3858,-1.4272,-1.4116,-1.3953,-1.3702,-1.2508,-1.183,-1.1484,-1.0894,-1.1924,-1.3759,-1.3595,-1.5854,-1.9102,0.0,0.0,0.0,0.0,0.0,0.0,0.0,0.0,0.0,0.0,0.0,0.0,0.0,-1.7305,-1.8242,-1.9551,-2.043,-2.0625,-1.9922,0.0,0.0,0.0,0.0,0.0,0.0,0.0,-1.5132,-1.5343,-1.6435,-1.7065,-1.7275,-1.7689,-1.8196,-1.8771,-1.8971,-1.9158,-1.9225,-1.7635,-1.658,-1.5912,-1.5017,-1.4295,0.0,0.0,0.0,0.0,0.0,0.0,0.0,0.0,0.0,0.0,0.0,0.0,0.0,0.0,0.0,0.0,0.0,0.0,0.0,0.0,0.0,0.0,0.0,0.0,0.0,0.0,0.0,0.0,0.0,0.0,0.0,0.0,0.0,0.0,0.0,0.0,0.0,-0.8646,-0.8793,0.0,-0.8492,-0.8506,-0.8662,-0.896,-0.9259,-0.9666,-1.0215,-1.0426,-1.0717,-1.1131,-1.1145,-1.1172,-1.1233,-1.1335,-1.1463,-1.1626,-1.202,-1.2447,-1.2901,-1.3302,-1.3675,-1.4007,-1.4055,-1.4041,-1.396,-1.3532,-1.3735,-1.4382,-1.3905,-1.5114,-1.6915,-1.6964,-1.8692,-2.1114,0.0,0.0,0.0,0.0,0.0,0.0,0.0,0.0,0.0,0.0,0.0,-1.6128,-1.8274,-1.915,-2.0146,-2.1708,-2.1984,-2.1719,-2.084,0.0,0.0,0.0,0.0,0.0,0.0,-1.622,-1.6599,-1.6328,-1.7523,-1.8011,-1.7889,-1.8196,-1.8597,-1.9092,-1.9386,-1.9626,-1.9746,-1.8851,-1.7742,-1.6513,-1.5832,-1.5324,-1.4816,0.0,0.0,0.0,0.0,0.0,0.0,0.0,0.0,0.0,0.0,0.0,0.0,0.0,0.0,0.0,0.0,0.0,0.0,0.0,0.0,0.0,0.0,0.0,0.0,0.0,0.0,0.0,0.0,0.0,0.0,0.0,0.0,0.0,0.0,0.0,-1.0023,-0.9301,-0.9405,-0.949,-0.9191,-0.93,-0.9517,-0.9808,-1.0107,-1.0514,-1.1063,-1.128,-1.1504,-1.1762,-1.1769,-1.1721,-1.1619,-1.1667,-1.1687,-1.1694,-1.1993,-1.2291,-1.2589,-1.2942,-1.3288,-1.3627,-1.3777,-1.3871,-1.3926,-1.3926,-1.4892,-1.6324,-1.6008,-1.7597,-1.9992,-2.0058,-2.1407,-2.3254,0.0,0.0,0.0,0.0,0.0,0.0,0.0,0.0,0.0,0.0,-1.6283,-1.7453,-2.0281,-2.1107,-2.2218,-2.4051,-2.2433,-2.123,-2.125,-1.8848,0.0,0.0,0.0,0.0,-1.6005,-1.6854,-1.7057,-1.6508,-1.7284,-1.8023,-1.8504,-1.8798,-1.9092,-1.9399,-1.9679,-1.9813,-1.9853,-2.0134,-1.9439,-1.805,-1.7114,-1.674,-1.6526,0.0,0.0,0.0,0.0,0.0,0.0,0.0,0.0,0.0,0.0,0.0,0.0,0.0,0.0,0.0,0.0,0.0,0.0,0.0,0.0,0.0,0.0,0.0,0.0,0.0,0.0,0.0,0.0,0.0,0.0,0.0,0.0,0.0,-1.1239,-1.1141,-1.086,-1.0876,-1.0434,-0.9971,-0.9693,-1.0059,-1.0439,-1.0731,-1.1023,-1.1375,-1.1823,-1.1843,-1.1918,-1.2074,-1.2074,-1.2074,-1.206,-1.1911,-1.183,-1.1823,-1.183,-1.1986,-1.2284,-1.2433,-1.2739,-1.3166,-1.3329,-1.3485,-1.3627,-1.3627,-1.4952,-1.6909,-1.6723,-1.9111,-2.2729,-2.2471,-2.3637,-2.5312,0.0,0.0,0.0,0.0,0.0,0.0,0.0,0.0,0.0,0.0,-1.6492,-1.8186,-2.0751,-2.2528,-2.3798,-2.4556,-2.3304,-2.2208,-2.1762,0.0,0.0,0.0,0.0,0.0,-2.0641,-2.0271,-2.0036,-2.0116,-1.9971,-1.9495,-1.8811,-1.8891,-1.9199,-1.9693,-1.9987,-2.0227,-2.0454,-2.0748,-2.0521,-1.9826,-1.829,-1.7422,-1.6887,0.0,0.0,0.0,0.0,0.0,0.0,0.0,0.0,0.0,0.0,0.0,0.0,0.0,0.0,0.0,0.0,0.0,0.0,0.0,0.0,0.0,0.0,0.0,0.0,0.0,0.0,0.0,0.0,0.0,0.0,0.0,0.0,-1.0301,-0.9602,-0.9836,-1.0194,-1.0429,-1.0753,-1.0867,-1.09,-1.1016,-1.1206,-1.1504,-1.1599,-1.1796,-1.2149,-1.2162,-1.223,-1.2379,-1.2379,-1.2277,-1.206,-1.202,-1.1891,-1.1681,-1.1782,-1.1877,-1.1965,-1.2338,-1.263,-1.2874,-1.3241,-1.3485,-1.3627,-1.3627,-1.4885,-1.6723,-1.6664,-1.9111,-2.2595,-2.1086,-2.1737,-2.3433,0.0,0.0,0.0,0.0,0.0,0.0,0.0,0.0,0.0,0.0,-1.7111,-1.8865,-2.1128,-2.3029,-2.4272,-2.4459,-2.3067,-2.1735,-2.0787,0.0,0.0,0.0,0.0,-2.0294,-2.1655,-2.2044,-2.2136,-2.2001,-2.2081,-2.185,-2.1299,-2.1432,-2.1365,-2.1047,-2.1357,-2.1107,-2.0695,-2.0989,-2.1082,-2.0949,-1.9786,-1.9052,-1.8477,-1.7048,-1.666,-1.6767,-1.5925,-1.5712,-1.5725,-1.5097,0.0,0.0,0.0,0.0,0.0,0.0,0.0,0.0,0.0,0.0,0.0,0.0,0.0,0.0,0.0,0.0,0.0,0.0,0.0,0.0,0.0,0.0,0.0,0.0,-1.098,-1.0361,-0.9765,-1.0019,-1.0432,-1.0799,-1.1199,-1.1504,-1.166,-1.1674,-1.1769,-1.2006,-1.2026,-1.2128,-1.2366,-1.2379,-1.242,-1.2501,-1.2501,-1.242,-1.225,-1.2189,-1.2074,-1.1898,-1.1857,-1.183,-1.1837,-1.204,-1.225,-1.2474,-1.2861,-1.3146,-1.3356,-1.3485,-1.4095,0.0,0.0,0.0,0.0,0.0,-2.07,-2.2484,0.0,0.0,0.0,0.0,0.0,0.0,0.0,0.0,0.0,0.0,0.0,-1.9356,-2.1106,-2.2819,-2.3854,-2.3883,-2.2187,-2.0477,0.0,0.0,0.0,-1.7832,-2.043,-2.1644,-2.1065,-2.3008,-2.3728,-2.3011,-2.3821,-2.434,-2.4497,-2.4928,-2.4311,-2.3004,-2.3308,-2.2637,-2.1396,-2.1658,-2.1833,-2.1964,-2.1565,-2.1128,-2.0548,-1.8878,-1.8544,-1.8824,-1.7662,-1.6807,-1.6166,-1.5778,0.0,0.0,0.0,0.0,0.0,0.0,0.0,0.0,0.0,0.0,0.0,0.0,0.0,0.0,0.0,0.0,0.0,0.0,0.0,0.0,0.0,0.0,0.0,0.0,-1.0623,-1.0426,-1.0995,-1.1104,-1.1253,-1.1599,-1.1769,-1.1918,-1.2074,-1.2088,-1.2149,-1.2305,-1.2318,-1.2372,-1.2494,0.0,0.0,0.0,0.0,-1.2494,-1.2481,-1.2352,-1.2284,-1.2257,-1.1986,-1.185,-1.183,-1.1721,-1.1803,-1.2054,-1.2366,-1.2664,-1.2956,-1.322,-1.3234,-1.3422,-1.5514,-1.7322,-1.872,-1.9159,-2.0099,-2.1243,0.0,0.0,0.0,0.0,0.0,0.0,0.0,0.0,0.0,-1.6436,-1.7509,-1.8714,-2.001,-2.1624,-2.2774,-2.3246,-2.1345,-1.9619,0.0,0.0,-1.875,-2.041,-2.1387,-2.2629,-2.414,-2.5275,-2.5507,-2.4898,-2.5486,-2.5232,-2.448,-2.4563,-2.4779,-2.5001,-2.5049,-2.5165,-2.5482,-2.5545,-2.4887,-2.4054,-2.3995,-2.2751,-2.0909,-1.9867,-1.9386,-1.9158,-1.821,-1.8223,-1.8531,-1.7502,-1.7248,-1.7168,-1.6032,0.0,0.0,0.0,0.0,0.0,0.0,0.0,0.0,0.0,0.0,0.0,0.0,0.0,0.0,0.0,0.0,0.0,0.0,0.0,0.0,-1.1717,-1.157,-1.1443,-1.1796,-1.2054,-1.2101,-1.1823,-1.1925,-1.2074,-1.223,-1.2244,-1.2305,-1.2447,-1.2461,-1.2474,-1.2501,-1.2501,-1.2501,-1.2501,-1.2501,-1.2447,-1.2332,-1.2305,-1.223,-1.2108,0.0,0.0,-1.1837,-1.1932,-1.1938,-1.1898,-1.2318,-1.2603,-1.2779,-1.2834,-1.2773,-1.28,-1.5104,-1.5136,-1.4304,-1.7539,-1.7796,-1.6852,0.0,0.0,0.0,0.0,0.0,0.0,0.0,0.0,0.0,0.0,-1.719,-1.8018,-1.8908,-2.0238,-2.1045,-2.1049,-1.961,0.0,0.0,-1.8418,-1.9512,-2.1484,-2.2578,-2.3867,-2.5371,-2.6465,-2.6917,-2.6548,-2.7168,-2.7345,-2.706,-2.7259,-2.7196,-2.7036,-2.6917,-2.6764,-2.6282,-2.5593,-2.4995,-2.4416,-2.381,-2.289,-2.1911,-2.1176,-2.0615,-2.0174,-1.9733,-1.9492,-1.9252,-1.8504,-1.8263,-1.8063,-1.686,-1.6086,-1.5378,0.0,0.0,0.0,0.0,0.0,0.0,0.0,0.0,0.0,0.0,0.0,0.0,0.0,0.0,-1.2859,0.0,0.0,-1.1939,-1.1799,-1.1868,-1.1918,-1.2142,-1.2366,-1.242,-1.2189,-1.2305,-1.2393,-1.2393,-1.2393,-1.2427,-1.2494,-1.2501,-1.2501,-1.2501,-1.2501,-1.2501,-1.2501,-1.2501,-1.2467,-1.2393,-1.2393,-1.2325,-1.2176,-1.2101,-1.1979,-1.183,-1.1837,-1.1837,-1.185,-1.223,-1.2481,-1.2623,-1.2698,-1.2684,-1.2773,-1.3693,-1.3494,-1.2797,-1.4589,-1.5201,-1.5266,0.0,0.0,0.0,0.0,0.0,0.0,0.0,0.0,0.0,0.0,0.0,-1.7312,-1.7831,-1.8656,-1.8983,0.0,0.0,0.0,0.0,-1.8926,-2.0215,-2.2051,-2.3691,-2.4922,-2.5723,-2.7012,-2.7676,-2.7676,-2.8418,-2.9062,-2.957,-2.9922,-2.9642,-2.892,-2.892,-2.8224,-2.6969,-2.5918,-2.5375,-2.5319,-2.3926,-2.3264,-2.3039,-2.2297,-2.1697,-2.1243,-2.0962,-2.0174,-1.9239,-1.8945,-1.8651,-1.825,-1.7341,-1.6967,-1.6567,-1.4977,-1.4509,0.0,0.0,0.0,0.0,0.0,0.0,0.0,0.0,0.0,-1.3746,-1.389,-1.3565,-1.2959,-1.1964,-1.2234,-1.2474,-1.1784,-1.2241,-1.2648,-1.2352,-1.2776,-1.2993,-1.2508,-1.261,-1.2637,-1.2515,-1.2501,-1.2501,-1.2501,-1.2474,-1.2474,-1.2501,-1.2474,-1.2474,-1.2501,-1.2501,-1.2501,-1.2501,-1.2501,-1.244,-1.2332,-1.2176,-1.2026,-1.187,-1.1728,-1.1708,-1.1809,-1.2149,-1.2372,-1.2515,-1.2664,-1.2712,-1.2671,-1.2522,-1.2393,-1.2277,-1.2182,-1.3162,-1.4456,0.0,0.0,0.0,0.0,0.0,0.0,0.0,0.0,0.0,0.0,0.0,0.0,0.0,0.0,0.0,0.0,0.0,0.0,-1.8527,-1.9375,-2.0781,-2.291,-2.4277,-2.5234,-2.5723,-2.7012,-2.7676,-2.7676,-2.8125,-2.8769,-2.957,-2.9609,-2.9964,-3.0645,-3.0645,-3.0721,-3.083,-3.0749,-2.9989,-2.8834,-2.725,-2.5638,-2.413,-2.2517,-2.1951,-2.171,-2.0414,-1.9533,-1.8931,-1.8637,-1.8343,-1.8116,-1.825,-1.7916,-1.7288,-1.6313,0.0,-1.4429,-1.4041,-1.4015,-1.4322,-1.5337,-1.5458,-1.5556,0.0,0.0,-1.4859,-1.3004,-1.275,-1.2588,-1.1234,-1.1482,-1.1935,-1.1979,-1.3748,-1.4483,-1.2814,-1.4243,-1.4656,-1.267,-1.2515,-1.2522,-1.2501,-1.2501,-1.2501,-1.2501,-1.2386,-1.2372,-1.2494,-1.2379,-1.2372,-1.2501,-1.2501,-1.2501,-1.2501,-1.2501,-1.2494,-1.2474,-1.2332,-1.2182,-1.2033,-1.1877,-1.1748,-1.1667,-1.2101,-1.2372,-1.2515,-1.2664,-1.2651,-1.2515,-1.2372,-1.2305,-1.2305,-1.2413,-1.2525,-1.256,0.0,0.0,0.0,0.0,0.0,0.0,0.0,0.0,0.0,0.0,0.0,0.0,0.0,0.0,0.0,0.0,0.0,0.0,-1.8566,-1.9434,-2.0996,-2.3418,-2.4512,-2.5273,-2.5723,-2.7012,-2.7676,-2.7676,-2.8086,-2.8613,-2.9199,-2.9453,-2.9902,-3.0488,-3.0762,-3.0996,-3.1054,-3.0294,-2.9617,-2.9028,-2.7512,-2.6582,-2.5754,-2.439,-2.3563,-2.2778,-2.0598,-1.9199,0.0,0.0,-1.8149,-1.7647,-1.8401,-1.7929,-1.6901,-1.6019,-1.5418,0.0,-1.5084,-1.5351,0.0,0.0,-1.7034,-1.7727,-1.7831,-1.7636,-1.6752,-1.4985,-1.4292,-1.3649,-1.1983,-1.1999,-1.2244,0.0,-1.3259,-1.3516,-1.2642,-1.3238,-1.3253,-1.2175,-1.1986,-1.2088,-1.2352,-1.2379,-1.2379,-1.2379,-1.2325,-1.2277,-1.2244,-1.2277,-1.2318,-1.2379,-1.2461,-1.2501,-1.2501,-1.2501,-1.2461,-1.2379,-1.2318,-1.2162,-1.1925,-1.1864,-1.1796,-1.1755,-1.2033,-1.2244,-1.2393,-1.2535,-1.2508,-1.2379,-1.2406,-1.2366,-1.2284,-1.2257,-1.2264,-1.2291,0.0,0.0,0.0,0.0,0.0,0.0,0.0,0.0,0.0,0.0,0.0,0.0,0.0,0.0,0.0,0.0,0.0,0.0,0.0,-1.9017,-2.0742,-2.3493,-2.4382,-2.498,-2.5547,-2.6719,-2.7363,-2.748,-2.791,-2.8457,-2.9101,-2.9414,-2.9863,-3.041,-3.0742,-3.0898,-3.0782,-2.9849,-2.9481,-2.9379,-2.7816,-2.7075,-2.675,-2.514,-2.3829,-2.2704,-2.0725,-1.9055,0.0,0.0,-1.7358,-1.6643,-1.7584,-1.719,-1.6233,-1.5685,-1.5458,-1.5444,-1.5658,0.0,0.0,-1.7114,-1.841,-1.9508,-1.914,-1.8937,-1.8294,-1.6244,-1.5891,-1.4973,-1.2641,-1.2691,-1.287,-1.2311,-1.2867,-1.3027,-1.2402,-1.2599,-1.255,-1.1599,-1.1484,-1.1579,-1.1945,-1.2094,-1.2182,-1.2223,-1.2189,-1.2135,-1.2067,-1.2128,-1.2203,-1.2284,-1.2393,-1.2461,-1.2501,-1.2501,-1.2433,-1.2291,-1.225,-1.2088,-1.183,-1.1789,-1.1796,-1.1837,-1.1993,-1.2169,-1.2359,-1.2461,-1.244,-1.2359,-1.2461,-1.244,-1.2332,-1.2223,-1.225,-1.2345,0.0,0.0,0.0,0.0,0.0,0.0,0.0,0.0,0.0,0.0,0.0,0.0,0.0,0.0,0.0,0.0,0.0,0.0,0.0,-1.8115,-1.9925,-2.294,-2.356,-2.4219,-2.5059,-2.5977,-2.6621,-2.7031,-2.748,-2.832,-2.9551,-2.957,-3.0039,-3.0859,-3.0879,-3.0898,-3.0898,-3.0898,-3.0782,-3.0626,-2.8652,-2.7535,-2.6839,-2.3994,-2.1941,-2.0516,-2.0516,0.0,0.0,0.0,-1.5599,-1.4696,-1.5271,-1.5444,0.0,-1.5738,-1.5618,-1.5404,0.0,0.0,-1.6981,-1.8143,-1.9332,-2.0002,-1.9376,-1.9628,-1.9093,-1.5981,-1.6406,-1.6355,-1.2777,-1.3275,-1.3682,-1.2115,-1.359,-1.4229,-1.2345,-1.3535,-1.3815,-1.1691,-1.1145,-1.1029,0.0,-1.1592,-1.1904,-1.206,-1.1932,-1.1911,-1.2054,-1.1925,-1.1979,-1.2284,-1.2291,-1.2366,-1.2501,-1.2501,-1.2433,-1.2291,-1.2142,-1.1986,-1.1823,-1.1687,-1.1701,-1.1837,-1.1993,-1.223,-1.2494,-1.2501,-1.2501,-1.2494,-1.2501,-1.2501,-1.2494,-1.2488,-1.2488,-1.2494,0.0,0.0,0.0,0.0,0.0,0.0,0.0,0.0,0.0,0.0,0.0,0.0,0.0,0.0,0.0,0.0,0.0,0.0,0.0,-1.8093,-1.963,-2.1901,-2.3828,-2.5041,-2.5274,-2.6185,-2.6839,-2.7288,-2.6983,-2.7187,-2.7871,-2.8164,-2.8613,-2.918,-2.9453,-2.9746,-3.0019,-3.0019,-3.0019,-2.9961,-2.8646,-2.8062,-2.7611,-2.5284,-2.329,-2.166,0.0,0.0,0.0,0.0,0.0,-1.4388,-1.5101,-1.5159,-1.4851,-1.4696,-1.4883,-1.5324,0.0,0.0,-1.8464,-1.9639,-2.0815,-2.1753,-2.1855,-2.2333,-2.1976,-1.9271,-1.8855,-1.8089,-1.4943,-1.383,-1.3223,-1.2597,-1.2611,-1.2525,-1.1763,-1.2087,-1.2124,-1.098,-1.0799,0.0,0.0,0.0,0.0,-1.1748,-1.1721,-1.1714,-1.1769,-1.1809,-1.1925,-1.2135,-1.2142,-1.2257,-1.2501,-1.2406,-1.2338,-1.2284,-1.1938,-1.1789,-1.1823,-1.1579,-1.1552,-1.1701,-1.1952,-1.2121,-1.2216,-1.2318,-1.2359,-1.2359,-1.2359,-1.2359,-1.2372,-1.2467,-1.2501,-1.2501,0.0,0.0,0.0,0.0,0.0,0.0,0.0,0.0,0.0,0.0,0.0,0.0,0.0,0.0,0.0,0.0,0.0,0.0,0.0,0.0,-1.8776,-2.0818,-2.2568,-2.3731,-2.4183,-2.478,-2.5379,-2.6013,-2.5961,-2.6202,-2.681,-2.7122,-2.7622,-2.8097,-2.8481,-2.8648,-2.8652,-2.9064,-2.8787,-2.791,-2.7187,-2.6543,-2.5801,-2.3945,-2.2266,0.0,0.0,0.0,0.0,0.0,0.0,-1.3446,-1.3939,-1.4237,-1.4427,-1.4385,-1.4963,-1.5912,-1.7382,-1.8571,-1.9679,-2.0855,-2.1871,-2.2712,-2.3207,-2.3527,-2.2975,-2.0423,-1.9959,-1.9002,-1.5515,-1.3943,-1.34,-1.3406,-1.2531,-1.184,-1.2022,-1.1949,-1.1617,-1.074,-1.0609,-1.0622,0.0,0.0,0.0,-1.1511,-1.1586,-1.1619,-1.1619,-1.1708,-1.185,-1.2054,-1.206,-1.2203,-1.2501,-1.2359,-1.2237,-1.2121,-1.1782,-1.164,-1.1667,-1.1531,-1.1525,-1.1633,-1.1932,-1.206,-1.2081,-1.2284,-1.2338,-1.2298,-1.2345,-1.2366,-1.2379,-1.2467,-1.2501,-1.2501,0.0,0.0,0.0,0.0,0.0,0.0,0.0,0.0,0.0,0.0,0.0,0.0,0.0,0.0,0.0,0.0,0.0,0.0,0.0,0.0,0.0,-1.9611,-1.9963,-2.0687,-2.2067,-2.2084,-2.2491,-2.3373,-2.4364,-2.5322,-2.6194,-2.6283,-2.6724,-2.7476,-2.7668,-2.7374,-2.6839,-2.7901,-2.7069,-2.4863,-2.4394,-2.3262,-2.168,-2.0352,0.0,0.0,0.0,0.0,0.0,0.0,0.0,0.0,0.0,-1.3024,-1.4229,-1.487,-1.5872,-1.7101,-1.8584,-1.9639,-2.0601,-2.175,-2.2458,-2.2953,-2.3247,-2.3046,-2.2076,-1.9554,-1.9851,-1.9145,0.0,0.0,-1.3841,-1.4231,-1.3045,-1.2308,-1.3062,-1.2906,-1.2248,0.0,0.0,0.0,0.0,0.0,0.0,-1.1382,0.0,-1.1613,-1.1633,-1.1633,-1.1762,-1.2054,-1.2047,-1.2189,-1.2501,-1.2352,-1.2128,-1.183,-1.1681,-1.1538,-1.1409,-1.1538,-1.1606,-1.1633,-1.1918,-1.2047,-1.2081,-1.2366,-1.2406,-1.2311,-1.244,-1.2494,-1.2501,-1.2501,-1.2494,-1.2488,0.0,0.0,0.0,0.0,0.0,0.0,0.0,0.0,0.0,0.0,0.0,0.0,0.0,0.0,0.0,0.0,0.0,0.0,0.0,0.0,0.0,0.0,0.0,0.0,0.0,0.0,0.0,0.0,0.0,-2.2765,-2.3698,-2.3724,-2.3752,-2.3742,-2.3742,-2.3503,-2.3203,-2.3533,-2.3248,-2.2637,0.0,-2.1289,-2.0762,0.0,0.0,0.0,0.0,0.0,0.0,0.0,0.0,0.0,0.0,-1.4309,-1.4656,-1.5899,-1.6954,-1.8023,-1.9492,-2.0695,-2.171,-2.2458,-2.2926,-2.3166,-2.302,-2.2579,-2.1726,-1.997,-1.9115,-1.8039,0.0,0.0,0.0,-1.3154,-1.1848,0.0,-1.1372,-1.1567,0.0,0.0,0.0,-1.1009,-1.1043,-1.1151,0.0,0.0,-1.1552,-1.1545,-1.1769,-1.1775,-1.1864,-1.2054,-1.185,-1.1979,-1.2494,-1.225,-1.202,-1.183,-1.1572,-1.1491,-1.1552,-1.1362,-1.1402,-1.1619,-1.1701,-1.1857,-1.2067,-1.2142,-1.2284,-1.244,-1.2372,-1.2406,-1.2501,-1.2501,-1.2433,-1.2491,0.0,0.0,0.0,0.0,0.0,0.0,0.0,0.0,0.0,0.0,0.0,0.0,0.0,0.0,0.0,0.0,0.0,0.0,0.0,0.0,0.0,0.0,0.0,0.0,0.0,0.0,0.0,0.0,0.0,0.0,0.0,-2.18,-2.1765,-2.1437,-2.1795,-2.1507,-2.082,-2.1268,0.0,0.0,0.0,0.0,0.0,0.0,0.0,0.0,0.0,0.0,0.0,0.0,0.0,-1.3615,-1.5007,-1.5535,-1.5965,-1.7435,0.0,-1.9466,-2.0681,-2.1777,-2.2592,-2.2645,-2.2792,-2.2712,-2.1897,-2.1256,-2.0347,-1.8611,-1.7622,0.0,0.0,0.0,0.0,0.0,0.0,0.0,-1.1463,-1.1769,-1.165,0.0,-1.1023,0.0,-1.1253,-1.1402,-1.1586,0.0,-1.1681,-1.1687,-1.1918,-1.187,-1.1904,-1.2054,-1.1837,-1.187,-1.2203,-1.204,-1.1884,-1.1735,-1.1572,-1.1538,-1.1613,-1.1443,-1.1457,-1.1619,0.0,-1.1809,-1.1972,-1.2108,-1.2257,-1.2406,-1.2393,-1.2433,-1.2494,-1.2433,-1.2963,-1.362,0.0,0.0,0.0,0.0,0.0,0.0,0.0,0.0,0.0,0.0,0.0,0.0,0.0,0.0,0.0,0.0,0.0,0.0,0.0,0.0,0.0,0.0,0.0,0.0,0.0,0.0,0.0,0.0,0.0,0.0,0.0,0.0,0.0,0.0,0.0,0.0,0.0,0.0,0.0,0.0,0.0,0.0,0.0,0.0,0.0,0.0,0.0,0.0,0.0,0.0,-1.4145,-1.4399,-1.5618,-1.6673,-1.7675,-1.9118,-2.0107,-2.0922,-2.1804,-2.2645,-2.3126,-2.2565,-2.2325,-2.1871,-2.0441,-1.9546,-1.8464,-1.65,0.0,-1.5217,-1.4162,0.0,-1.1681,-1.3646,0.0,-1.1524,-1.2274,-1.2458,-1.2196,-1.1077,-1.1104,-1.126,-1.1436,-1.1552,-1.1687,-1.185,-1.1843,-1.1891,-1.2026,-1.1904,-1.1884,-1.1999,-1.1911,-1.1843,-1.1803,-1.1823,-1.1762,-1.1619,-1.1619,-1.1619,-1.1619,-1.1599,-1.1599,-1.1626,-1.1748,-1.1823,-1.1884,-1.2169,-1.2298,-1.2332,-1.2454,-1.2642,-1.2762,-1.2789,-1.3898,-1.5466,0.0,0.0,0.0,0.0,0.0,0.0,0.0,0.0,0.0,0.0,-1.6522,0.0,0.0,0.0,0.0,0.0,0.0,0.0,0.0,0.0,0.0,0.0,0.0,0.0,0.0,0.0,0.0,0.0,0.0,0.0,0.0,0.0,0.0,0.0,0.0,0.0,0.0,0.0,0.0,0.0,0.0,0.0,0.0,0.0,0.0,0.0,0.0,0.0,0.0,0.0,-1.7039,-1.7297,-1.7272,-1.7889,-1.8851,-2.0094,-2.0722,-2.1229,-2.2111,-2.2632,-2.2859,-2.2512,-2.1871,-2.1015,-1.98,-1.8303,0.0,0.0,0.0,-1.3881,-1.344,-1.2711,0.0,-1.2122,0.0,0.0,0.0,0.0,-1.1052,0.0,0.0,0.0,0.0,0.0,0.0,0.0,0.0,-1.1843,-1.187,-1.1843,-1.1789,-1.1701,-1.1904,-1.1904,-1.166,-1.1775,-1.1762,-1.1619,-1.1619,-1.1619,-1.1613,-1.1491,-1.1497,-1.1619,-1.1647,0.0,-1.2033,-1.2216,-1.2359,-1.2467,-1.2494,-1.3334,-1.4716,-1.4684,-1.5659,-1.725,0.0,0.0,0.0,0.0,0.0,0.0,0.0,0.0,0.0,0.0,-1.6522,-1.6522,0.0,0.0,0.0,0.0,0.0,0.0,0.0,0.0,0.0,0.0,0.0,0.0,0.0,0.0,0.0,0.0,0.0,0.0,0.0,0.0,0.0,0.0,0.0,0.0,0.0,0.0,0.0,0.0,0.0,0.0,0.0,0.0,0.0,0.0,0.0,0.0,0.0,0.0,-1.7839,-1.9415,-1.9447,-1.9541,-1.9773,-2.0655,-2.1216,-2.1683,-2.2258,-2.2752,-2.2953,-2.2338,-2.1416,-2.0227,-1.8584,0.0,0.0,0.0,0.0,-1.308,-1.2799,0.0,0.0,0.0,0.0,0.0,0.0,0.0,0.0,0.0,0.0,0.0,0.0,0.0,0.0,0.0,0.0,-1.1864,-1.1945,-1.1877,-1.1769,-1.1626,-1.1755,-1.1762,-1.1619,-1.1687,-1.1687,-1.1619,-1.1619,-1.1619,-1.1619,-1.1545,-1.1552,-1.1619,-1.1619,0.0,-1.2067,-1.2142,-1.2298,-1.2656,-1.3722,-1.4525,-1.5252,-1.6193,-1.7564,-1.914,0.0,0.0,0.0,0.0,0.0,0.0,0.0,-1.6522,-1.6522,-1.6522,-1.6522,-1.6522,-1.6522,-1.6522,0.0,0.0,0.0,0.0,0.0,0.0,0.0,0.0,0.0,0.0,0.0,0.0,0.0,0.0,0.0,0.0,0.0,0.0,0.0,0.0,0.0,0.0,0.0,0.0,0.0,0.0,0.0,0.0,0.0,0.0,0.0,0.0,0.0,0.0,0.0,0.0,-1.7536,-1.9601,-2.0187,-2.0298,-2.0387,-2.0631,-2.1149,-2.1777,-2.2138,-2.2632,-2.2846,-2.2004,-2.0869,-1.9439,-1.7502,-1.6046,0.0,0.0,-1.2768,-1.2585,-1.2345,0.0,0.0,0.0,0.0,0.0,0.0,0.0,0.0,0.0,0.0,0.0,0.0,0.0,0.0,0.0,0.0,0.0,-1.1959,-1.185,-1.1735,-1.1619,-1.1619,-1.1619,-1.1619,-1.1619,-1.1619,-1.1619,-1.1619,-1.1599,-1.1572,-1.1572,-1.1572,-1.1572,-1.1606,0.0,0.0,-1.2094,-1.2567,-1.3259,-1.4935,-1.585,-1.6517,-1.7966,-1.9471,-2.0907,0.0,0.0,0.0,0.0,0.0,0.0,0.0,-1.6522,-1.6522,-1.6522,-1.6522,-1.6522,-1.6522,-1.6522,0.0,0.0,0.0,0.0,0.0,0.0,0.0,0.0,0.0,0.0,0.0,0.0,0.0,0.0,0.0,0.0,0.0,0.0,0.0,0.0,0.0,0.0,0.0,0.0,0.0,0.0,0.0,0.0,0.0,0.0,0.0,0.0,0.0,0.0,0.0,0.0,0.0,-1.5867,-1.756,-1.9238,-2.0471,-1.9435,0.0,0.0,-2.1483,-2.1871,-2.1964,-2.1336,-2.0107,-1.8637,-1.7101,0.0,0.0,-1.3024,-1.2532,-1.2331,-1.2305,-1.2496,0.0,0.0,0.0,0.0,0.0,0.0,0.0,0.0,0.0,0.0,0.0,0.0,0.0,0.0,0.0,0.0,-1.166,-1.1647,-1.1633,-1.1619,-1.1619,-1.1619,-1.1619,-1.1619,-1.1619,-1.1619,-1.1619,-1.1545,-1.1409,-1.1409,-1.1409,-1.1416,-1.1558,0.0,0.0,-1.221,-1.3413,-1.5234,-1.5387,-1.7413,-2.0272,-2.0393,-2.1371,-2.2611,0.0,0.0,0.0,0.0,0.0,0.0,0.0,-1.6522,-1.6522,-1.6522,-1.6522,-1.6522,-1.6522,-1.6522,-1.6522,0.0,0.0,0.0,0.0,0.0,0.0,0.0,0.0,0.0,0.0,0.0,0.0,0.0,0.0,0.0,0.0,0.0,0.0,0.0,0.0,0.0,0.0,0.0,0.0,0.0,0.0,0.0,0.0,0.0,0.0,0.0,0.0,0.0,0.0,0.0,0.0,0.0,-1.4013,-1.5479,0.0,0.0,-1.8691,-1.9826,-2.0775,-2.1496,-2.1844,-2.1256,-2.0013,-1.849,-1.682,0.0,0.0,-1.2438,-1.1984,-1.1824,-1.2011,-1.2144,-1.2289,0.0,0.0,0.0,0.0,0.0,0.0,0.0,0.0,0.0,0.0,0.0,0.0,0.0,0.0,0.0,-1.1619,-1.1619,-1.1619,-1.1619,-1.1619,-1.1619,-1.1619,-1.1619,-1.1619,-1.1619,-1.1619,-1.1538,-1.1389,-1.1389,-1.1389,-1.1396,-1.1457,0.0,0.0,-1.3854,-1.521,-1.7171,-1.837,-1.9665,-2.0814,-2.1815,-2.251,-2.2859,0.0,0.0,0.0,0.0,0.0,0.0,-1.6837,-1.6607,-1.6522,-1.6522,-1.6522,-1.6522,-1.6522,-1.6522,-1.6522,-1.6522,0.0,0.0,0.0,0.0,0.0,0.0,0.0,0.0,0.0,0.0,0.0,0.0,0.0,0.0,0.0,0.0,0.0,0.0,0.0,0.0,0.0,0.0,0.0,0.0,0.0,0.0,0.0,0.0,0.0,0.0,0.0,0.0,0.0,0.0,0.0,0.0,0.0,0.0,0.0,0.0,-1.7074,-1.8504,-1.9599,-2.0601,-2.1216,-2.0722,-1.9546,-1.809,0.0,0.0,0.0,-1.2104,-1.1637,-1.1421,-1.1339,-1.1669,-1.1925,0.0,0.0,-1.0924,0.0,0.0,0.0,0.0,0.0,0.0,0.0,0.0,0.0,0.0,0.0,0.0,-1.1552,-1.1511,-1.1504,-1.1552,-1.1511,-1.1504,-1.1552,-1.1552,-1.1572,-1.1619,-1.1572,-1.147,-1.1321,-1.128,-1.126,-1.126,-1.186,0.0,0.0,-1.5413,-1.7067,-1.9022,-2.0512,-2.1245,-2.1567,-2.2832,-2.3126,-2.2859,0.0,0.0,0.0,0.0,0.0,0.0,0.0,-1.6837,-1.6522,-1.6522,-1.6522,-1.6522,-1.6522,-1.6522,-1.6522,-1.6522,0.0,0.0,0.0,0.0,0.0,0.0,0.0,0.0,0.0,0.0,0.0,-1.562,0.0,0.0,0.0,0.0,0.0,0.0,0.0,0.0,0.0,0.0,0.0,0.0,0.0,0.0,0.0,0.0,0.0,0.0,0.0,0.0,0.0,0.0,0.0,0.0,0.0,0.0,0.0,0.0,-1.4897,-1.6927,-1.7836,-1.8931,-1.976,-1.9452,-1.8477,-1.7208,0.0,0.0,0.0,-1.2051,-1.1637,-1.1149,-1.0251,-1.1102,-1.165,-1.0791,-1.0247,0.0,0.0,0.0,0.0,0.0,0.0,0.0,0.0,0.0,0.0,0.0,0.0,0.0,-1.1396,-1.1253,-1.124,-1.1389,-1.1246,-1.124,-1.1396,-1.1396,-1.147,-1.1619,-1.1463,-1.1314,-1.1158,-1.1016,-1.0955,-1.0962,0.0,0.0,0.0,-1.6635,-1.872,-2.0694,-2.0682,-2.1697,-2.3327,-2.3327,-2.3126,-2.2859,0.0,0.0,0.0,0.0,0.0,0.0,0.0,-1.6607,-1.6522,-1.6522,-1.6522,-1.6522,-1.6522,-1.6522,-1.6522,-1.6522,0.0,0.0,0.0,0.0,0.0,0.0,0.0,0.0,0.0,0.0,0.0,-1.6806,-1.5586,-1.5378,0.0,0.0,0.0,0.0,0.0,0.0,0.0,0.0,0.0,0.0,0.0,0.0,0.0,0.0,0.0,0.0,0.0,0.0,0.0,0.0,0.0,0.0,0.0,0.0,0.0,0.0,0.0,0.0,-1.5645,-1.65,-1.7021,-1.6727,-1.6219,-1.5458,-1.4188,0.0,0.0,-1.145,-1.1035,-1.0823,-1.0756,-1.1007,-1.1461,-1.2035,-1.2167,0.0,0.0,0.0,0.0,0.0,0.0,0.0,0.0,0.0,0.0,0.0,0.0,0.0,-1.1396,-1.1246,-1.1185,-1.1233,-1.1185,-1.1185,-1.1233,-1.1233,-1.126,-1.1307,-1.126,-1.1158,-1.1016,-1.0968,-1.0948,0.0,0.0,0.0,0.0,-1.8552,-2.0781,-2.2448,-2.2448,-2.2832,-2.33,-2.3086,-2.2819,-2.2565,0.0,0.0,0.0,0.0,0.0,0.0,0.0,-1.6752,-1.6522,-1.6522,-1.6522,-1.6522,-1.6522,-1.6522,-1.6522,-1.6522,0.0,0.0,0.0,0.0,0.0,0.0,0.0,0.0,0.0,0.0,-1.5951,-1.6594,-1.5323,-1.5163,-1.6009,-1.5315,-1.5156,0.0,0.0,0.0,0.0,0.0,0.0,0.0,0.0,0.0,-1.3262,0.0,0.0,0.0,0.0,0.0,0.0,0.0,0.0,0.0,0.0,0.0,0.0,0.0,-1.0555,0.0,0.0,-1.4643,-1.515,-1.5084,-1.4763,0.0,0.0,0.0,0.0,0.0,-1.0768,-1.0584,-1.0535,-1.0543,-1.0723,-1.1292,-1.1744,0.0,0.0,0.0,0.0,0.0,0.0,0.0,0.0,0.0,0.0,0.0,0.0,0.0,-1.1233,-1.1812,-1.1998,-1.1932,-1.1396,-1.1023,-1.1084,-1.1084,-1.1111,-1.1165,-1.1104,-1.1302,-1.188,-1.1814,-1.2185,0.0,0.0,0.0,0.0,-2.0257,-2.2051,-2.3153,-2.3153,-2.3153,-2.3113,-2.2806,-2.2645,-2.2565,0.0,0.0,0.0,0.0,0.0,0.0,0.0,0.0,0.0,0.0,-1.6522,-1.6522,-1.6522,-1.6522,-1.6522,0.0,0.0,0.0,0.0,0.0,0.0,0.0,0.0,0.0,0.0,-1.582,-1.5498,-1.5363,-1.519,-1.5063,-1.4995,-1.5332,-1.5508,-1.5449,0.0,0.0,0.0,0.0,0.0,0.0,0.0,0.0,0.0,0.0,0.0,0.0,0.0,0.0,0.0,0.0,0.0,0.0,0.0,0.0,0.0,0.0,0.0,0.0,0.0,0.0,0.0,0.0,0.0,0.0,0.0,0.0,0.0,0.0,0.0,0.0,0.0,-0.9775,-0.9752,-0.9364,0.0,0.0,0.0,0.0,0.0,0.0,0.0,0.0,0.0,0.0,0.0,0.0,0.0,0.0,-1.1097,-1.2681,-1.3652,-1.3456,-1.1894,-1.1052,-1.1063,-1.1198,-1.1267,-1.1399,-1.126,-1.2127,-1.3712,-1.3532,-1.4362,0.0,0.0,0.0,0.0,-2.1603,-2.2579,-2.2832,-2.2832,-2.2846,-2.2819,-2.2525,-2.2592,-2.2792,0.0,0.0,0.0,0.0,0.0,0.0,0.0,0.0,0.0,0.0,0.0,-1.6522,-1.6522,-1.6522,0.0,0.0,0.0,0.0,0.0,0.0,0.0,0.0,0.0,0.0,0.0,-1.5242,-1.5265,-1.5997,-1.5256,-1.5471,-1.6646,-1.6854,-1.6562,-1.5918,-1.5918,0.0,0.0,0.0,0.0,0.0,0.0,0.0,0.0,0.0,0.0,0.0,-1.0661,-1.0233,0.0,0.0,0.0,0.0,0.0,0.0,0.0,0.0,-0.8911,-0.9125,-1.0127,0.0,-1.1116,-1.1423,-1.1557,0.0,0.0,0.0,0.0,0.0,0.0,0.0,0.0,0.0,0.0,0.0,0.0,0.0,0.0,0.0,0.0,0.0,0.0,0.0,0.0,0.0,0.0,0.0,0.0,-1.3166,-1.2958,-1.453,-1.5497,-1.5274,-1.4874,-1.3997,-1.2732,-1.4041,-1.4059,-1.2797,-1.4059,-1.495,-1.5342,-1.5294,-1.5524,0.0,0.0,0.0,-1.9292,-2.1525,-2.2458,-2.2525,-2.2525,-2.2659,-2.2819,-2.2525,-2.2458,-2.2485,0.0,0.0,0.0,0.0,0.0,0.0,0.0,0.0,0.0,0.0,0.0,0.0,0.0,0.0,0.0,0.0,0.0,0.0,0.0,0.0,0.0,0.0,0.0,0.0,0.0,-1.5017,-1.5048,-1.569,-1.4894,-1.5246,-1.6717,-1.6792,-1.6523,-1.6115,-1.5859,0.0,0.0,0.0,0.0,0.0,-1.2969,0.0,0.0,0.0,0.0,0.0,-1.0064,-0.9731,0.0,-0.8964,-0.8911,-0.9018,0.0,0.0,0.0,0.0,-0.8804,-0.8938,-0.9526,-0.9993,-1.0421,-1.0848,-1.1076,-1.1156,0.0,0.0,0.0,0.0,0.0,0.0,0.0,0.0,0.0,0.0,0.0,0.0,0.0,0.0,0.0,0.0,0.0,0.0,0.0,0.0,0.0,0.0,0.0,-1.4827,-1.4677,-1.6328,-1.7206,-1.7087,-1.7076,-1.6302,-1.4493,-1.5394,-1.5394,-1.4493,-1.5394,-1.6302,-1.7076,-1.7076,-1.7474,0.0,0.0,0.0,-2.0241,-2.149,-2.2178,-2.2418,-2.2418,-2.2512,-2.2619,-2.2325,-2.2218,-2.2178,0.0,0.0,0.0,0.0,0.0,0.0,0.0,0.0,0.0,0.0,0.0,0.0,0.0,0.0,0.0,0.0,0.0,0.0,0.0,0.0,0.0,0.0,0.0,0.0,-1.5511,-1.4971,-1.4762,-1.4934,-1.4526,-1.4961,-1.6172,-1.6367,-1.6387,-1.623,-1.5664,0.0,0.0,0.0,0.0,0.0,-1.2909,0.0,0.0,0.0,0.0,0.0,0.0,0.0,0.0,-0.8818,-0.8871,-0.8925,-0.8831,0.0,0.0,0.0,0.0,0.0,-0.9633,-1.0335,-1.0913,-1.1209,-1.1396,-1.1476,0.0,0.0,0.0,0.0,0.0,0.0,0.0,0.0,0.0,0.0,0.0,0.0,0.0,0.0,0.0,0.0,0.0,0.0,0.0,0.0,0.0,0.0,0.0,-1.6573,-1.6322,-1.8063,-1.9006,-1.8908,-1.864,-1.7837,-1.625,-1.625,-1.6121,-1.5863,-1.6347,-1.7363,-1.8776,-1.8776,-1.9549,-2.0975,0.0,0.0,-2.1416,-2.147,-2.1804,-2.2285,-2.2285,-2.2311,-2.2311,-2.2031,-2.1951,-2.1937,0.0,0.0,0.0,0.0,0.0,0.0,0.0,0.0,0.0,0.0,0.0,0.0,0.0,0.0,0.0,0.0,0.0,0.0,0.0,0.0,0.0,0.0,0.0,0.0,0.0,0.0,0.0,-1.4247,0.0,0.0,-1.666,-1.7734,-1.7852,-1.7129,-1.5937,-1.498,-1.4199,-1.3789,-1.3359,-1.292,-1.2264,0.0,0.0,0.0,0.0,0.0,0.0,0.0,0.0,-0.8884,-0.9138,-0.9459,-0.8965,0.0,0.0,0.0,0.0,0.0,-1.0127,-1.1102,-1.1516,-1.0862,-1.1249,-1.1677,-1.1169,0.0,0.0,0.0,0.0,0.0,0.0,0.0,0.0,0.0,0.0,0.0,0.0,0.0,0.0,0.0,0.0,0.0,0.0,0.0,0.0,0.0,0.0,-1.8197,-1.8116,-1.9724,-2.0768,-2.0716,-1.9291,-1.8267,-1.792,-1.7794,-1.7036,-1.564,-1.822,-1.9736,-1.9994,-1.9994,-2.0117,-2.0374,0.0,-2.0535,-2.0828,-2.1069,-2.1376,-2.1683,-2.1683,-2.183,-2.2017,-2.1724,-2.1777,-2.1937,0.0,0.0,0.0,0.0,0.0,0.0,0.0,0.0,0.0,0.0,0.0,0.0,0.0,0.0,0.0,0.0,0.0,0.0,0.0,0.0,0.0,0.0,0.0,0.0,0.0,0.0,0.0,0.0,0.0,-1.5977,-1.709,-1.7441,-1.7402,-1.6973,-1.5898,-1.5059,-1.4453,-1.4023,-1.3388,-1.2632,0.0,0.0,0.0,0.0,0.0,0.0,0.0,0.0,0.0,0.0,-0.9085,-0.9365,-0.8938,0.0,0.0,0.0,0.0,0.0,-1.0087,-1.0848,-1.1329,-1.1089,-1.1931,-1.2513,-1.1253,0.0,0.0,0.0,0.0,0.0,0.0,0.0,0.0,0.0,0.0,0.0,0.0,0.0,0.0,0.0,0.0,0.0,0.0,0.0,0.0,0.0,0.0,0.0,-1.9941,-2.0716,-2.1109,-2.1109,-1.8512,-1.7096,-1.6844,-1.6599,-1.6534,-1.6783,-1.917,-2.0227,-2.0227,-2.0227,-2.0227,-2.0227,0.0,-2.0307,-2.0454,-2.0748,-2.1056,-2.1323,-2.1496,-2.163,-2.171,-2.1416,-2.1403,-2.1496,0.0,0.0,0.0,0.0,0.0,0.0,0.0,0.0,0.0,0.0,0.0,0.0,0.0,0.0,0.0,0.0,0.0,0.0,0.0,0.0,0.0,0.0,0.0,0.0,0.0,0.0,-1.4675,-1.4941,-1.5469,-1.6289,-1.7383,-1.7031,-1.665,-1.6229,0.0,-1.5061,-1.4467,-1.4045,-1.3343,-1.2554,0.0,0.0,0.0,0.0,0.0,0.0,0.0,0.0,0.0,0.0,0.0,0.0,0.0,0.0,0.0,-0.9339,-0.9339,-0.9486,-1.014,-1.0701,-1.1169,-1.1463,0.0,-1.3015,-1.189,0.0,0.0,0.0,0.0,0.0,0.0,0.0,0.0,0.0,0.0,0.0,0.0,0.0,0.0,0.0,0.0,0.0,0.0,0.0,0.0,0.0,0.0,0.0,-2.1109,-2.1042,-2.1002,-2.1002,-1.7978,-1.6287,-1.6055,-1.5752,-1.6038,-1.7143,-1.9063,-2.0027,-2.0027,-2.0027,-2.0027,-2.0027,-2.0027,-2.0067,-2.0147,-2.0374,-2.0681,-2.1029,-2.1256,-2.139,-2.1416,-2.1189,-2.1109,-2.1109,0.0,0.0,0.0,0.0,0.0,0.0,0.0,0.0,0.0,0.0,0.0,0.0,0.0,0.0,0.0,0.0,0.0,0.0,0.0,0.0,0.0,0.0,0.0,0.0,0.0,-1.5135,-1.5165,-1.5371,-1.623,-1.6894,-1.7383,-1.7363,-1.651,-1.5013,0.0,-1.4773,-1.3657,-1.3203,-1.2968,-1.2733,-1.1058,0.0,0.0,0.0,0.0,0.0,0.0,0.0,0.0,0.0,0.0,0.0,0.0,0.0,-0.9646,-0.9646,-0.9646,-0.9833,-1.0701,-1.1156,-1.1463,-1.1757,-1.2118,0.0,-1.3239,-1.3609,0.0,0.0,0.0,0.0,0.0,0.0,0.0,0.0,0.0,0.0,0.0,0.0,0.0,0.0,0.0,0.0,0.0,0.0,0.0,0.0,0.0,0.0,-2.1109,-2.0855,-2.0708,-2.0708,-1.8544,-1.7422,-1.7276,-1.7144,-1.6409,-1.5064,-1.7991,-1.9426,-1.9426,-1.9426,-1.9426,-1.9426,-1.9426,-1.9586,-1.9826,-1.9853,-2.0201,-2.0708,-2.0735,-2.0909,-2.1136,-2.1122,-2.1109,-2.1109,0.0,0.0,0.0,0.0,0.0,0.0,0.0,0.0,0.0,0.0,0.0,0.0,0.0,0.0,0.0,0.0,0.0,0.0,0.0,0.0,0.0,0.0,0.0,-1.4689,-1.4735,-1.4563,-1.4909,-1.582,-1.6699,-1.6812,-1.6225,-1.5963,0.0,0.0,0.0,-1.3647,-1.3195,-1.2762,-1.2307,-1.1815,-1.0902,-1.0161,0.0,0.0,0.0,0.0,0.0,0.0,0.0,0.0,-0.9005,-0.915,0.0,-0.9299,-0.9686,-0.9686,-0.9806,-1.006,-1.0581,-1.1062,-1.149,-1.1797,0.0,0.0,0.0,0.0,0.0,0.0,0.0,0.0,0.0,0.0,0.0,0.0,0.0,0.0,0.0,0.0,0.0,0.0,0.0,0.0,0.0,0.0,0.0,0.0,0.0,0.0,-2.0561,-2.0454,-2.0401,-2.0401,-1.8545,-1.7486,-1.7349,-1.7078,-1.656,-1.592,-1.8248,-1.9372,-1.9372,-1.9372,-1.9372,-1.9372,-1.9372,-1.9426,-1.9546,-1.972,-1.9933,-2.0174,-2.0535,-2.0855,-2.1109,-2.1109,-2.1109,-2.1109,0.0,0.0,0.0,0.0,0.0,0.0,0.0,0.0,0.0,0.0,0.0,0.0,0.0,0.0,0.0,0.0,0.0,0.0,0.0,0.0,0.0,0.0,0.0,-1.4312,-1.4113,-1.3977,-1.457,-1.5859,-1.6465,-1.6271,-1.5333,0.0,0.0,0.0,0.0,0.0,-1.2709,-1.2374,-1.1916,-1.1406,-1.0799,-1.0091,0.0,0.0,0.0,0.0,0.0,0.0,0.0,0.0,-0.8938,0.0,0.0,0.0,0.0,-0.99,-1.0033,-1.018,-1.0474,-1.0782,-1.0995,0.0,0.0,0.0,0.0,0.0,0.0,0.0,0.0,0.0,0.0,0.0,0.0,0.0,0.0,0.0,0.0,0.0,0.0,0.0,0.0,0.0,0.0,0.0,0.0,0.0,0.0,0.0,0.0,-2.0147,-2.0094,-2.0094,-1.8772,-1.8105,-1.7836,-1.7652,-1.7304,-1.7163,-1.8516,-1.9145,-1.9225,-1.9132,-1.9145,-1.9225,-1.9225,-1.9225,-1.9239,-1.9439,-1.9573,-1.9733,-2.0414,-2.0802,-2.0989,-2.1082,-2.1109,-2.1109,0.0,0.0,0.0,0.0,0.0,0.0,0.0,0.0,0.0,0.0,0.0,0.0,0.0,0.0,0.0,0.0,0.0,0.0,0.0,0.0,0.0,0.0,0.0,-1.371,-1.3496,-1.3516,-1.4121,-1.5391,-1.5427,-1.5296,-1.4852,-1.3979,0.0,0.0,0.0,0.0,-1.2163,-1.1899,-1.1764,-1.1688,-1.0526,-1.0114,-1.0047,0.0,0.0,0.0,0.0,0.0,0.0,0.0,-0.8804,0.0,0.0,0.0,0.0,-1.0443,-1.0354,-1.018,-1.0474,-1.0354,0.0,0.0,0.0,0.0,0.0,0.0,0.0,0.0,0.0,0.0,0.0,0.0,0.0,0.0,0.0,0.0,0.0,0.0,0.0,0.0,0.0,0.0,0.0,0.0,0.0,0.0,0.0,0.0,0.0,-1.9947,-1.9786,-1.9786,-1.9506,-1.9212,-1.8918,-1.8918,-1.8771,-1.849,-1.8477,-1.8637,-1.8905,-1.8624,-1.8651,-1.8918,-1.8918,-1.8918,-1.8918,-1.8918,-1.9092,-1.9452,-2.0321,-2.0668,-2.0708,-2.1002,-2.1109,-2.1109,0.0,0.0,0.0,0.0,0.0,0.0,0.0,0.0,0.0,0.0,0.0,0.0,0.0,0.0,0.0,0.0,0.0,0.0,0.0,0.0,0.0,0.0,0.0,0.0,0.0,0.0,-1.3848,-1.4512,-1.465,-1.4177,0.0,0.0,0.0,-1.1058,0.0,0.0,-1.1044,-1.0961,-1.0982,-1.0919,-1.0586,-1.0301,-1.0074,0.0,0.0,0.0,0.0,0.0,0.0,0.0,0.0,0.0,0.0,0.0,0.0,-1.014,-1.0327,-1.0448,-1.0604,0.0,0.0,0.0,0.0,0.0,0.0,0.0,0.0,0.0,0.0,0.0,0.0,0.0,0.0,0.0,0.0,0.0,0.0,0.0,0.0,0.0,0.0,0.0,0.0,0.0,0.0,0.0,0.0,0.0,0.0,-1.9145,-1.8971,-1.9172,-1.8905,-1.8704,-1.8624,-1.841,-1.8263,-1.8183,-1.7956,-1.8116,-1.8624,-1.8531,-1.8544,-1.8624,-1.8624,-1.8624,-1.8624,-1.8624,-1.8918,-1.9399,-1.9653,-2.0134,-2.0681,-2.0775,-2.0935,-2.1109,0.0,0.0,0.0,0.0,0.0,0.0,0.0,0.0,0.0,0.0,0.0,0.0,0.0,0.0,0.0,0.0,0.0,0.0,0.0,0.0,0.0,0.0,0.0,0.0,0.0,-1.303,-1.3124,0.0,0.0,0.0,0.0,0.0,0.0,-1.0902,0.0,-1.0688,0.0,-1.0725,-1.0618,-1.0618,-1.0618,-1.0448,-1.0261,0.0,0.0,0.0,0.0,0.0,0.0,0.0,0.0,0.0,0.0,0.0,0.0,-1.0033,-1.0247,-1.0381,-1.0381,0.0,0.0,0.0,0.0,0.0,0.0,0.0,0.0,0.0,0.0,0.0,0.0,0.0,0.0,0.0,0.0,0.0,0.0,0.0,0.0,0.0,0.0,0.0,0.0,0.0,0.0,0.0,0.0,0.0,0.0,-1.8691,-1.8571,-1.8744,-1.8584,-1.8437,-1.8317,-1.8009,-1.7809,-1.7689,-1.7502,-1.7595,-1.7956,-1.8076,-1.8196,-1.8317,-1.8303,-1.8303,-1.833,-1.8437,-1.8624,-1.8878,-1.9225,-1.9693,-2.0201,-2.0548,-2.0788,-2.0949,0.0,0.0,0.0,0.0,0.0,0.0,0.0,0.0,0.0,0.0,0.0,0.0,0.0,0.0,0.0,0.0,0.0,0.0,0.0,0.0,0.0,0.0,0.0,0.0,0.0,0.0,0.0,0.0,0.0,0.0,0.0,0.0,-1.0541,-1.1356,0.0,-1.0862,-1.1356,-1.0795,-1.0618,-1.0618,-1.0618,-1.0618,-1.0591,-1.0234,0.0,0.0,0.0,0.0,0.0,0.0,0.0,0.0,0.0,0.0,-0.978,-1.0074,-1.0154,-1.0167,0.0,0.0,0.0,0.0,0.0,0.0,0.0,0.0,0.0,0.0,0.0,0.0,0.0,0.0,0.0,0.0,0.0,0.0,0.0,0.0,0.0,0.0,0.0,0.0,0.0,0.0,0.0,0.0,0.0,0.0,0.0,-1.8437,-1.841,-1.841,-1.8384,-1.8223,-1.7929,-1.7649,-1.7368,-1.7114,-1.7114,-1.7114,-1.7114,-1.7408,-1.7702,-1.7969,-1.7943,-1.7943,-1.7983,-1.8263,-1.8223,-1.809,-1.8918,-1.9292,-1.9466,-2.0267,-2.0588,-2.0681,0.0,0.0,0.0,0.0,0.0,0.0,0.0,0.0,0.0,0.0,0.0,0.0,0.0,0.0,0.0,0.0,0.0,0.0,0.0,0.0,0.0,0.0,0.0,0.0,0.0,0.0,0.0,0.0,0.0,0.0,0.0,0.0,0.0,-1.1076,0.0,-1.0755,-1.1062,-1.0715,-1.0618,-1.0618,-1.0618,-1.0618,-1.0591,-1.0234,-1.0114,0.0,0.0,0.0,0.0,0.0,0.0,0.0,-0.9927,-1.002,-1.0087,-1.0381,-1.0461,0.0,0.0,0.0,0.0,0.0,0.0,0.0,0.0,0.0,0.0,0.0,0.0,0.0,0.0,0.0,0.0,0.0,0.0,0.0,0.0,0.0,0.0,0.0,0.0,0.0,0.0,0.0,0.0,0.0,0.0,0.0,-1.8477,-1.8036,-1.7782,-1.7782,-1.7555,-1.7301,-1.6994,-1.6927,-1.686,0.0,-1.6807,-1.6807,-1.6807,-1.7101,-1.7275,-1.7341,-1.7341,-1.7341,-1.7341,-1.7408,-1.7542,-1.7729,-1.8156,-1.8758,-1.9386,-1.9573,-1.9933,-2.0334,0.0,0.0,0.0,0.0,0.0,0.0,0.0,0.0,0.0,0.0,0.0,0.0,0.0,0.0,0.0,0.0,0.0,0.0,0.0,0.0,0.0,0.0,0.0,0.0,0.0,0.0,0.0,0.0,0.0,0.0,0.0,0.0,0.0,-1.1182,0.0,-1.0929,-1.1169,-1.0742,-1.0618,-1.0618,-1.0618,-1.0618,-1.0604,-1.0381,-1.0327,-1.0314,-1.0154,0.0,0.0,0.0,0.0,0.0,0.0,0.0,-1.014,-1.0301,-1.0448,-1.0631,0.0,0.0,0.0,0.0,0.0,0.0,0.0,0.0,0.0,0.0,0.0,0.0,0.0,0.0,0.0,0.0,0.0,0.0,0.0,0.0,0.0,0.0,0.0,0.0,0.0,0.0,0.0,0.0,0.0,-1.7528,-1.7836,-1.7408,-1.7168,-1.7168,-1.7007,-1.686,-1.67,-1.6567,-1.65,-1.65,-1.65,-1.65,-1.6513,-1.6807,-1.6941,-1.6941,-1.6941,-1.6941,-1.6941,-1.6941,-1.7021,-1.7208,-1.7649,-1.8103,-1.8584,-1.9158,-1.9559,-1.9853,0.0,0.0,0.0,0.0,0.0,0.0,0.0,0.0,0.0,0.0,0.0,0.0,0.0,0.0,0.0,0.0,0.0,0.0,0.0,0.0,0.0,0.0,0.0,0.0,0.0,0.0,0.0,0.0,0.0,0.0,0.0,0.0,0.0,-1.141,0.0,-1.1223,-1.1463,-1.0875,-1.0725,-1.0701,-1.0658,-1.0658,-1.0635,-1.0645,-1.0618,-1.0618,-1.0618,-1.0618,-1.0591,-1.0274,0.0,0.0,0.0,0.0,-1.0194,-1.0194,-1.0367,-1.0514,0.0,0.0,0.0,0.0,0.0,0.0,0.0,0.0,0.0,0.0,0.0,0.0,0.0,0.0,0.0,0.0,0.0,0.0,0.0,0.0,0.0,0.0,0.0,0.0,0.0,0.0,0.0,0.0,0.0,-1.6807,-1.7061,-1.6834,-1.6687,-1.6633,-1.6633,-1.6607,-1.6553,-1.6313,-1.6192,-1.6192,-1.6192,-1.6192,-1.6206,-1.6446,-1.658,-1.6633,-1.6633,-1.6633,-1.6633,-1.6633,-1.6633,-1.6687,-1.7221,-1.7462,-1.7635,-1.8677,-1.9092,-1.9225,0.0,0.0,0.0,0.0,0.0,0.0,0.0,0.0,0.0,0.0,0.0,0.0,0.0,0.0,0.0,0.0,0.0,0.0,-1.2891,0.0,0.0,-1.0965,-1.0269,-0.9909,0.0,0.0,0.0,0.0,0.0,0.0,0.0,0.0,0.0,-1.1423,0.0,0.0,-1.177,-1.1182,-1.1076,-1.1263,-1.0768,-1.0715,-1.0902,-1.0725,-1.0618,-1.0618,-1.0618,-1.0618,-1.0618,-1.0577,-1.0501,0.0,0.0,0.0,-1.0501,-1.0501,-1.0528,0.0,0.0,0.0,0.0,0.0,0.0,0.0,0.0,0.0,0.0,0.0,0.0,0.0,0.0,0.0,0.0,0.0,0.0,0.0,0.0,0.0,0.0,0.0,0.0,0.0,0.0,0.0,0.0,0.0,-1.678,-1.6727,-1.6767,-1.6727,-1.6593,-1.6339,-1.6326,-1.6206,-1.5952,-1.5912,-1.5885,-1.5885,-1.5885,-1.5885,-1.5885,-1.5925,-1.6086,-1.6326,-1.6326,-1.6326,-1.6326,-1.6326,-1.6326,-1.6366,-1.6687,-1.6981,-1.7261,-1.7675,-1.7996,-1.8303,0.0,0.0,0.0,0.0,0.0,0.0,0.0,0.0,0.0,0.0,0.0,0.0,0.0,0.0,0.0,-1.2891,-1.2891,-1.2725,-1.2295,-1.1963,-1.1316,-1.0269,-1.0143,-0.9877,-0.9463,0.0,0.0,0.0,0.0,0.0,0.0,-1.1128,-1.1516,0.0,0.0,0.0,0.0,0.0,0.0,-1.141,-1.1142,0.0,0.0,-1.1035,-1.0835,-1.0672,-1.0929,-1.0835,-1.0645,-1.0742,-1.0688,-1.0618,-1.0618,0.0,0.0,0.0,-1.0618,0.0,0.0,0.0,0.0,0.0,0.0,0.0,0.0,0.0,0.0,0.0,0.0,0.0,0.0,0.0,0.0,0.0,0.0,0.0,0.0,0.0,0.0,0.0,0.0,0.0,0.0,0.0,0.0,0.0,-1.6393,-1.6286,-1.646,-1.6299,-1.6152,-1.6032,-1.6019,-1.5965,-1.5832,-1.5832,-1.5832,-1.5832,-1.5832,-1.5832,-1.5832,-1.5832,-1.5899,-1.6019,-1.6019,-1.6019,-1.6019,-1.6019,-1.6019,-1.6059,-1.6353,-1.654,-1.6714,-1.7168,-1.7422,-1.7622,0.0,0.0,0.0,0.0,0.0,0.0,0.0,0.0,0.0,0.0,0.0,0.0,0.0,0.0,0.0,0.0,-1.2891,-1.251,-1.1616,-1.1566,-1.0965,-0.9614,-1.0082,-1.0097,-0.9563,0.0,0.0,0.0,0.0,0.0,-1.1182,-1.1668,-1.2209,0.0,-1.2567,0.0,0.0,0.0,0.0,0.0,0.0,0.0,0.0,-1.1182,-1.0982,-1.0728,-1.1156,-1.1089,-1.0808,-1.1022,-1.0915,-1.0675,-1.0675,-1.0685,0.0,0.0,0.0,0.0,0.0,0.0,0.0,0.0,0.0,0.0,0.0,0.0,0.0,0.0,0.0,0.0,0.0,0.0,0.0,0.0,0.0,0.0,0.0,0.0,0.0,0.0,0.0,0.0,0.0,0.0,0.0,0.0,-1.6072,-1.5925,-1.6152,-1.5885,-1.5725,-1.5725,-1.5725,-1.5725,-1.5725,-1.5725,-1.5725,-1.5725,-1.5725,-1.5725,-1.5725,-1.5792,-1.5832,-1.5832,-1.5832,-1.5832,-1.5832,-1.5832,-1.5832,-1.5845,-1.6072,-1.6166,-1.6219,-1.674,-1.6927,-1.7007,0.0,0.0,0.0,0.0,0.0,0.0,0.0,0.0,0.0,0.0,0.0,0.0,-1.2891,-1.2891,-1.2891,-1.2891,-1.2891,-1.2314,-1.0914,-1.0864,-1.0269,-0.891,-0.9921,0.0,-1.0408,-1.1744,0.0,0.0,0.0,0.0,-1.2803,-1.2207,-1.268,-1.4081,-1.3416,-1.2839,-1.2305,0.0,0.0,0.0,0.0,0.0,0.0,0.0,-1.0755,-1.0969,-1.1009,-1.1169,-1.1383,-1.1396,-1.1209,-1.0969,-1.0969,-1.0782,-1.0618,0.0,0.0,0.0,0.0,0.0,0.0,0.0,0.0,0.0,0.0,0.0,0.0,0.0,0.0,0.0,0.0,0.0,0.0,0.0,0.0,0.0,0.0,0.0,0.0,0.0,0.0,0.0,0.0,0.0,0.0,0.0,-1.5845,-1.5832,-1.5845,-1.5578,-1.5418,-1.5418,-1.5418,-1.5418,-1.5418,-1.5418,-1.5418,-1.5418,-1.5418,-1.5418,-1.5431,-1.5698,-1.5832,-1.5832,-1.5832,-1.5832,-1.5832,-1.5832,-1.5832,-1.5832,-1.5845,-1.5845,-1.5885,-1.6206,-1.6313,-1.6406,0.0,0.0,0.0,0.0,0.0,0.0,0.0,0.0,0.0,0.0,0.0,0.0,0.0,-1.2891,-1.2891,-1.2891,-1.2891,-1.2624,-1.1954,-1.1921,-1.1608,-1.0927,-1.1495,-1.1858,-1.1858,-1.2504,0.0,0.0,0.0,-1.2932,-1.3635,-1.2972,-1.3071,-1.3859,-1.3231,-1.2786,-1.2572,-1.2385,0.0,0.0,0.0,0.0,0.0,0.0,0.0,0.0,0.0,0.0,0.0,-1.165,-1.1516,-1.1276,-1.1276,-1.1196,-1.1116,-1.1116,-1.0848,-1.0658,-1.0782,0.0,0.0,0.0,0.0,0.0,0.0,0.0,0.0,0.0,0.0,0.0,0.0,0.0,0.0,0.0,0.0,0.0,0.0,0.0,0.0,0.0,0.0,0.0,0.0,0.0,0.0,0.0,0.0,-1.5551,-1.5551,-1.5284,-1.5124,-1.5124,-1.5124,-1.5124,-1.5124,-1.5124,-1.5124,-1.5124,-1.5124,-1.5124,-1.5124,-1.5418,-1.5551,-1.5565,-1.5752,-1.5832,-1.5832,-1.5832,-1.5832,-1.5832,-1.5832,-1.5832,-1.5845,-1.5952,-1.5992,-1.6046,0.0,0.0,0.0,0.0,0.0,0.0,0.0,0.0,0.0,0.0,0.0,0.0,0.0,0.0,-1.3145,-1.3281,-1.3301,-1.3113,-1.2732,-1.2697,-1.2502,-1.2142,-1.2683,-1.3003,-1.3003,-1.3543,0.0,0.0,0.0,0.0,0.0,-1.3743,-1.3608,-1.3945,-1.3343,-1.2887,0.0,0.0,0.0,-1.2291,0.0,0.0,-1.2037,0.0,0.0,0.0,0.0,0.0,0.0,0.0,-1.1824,-1.157,-1.157,-1.1503,-1.1423,-1.1423,-1.1156,-1.0875,-1.0969,0.0,0.0,0.0,0.0,0.0,0.0,0.0,0.0,0.0,0.0,0.0,0.0,0.0,0.0,0.0,0.0,0.0,0.0,0.0,0.0,0.0,0.0,0.0,0.0,0.0,0.0,0.0,0.0,0.0,-1.5777,-1.5143,-1.4816,-1.4816,-1.4723,-1.471,-1.4816,-1.4616,-1.4576,-1.4669,-1.4669,-1.4723,-1.483,-1.5124,-1.5257,-1.5271,-1.5565,-1.5738,-1.5832,-1.5832,-1.5832,-1.5832,-1.5832,-1.5832,-1.5832,-1.5832,-1.5832,-1.5858,0.0,0.0,0.0,0.0,0.0,0.0,0.0,0.0,0.0,-1.2891,0.0,0.0,0.0,0.0,0.0,-1.4048,-1.4087,-1.3819,-1.3204,-1.3168,-1.2894,-1.2231,-1.3268,-1.3825,-1.3825,-1.4849,0.0,0.0,0.0,0.0,0.0,0.0,-1.428,0.0,-1.3945,-1.3171,-1.2318,0.0,-1.2572,-1.2291,0.0,-1.2136,-1.2318,0.0,0.0,0.0,-1.2822,-1.2835,0.0,-1.2412,0.0,0.0,0.0,-1.1677,-1.1436,-1.145,-1.1436,-1.1369,0.0,0.0,0.0,0.0,0.0,0.0,0.0,0.0,0.0,0.0,0.0,0.0,0.0,0.0,0.0,0.0,0.0,0.0,0.0,0.0,0.0,0.0,0.0,0.0,0.0,0.0,0.0,0.0,-1.5026,-1.5459,-1.6462,-1.5228,-1.4482,-1.4482,-1.4215,-1.4202,-1.4482,-1.3908,-1.3774,-1.4068,-1.4068,-1.4229,-1.4522,-1.4816,-1.495,-1.4963,-1.5257,-1.5551,-1.5818,-1.5832,-1.5832,-1.5832,-1.5832,-1.5832,-1.5832,-1.5832,-1.5832,-1.5832,0.0,0.0,0.0,0.0,0.0,0.0,0.0,0.0,0.0,0.0,0.0,0.0,-1.3945,-1.3912,-1.3951,-1.4068,-1.4087,-1.4169,-1.4294,-1.4313,-1.4391,-1.4448,-1.4811,-1.4946,-1.4946,-1.5235,0.0,0.0,0.0,0.0,0.0,0.0,0.0,0.0,-1.4053,-1.3171,-1.2305,-1.2385,0.0,0.0,-1.3414,-1.3294,0.0,0.0,0.0,0.0,0.0,-1.2893,-1.3039,0.0,-1.2647,-1.254,0.0,0.0,-1.1784,-1.1997,-1.1757,-1.145,-1.1597,0.0,0.0,0.0,0.0,0.0,0.0,0.0,0.0,0.0,0.0,0.0,0.0,0.0,0.0,0.0,0.0,0.0,0.0,0.0,0.0,0.0,0.0,0.0,0.0,0.0,0.0,0.0,-1.4861,-1.4725,-1.5471,-1.4281,-1.3574,-1.3574,-1.3494,-1.3494,-1.3574,-1.3414,-1.348,-1.3761,-1.3761,-1.3921,-1.4215,-1.4509,-1.4643,-1.4656,-1.495,-1.5244,-1.5538,-1.5738,-1.5832,-1.5832,-1.5832,-1.5832,-1.5832,-1.5832,-1.5832,-1.5832,0.0,0.0,0.0,0.0,0.0,0.0,0.0,-1.3496,-1.3769,0.0,0.0,0.0,-1.4394,-1.4727,-1.4941,-1.4941,-1.4941,-1.5039,-1.5293,-1.5156,-1.5156,-1.5391,-1.541,-1.541,-1.541,-1.5586,0.0,0.0,0.0,0.0,0.0,0.0,0.0,0.0,0.0,0.0,0.0,0.0,0.0,0.0,-1.3436,0.0,0.0,-1.3909,-1.385,0.0,0.0,0.0,-1.3507,-1.308,-1.2852,0.0,0.0,0.0,0.0,-1.2251,-1.2064,-1.1797,-1.185,0.0,0.0,0.0,0.0,0.0,-1.1169,-1.1076,0.0,0.0,0.0,0.0,0.0,0.0,0.0,0.0,0.0,0.0,0.0,0.0,0.0,0.0,0.0,0.0,0.0,-1.4991,-1.5276,-1.5919,-1.5316,-1.4896,-1.4865,-1.4594,-1.4038,-1.3213,-1.308,-1.3013,-1.3013,-1.2893,-1.3039,-1.3454,-1.3333,-1.3494,-1.3908,-1.4082,-1.4148,-1.4175,-1.4589,-1.495,-1.5244,-1.5524,-1.5725,-1.5832,-1.5832,-1.5832,-1.5832,-1.5832,-1.5832,-1.5832,0.0,0.0,0.0,0.0,0.0,0.0,0.0,0.0,-1.4199,0.0,0.0,0.0,-1.4961,-1.5684,-1.6194,-1.6194,-1.6194,-1.6194,-1.6194,-1.5781,-1.5566,-1.5566,-1.5566,-1.5566,-1.5566,-1.5937,0.0,0.0,0.0,0.0,0.0,0.0,0.0,0.0,0.0,0.0,0.0,0.0,0.0,-1.2686,-1.314,-1.3397,0.0,0.0,-1.442,-1.4196,-1.4196,-1.4139,-1.4001,-1.3454,-1.3053,0.0,0.0,0.0,0.0,0.0,-1.2345,0.0,0.0,0.0,0.0,0.0,0.0,0.0,-1.1476,-1.1249,-1.1035,0.0,0.0,0.0,0.0,0.0,0.0,0.0,0.0,0.0,0.0,0.0,0.0,0.0,0.0,0.0,-1.5063,-1.5113,-1.5341,-1.5778,-1.5745,-1.5323,-1.4543,-1.5279,-1.4988,-1.3185,-1.2812,-1.2741,-1.2768,-1.2398,-1.2559,-1.316,-1.2879,-1.3039,-1.3601,-1.3601,-1.3532,-1.3585,-1.4188,-1.4616,-1.4937,-1.519,-1.5511,-1.5832,-1.5832,-1.5832,-1.5832,-1.5832,-1.5832,-1.5832,0.0,0.0,0.0,0.0,0.0,0.0,0.0,0.0,0.0,0.0,0.0,0.0,0.0,-1.6504,-1.6602,-1.6602,-1.6602,-1.6602,-1.6602,-1.6523,-1.6484,-1.6484,-1.6484,-1.6484,-1.6484,-1.6562,-1.6602,0.0,0.0,0.0,0.0,0.0,0.0,0.0,0.0,0.0,0.0,0.0,0.0,-1.476,-1.5858,0.0,-1.6266,-1.6911,-1.6266,-1.508,-1.508,-1.4682,-1.4028,-1.3681,-1.336,-1.3106,0.0,0.0,0.0,-1.2732,0.0,0.0,0.0,0.0,0.0,0.0,0.0,0.0,-1.1837,-1.1557,-1.1276,0.0,0.0,0.0,0.0,0.0,0.0,0.0,0.0,0.0,0.0,0.0,0.0,0.0,0.0,0.0,-1.5316,-1.5316,-1.5193,-1.4833,-1.4167,-1.3863,-1.3844,-1.3343,-1.2912,-1.2478,-1.2198,-1.2158,-1.2385,-1.2104,-1.2251,-1.2916,-1.2849,-1.2946,-1.3293,-1.3293,-1.3427,-1.3654,-1.3678,-1.4122,-1.4616,-1.4669,-1.5137,-1.5832,-1.5832,-1.5832,-1.5832,-1.5832,-1.5832,-1.5832,0.0,0.0,0.0,0.0,0.0,0.0,0.0,0.0,0.0,0.0,0.0,0.0,0.0,0.0,-1.7051,-1.7051,-1.7051,-1.7051,-1.7051,-1.6855,-1.6675,-1.6675,-1.6675,-1.6675,-1.6675,-1.6953,-1.7051,-1.7051,0.0,0.0,0.0,0.0,0.0,0.0,0.0,0.0,0.0,0.0,-1.644,-1.7171,-1.6648,0.0,-1.6569,-1.7124,-1.6583,-1.5538,-1.5538,-1.4932,-1.4041,-1.3748,-1.3547,0.0,-1.308,-1.308,-1.3146,0.0,-1.2822,-1.2755,0.0,0.0,0.0,-1.2305,0.0,0.0,0.0,-1.1757,-1.1557,0.0,0.0,0.0,0.0,0.0,0.0,0.0,0.0,0.0,0.0,0.0,0.0,0.0,0.0,0.0,-1.5307,-1.5377,-1.5428,-1.5596,-1.523,-1.4647,-1.3939,-1.3453,-1.2841,-1.215,-1.1797,-1.1864,-1.2305,-1.2011,-1.2171,-1.2822,-1.2599,-1.2679,-1.2973,-1.2973,-1.3053,-1.3213,-1.3507,-1.3895,-1.4309,-1.4456,-1.487,-1.5404,-1.5551,-1.5698,-1.5832,-1.5832,-1.5832,-1.5832,-1.4199,0.0,0.0,0.0,0.0,0.0,0.0,0.0,0.0,0.0,0.0,0.0,0.0,0.0,0.0,-1.7969,-1.7617,-1.7519,-1.7852,-1.7227,-1.6855,-1.6855,-1.6934,-1.6934,-1.6855,-1.7285,-1.75,-1.75,0.0,0.0,0.0,0.0,0.0,0.0,0.0,0.0,0.0,0.0,0.0,-1.886,0.0,-1.6519,-1.7072,-1.7149,-1.6858,-1.6273,-1.5861,-1.4977,-1.4055,-1.3814,-1.3734,-1.3641,-1.316,-1.3173,0.0,0.0,0.0,0.0,0.0,0.0,0.0,0.0,0.0,-1.2459,0.0,0.0,0.0,0.0,0.0,0.0,0.0,0.0,0.0,0.0,0.0,0.0,0.0,0.0,0.0,0.0,0.0,0.0,0.0,-1.5205,-1.5523,-1.6539,-1.6141,-1.5313,-1.4148,-1.3751,-1.3051,-1.1935,-1.1583,-1.1703,-1.2291,-1.2011,-1.2131,-1.2728,-1.2412,-1.2425,-1.2741,-1.2741,-1.2768,-1.2849,-1.332,-1.3734,-1.4028,-1.4322,-1.4616,-1.491,-1.5257,-1.5538,-1.5752,-1.5805,-1.5832,-1.5832,-1.4707,-1.4394,0.0,0.0,0.0,0.0,0.0,0.0,0.0,0.0,0.0,0.0,0.0,0.0,0.0,0.0,0.0,0.0,-1.9531,-1.8164,-1.7305,-1.7305,-1.7656,-1.7695,-1.7324,-1.7715,-1.7949,-1.7949,0.0,0.0,0.0,0.0,0.0,0.0,-1.7852,0.0,0.0,0.0,-1.8259,0.0,-1.8216,-1.8969,0.0,-1.9312,-1.8842,-1.8381,-1.6437,-1.4977,-1.4082,0.0,-1.4041,-1.4028,0.0,-1.3961,-1.3935,-1.3627,0.0,0.0,0.0,0.0,0.0,0.0,-1.3509,0.0,0.0,0.0,-1.2376,-1.2994,0.0,0.0,0.0,0.0,0.0,0.0,0.0,0.0,0.0,0.0,0.0,0.0,0.0,0.0,0.0,-1.4981,-1.4865,-1.6113,-1.403,-1.3089,-1.4065,-1.2564,-1.1764,-1.1935,-1.1583,-1.1703,-1.2291,-1.2011,-1.2037,-1.2358,-1.2318,-1.2318,-1.2358,-1.2358,-1.2492,-1.2835,-1.3106,-1.3427,-1.3721,-1.4015,-1.4309,-1.4629,-1.5177,-1.5418,-1.5471,-1.5738,-1.5832,-1.5832,-1.5156,-1.5,0.0,0.0,0.0,0.0,0.0,0.0,0.0,0.0,0.0,0.0,0.0,0.0,0.0,0.0,0.0,-1.9434,0.0,0.0,-1.8477,-1.8477,-1.8652,-1.8555,-1.8125,-1.8281,-1.8262,-1.8008,-1.8008,0.0,0.0,0.0,0.0,0.0,-1.791,0.0,-1.7695,0.0,0.0,0.0,0.0,0.0,0.0,-1.9238,-1.8304,-1.7191,-1.5901,-1.4674,-1.3574,0.0,-1.3694,0.0,0.0,0.0,0.0,-1.3734,0.0,0.0,0.0,0.0,0.0,0.0,0.0,0.0,-1.3565,0.0,-1.2558,0.0,0.0,0.0,0.0,0.0,0.0,0.0,-1.374,0.0,0.0,0.0,0.0,0.0,0.0,0.0,0.0,0.0,0.0,0.0,-1.4689,-1.3891,-1.3454,-1.2881,-1.2298,-1.1597,-1.149,-1.1703,-1.2291,-1.2011,-1.2011,-1.2305,-1.2305,-1.2305,-1.2305,-1.2305,-1.2371,-1.2505,-1.2812,-1.3106,-1.3414,-1.3707,-1.4001,-1.4309,-1.4723,-1.5097,-1.5431,-1.5725,-1.5832,-1.5832,-1.5586,0.0,0.0,0.0,0.0,0.0,0.0,0.0,0.0,0.0,0.0,0.0,-2.0898,-2.0937,0.0,0.0,-2.1172,-2.0527,0.0,0.0,-1.9121,-1.8769,-1.9102,-1.9023,-1.8477,-1.8504,-1.8496,-1.8184,-1.8066,0.0,0.0,0.0,0.0,0.0,0.0,-1.7949,-1.7617,0.0,0.0,-1.8945,-1.9062,-1.9297,-1.9512,-1.9004,-1.7806,-1.6355,-1.5732,-1.4697,-1.3516,-1.3292,-1.34,0.0,-1.3559,0.0,-1.4028,0.0,0.0,0.0,-1.3801,0.0,0.0,0.0,0.0,0.0,0.0,0.0,0.0,0.0,0.0,0.0,0.0,0.0,0.0,0.0,0.0,-1.4577,0.0,0.0,0.0,0.0,0.0,0.0,0.0,0.0,0.0,-1.541,-1.4982,-1.4332,-1.3373,-1.2963,-1.2377,-1.1627,-1.1451,-1.1803,-1.2535,-1.2114,-1.2155,-1.2659,-1.2452,-1.2305,-1.2305,-1.2305,-1.2305,-1.2318,-1.2612,-1.2919,-1.3227,-1.352,-1.3814,-1.4122,-1.4496,-1.4897,-1.5311,-1.5605,-1.5765,-1.5832,-1.6096,-1.5703,0.0,0.0,0.0,0.0,0.0,0.0,0.0,0.0,0.0,0.0,0.0,0.0,0.0,0.0,0.0,-2.0918,-2.1758,0.0,-1.873,0.0,0.0,-1.8887,-1.8047,-1.8418,-1.8562,-1.8613,-1.8203,0.0,0.0,0.0,0.0,0.0,0.0,-1.8379,-1.8047,-1.8906,-1.8789,-1.8086,-1.8496,-1.8601,-1.8711,0.0,-1.8354,-1.6881,-1.6338,0.0,0.0,-1.3516,-1.34,0.0,0.0,0.0,0.0,0.0,0.0,0.0,0.0,0.0,0.0,-1.6126,0.0,0.0,0.0,0.0,-1.4498,0.0,0.0,0.0,0.0,0.0,-1.6946,-1.5698,0.0,0.0,0.0,0.0,0.0,0.0,0.0,0.0,0.0,0.0,-1.541,-1.541,-1.3974,-1.3373,-1.4154,-1.2206,-1.1442,-1.2143,-1.1667,-1.1985,-1.3274,-1.236,-1.2513,-1.3665,-1.2732,-1.2305,-1.2305,-1.2305,-1.2305,-1.2318,-1.2612,-1.2919,-1.3227,-1.352,-1.3814,-1.4148,-1.4723,-1.4963,-1.5017,-1.5297,-1.5591,-1.5832,0.0,0.0,0.0,0.0,0.0,0.0,0.0,-1.9551,0.0,0.0,0.0,0.0,0.0,-2.4434,-2.4785,0.0,0.0,-2.375,-2.3184,-2.2324,0.0,0.0,-2.0781,-2.0605,-1.9727,-1.9844,-1.9629,-1.9062,-1.8633,0.0,0.0,0.0,0.0,0.0,0.0,-1.8398,0.0,0.0,0.0,0.0,0.0,-1.9238,-1.9434,0.0,-1.8109,-1.7045,-1.6201,-1.5141,0.0,-1.3209,-1.3424,-1.3967,-1.3682,-1.3966,-1.4342,-1.4007,-1.3868,-1.4049,0.0,0.0,-1.4753,-1.6445,0.0,0.0,0.0,0.0,0.0,0.0,0.0,0.0,0.0,0.0,0.0,-1.6881,-1.6902,0.0,0.0,0.0,0.0,0.0,0.0,0.0,0.0,0.0,0.0,-1.541,-1.4864,-1.4451,-1.4213,-1.3712,-1.3139,-1.2535,-1.3104,-1.3175,-1.2652,-1.3573,-1.3633,-1.2806,-1.3098,-1.2879,-1.2305,-1.2305,-1.2305,-1.2305,-1.2412,-1.2746,-1.3213,-1.332,-1.3641,-1.4108,-1.4309,-1.4616,-1.5017,-1.5511,-1.5752,-1.5832,-1.7056,0.0,0.0,0.0,0.0,0.0,0.0,0.0,0.0,0.0,-2.3379,0.0,-2.5605,0.0,-2.6152,0.0,-2.6211,-2.5352,-2.3887,-2.3672,0.0,-2.1484,-2.1855,-2.1543,0.0,-2.0644,-2.0312,-1.9297,0.0,-1.9082,0.0,0.0,0.0,0.0,0.0,0.0,0.0,0.0,-1.8809,0.0,0.0,-1.9316,0.0,0.0,-1.8297,-1.7421,0.0,-1.4967,-1.3815,-1.3422,-1.3791,-1.4394,-1.4316,-1.4648,-1.4874,-1.443,-1.4022,-1.4131,-1.5731,-1.5521,0.0,-1.7166,-1.6894,0.0,-1.7311,0.0,-1.7569,0.0,0.0,0.0,0.0,0.0,0.0,-1.7656,-1.748,-1.707,0.0,-1.5684,0.0,0.0,0.0,0.0,0.0,0.0,-1.5294,-1.4982,-1.4982,-1.4864,0.0,-1.4533,-1.3978,-1.2983,-1.4026,-1.3964,-1.2652,-1.3915,-1.3905,-1.2806,-1.3098,-1.2879,-1.2305,-1.2305,-1.2305,-1.2305,-1.2305,-1.2652,-1.3213,-1.3213,-1.3561,-1.4095,-1.4202,-1.4536,-1.5017,-1.5378,-1.5658,-1.5832,0.0,0.0,0.0,0.0,-1.8516,0.0,0.0,0.0,-2.2695,0.0,-2.4375,-2.5312,-2.5801,-2.623,-2.6641,-2.7051,-2.6699,-2.5723,-2.4023,-2.4277,0.0,0.0,-2.1914,-2.1777,-2.0078,0.0,-2.0644,-1.9375,0.0,0.0,0.0,0.0,0.0,0.0,-1.8477,0.0,-1.8066,-1.8457,-1.8398,-1.8086,-1.8477,-1.8926,-1.9355,-1.9297,-1.8882,-1.8154,-1.637,-1.5067,-1.4261,-1.4336,-1.4546,-1.4973,-1.5476,-1.5747,-1.5695,-1.4949,-1.4508,-1.4657,-1.6492,-1.6428,-1.6288,-1.8559,-1.804,0.0,0.0,0.0,-1.8537,0.0,0.0,0.0,0.0,0.0,0.0,-1.8047,-1.7676,-1.709,0.0,0.0,-1.5449,0.0,0.0,0.0,0.0,-1.4923,-1.4982,-1.4273,-1.4213,0.0,0.0,0.0,-1.3965,-1.3506,-1.4313,-1.4283,-1.3359,-1.3359,-1.3439,-1.3593,-1.2732,-1.2378,-1.2305,-1.2305,-1.2305,-1.2305,-1.2318,-1.2665,-1.3213,-1.3227,-1.3574,-1.4122,-1.4402,-1.471,-1.499,-1.5003,-1.5351,-1.5832,-1.8607,-1.9004,-1.9512,0.0,-1.9531,-2.0117,0.0,0.0,0.0,0.0,-2.5644,-2.6445,-2.7519,-2.7734,-2.7851,-2.7949,-2.7578,0.0,0.0,0.0,0.0,-2.3027,-2.3281,-2.2949,-2.1875,-2.1758,-2.1387,-2.0742,0.0,0.0,-2.0039,0.0,0.0,0.0,0.0,0.0,-1.8477,-1.8594,-1.8574,-1.8477,-1.8594,-1.9277,0.0,0.0,-1.9317,-1.9101,-1.7774,-1.6638,-1.5718,-1.5794,-1.5843,-1.5956,-1.6442,-1.6894,-1.7227,-1.6716,-1.6429,-1.6477,-1.803,-1.7874,-1.7747,-1.9683,-1.95,-1.8896,0.0,0.0,0.0,0.0,0.0,0.0,0.0,0.0,0.0,0.0,-1.7871,-1.7187,0.0,0.0,0.0,-1.5898,0.0,0.0,-1.504,-1.4746,-1.4451,-1.4213,-1.4213,0.0,0.0,0.0,-1.5357,-1.4839,-1.5314,-1.4949,-1.3618,-1.4332,-1.4007,-1.2659,-1.3098,-1.2952,-1.2305,-1.2305,-1.2305,-1.2318,-1.2532,-1.2852,-1.3227,-1.344,-1.3748,-1.4122,-1.4402,-1.483,-1.5311,-1.5524,-1.5698,-1.5832,-1.9528,0.0,0.0,-2.1016,0.0,0.0,-2.2363,-2.2949,0.0,-2.5527,-2.6269,0.0,-2.7656,-2.8066,-2.8301,-2.8301,-2.791,0.0,-2.6445,0.0,0.0,-2.3848,-2.3965,-2.3398,-2.1992,-2.1914,-2.1484,-2.0664,-2.0117,0.0,-1.998,0.0,0.0,0.0,0.0,-1.8926,0.0,-1.8711,-1.8562,-1.8562,-1.8562,0.0,0.0,-1.9668,-1.9736,-1.993,-1.9315,-1.8011,-1.6613,-1.709,-1.7242,-1.7319,-1.7752,-1.8181,-1.8267,-1.783,-1.7389,-1.7389,-1.8647,-1.8637,-1.8661,-2.0215,-2.0251,-2.0047,-2.0528,-2.0762,-2.0801,0.0,-2.0098,-1.9922,0.0,0.0,0.0,0.0,0.0,-1.7305,-1.7051,0.0,0.0,0.0,-1.5308,-1.4864,-1.5352,-1.4332,-1.3855,-1.4154,-1.4213,0.0,0.0,0.0,-1.6008,-1.5321,-1.6444,-1.6018,-1.3738,-1.4889,-1.4382,-1.2305,-1.2806,-1.2806,-1.2305,-1.2305,-1.2305,-1.2318,-1.2612,-1.2919,-1.3227,-1.352,-1.3814,-1.4122,-1.4549,-1.4923,-1.5257,-1.5671,-1.5832,-1.5832,0.0,0.0,0.0,0.0,0.0,0.0,0.0,-2.416,0.0,-2.5801,0.0,-2.7187,-2.7187,-2.7851,-2.8262,-2.8223,0.0,-2.7246,-2.6445,-2.6269,-2.5508,-2.3945,-2.418,-2.3418,-2.1445,-2.166,-2.125,-2.0078,-2.0293,-2.0078,0.0,0.0,0.0,0.0,0.0,0.0,0.0,-1.8789,-1.8562,-1.8633,-1.8574,-1.8887,-1.9394,-1.9707,-2.0137,-2.0566,-2.0566,-1.9114,-1.731,-1.8279,-1.8588,-1.8687,-1.9254,-1.9336,-1.9122,-1.8697,-1.8197,-1.798,-1.8957,-1.9195,-1.9432,-2.0411,-2.0566,-2.0566,-2.0411,-2.0391,-2.0313,-2.0157,-1.9658,-1.9348,-1.9696,0.0,0.0,0.0,0.0,0.0,0.0,0.0,0.0,0.0,0.0,0.0,-1.5488,-1.407,-1.3433,-1.4154,0.0,0.0,0.0,0.0,-1.6198,-1.5321,-1.7086,-1.6706,-1.3872,-1.4862,-1.4347,-1.2425,-1.2345,-1.2305,-1.2305,-1.2305,-1.2318,-1.2371,-1.2679,-1.2986,-1.3293,-1.3587,-1.3895,-1.4255,-1.4763,-1.5017,-1.5137,-1.5645,-1.5832,-1.5832,0.0,0.0,0.0,0.0,0.0,-2.4941,-2.5234,-2.5723,-2.623,-2.6719,-2.7539,-2.8066,-2.8066,-2.8203,-2.8164,-2.7812,-2.7383,0.0,0.0,0.0,0.0,-2.4336,-2.4043,-2.3398,-2.2324,-2.168,-2.123,-2.0996,-2.0,-1.9805,-2.0332,0.0,0.0,0.0,0.0,0.0,-1.875,-1.8601,0.0,-1.8543,-1.8262,-1.8789,-1.9785,-1.9512,-1.9883,-2.0566,-2.0566,-1.9709,-1.877,-1.9809,-1.9653,-1.9085,-2.0043,-2.0372,-2.0313,-2.0236,-2.01,-2.0079,-2.0255,-2.0313,-2.0333,-2.0566,-2.0566,-2.0411,-1.9432,-1.9274,-1.9036,-1.806,-1.8514,-1.9091,-1.9164,0.0,0.0,0.0,0.0,0.0,0.0,0.0,0.0,0.0,0.0,-1.4435,-1.5817,-1.4773,-1.4034,0.0,0.0,0.0,0.0,0.0,-1.5957,0.0,-1.5221,0.0,0.0,0.0,-1.2975,-1.3053,-1.2545,-1.2305,-1.2305,-1.2305,-1.2438,-1.2768,-1.2999,-1.3293,-1.3587,-1.3895,-1.4322,-1.4816,-1.4923,-1.5257,-1.5685,-1.5792,-1.5832,-1.5832,0.0,0.0,0.0,0.0,0.0,0.0,0.0,-2.7148,-2.7539,-2.707,-2.7383,-2.7637,-2.7637,-2.8027,-2.8125,-2.7695,-2.7266,-2.6738,-2.6094,-2.543,-2.4785,-2.4121,-2.3906,-2.3398,-2.2539,-2.1445,-2.0996,-2.123,-1.9922,-1.9609,-2.0215,0.0,0.0,0.0,0.0,-1.9492,0.0,0.0,0.0,-1.8945,-1.8516,-1.8965,-1.9863,-1.9453,-1.9824,-2.0566,-2.0566,-2.0255,-1.9923,-2.0411,-2.0235,-1.9923,-2.0411,-2.0566,-2.0566,-2.0566,-2.0566,-2.0566,-2.0566,-2.0566,-2.0566,-2.0566,-2.0566,-2.0489,-1.9923,-1.9353,-1.8877,-1.8301,-1.84,-1.8752,-1.9088,-1.9428,0.0,0.0,0.0,0.0,0.0,0.0,-1.7227,0.0,0.0,-1.4656,0.0,0.0,0.0,0.0,0.0,0.0,0.0,0.0,-1.5239,0.0,0.0,0.0,-1.4141,0.0,-1.3187,-1.2732,-1.2438,-1.2305,-1.2305,-1.2305,-1.2385,-1.2545,-1.3013,-1.3293,-1.3454,-1.3908,-1.4335,-1.475,-1.491,-1.5231,-1.5618,-1.5778,-1.5832,-1.5832,0.0,-2.4716,0.0,0.0,-2.6484,0.0,-2.7168,-2.8164,-2.8535,-2.7441,-2.7285,-2.7246,-2.7168,-2.7832,-2.8047,-2.7441,-2.7168,-2.6641,-2.5801,-2.5234,-2.4629,-2.3945,-2.375,-2.3301,-2.2539,-2.1328,-2.0879,-2.123,-2.0019,-1.9629,-2.0059,-2.041,0.0,0.0,0.0,0.0,0.0,0.0,-1.9414,-1.9375,-1.8945,-1.9297,-2.0,-1.959,-1.9902,-2.0566,-2.0566,-2.0566,-2.0566,-2.0566,-2.0566,-2.0566,-2.0566,-2.0566,-2.0566,-2.0566,-2.0566,-2.0566,-2.0566,-2.0566,-2.0566,-2.0566,-2.0566,-2.0547,-2.0217,-1.9303,-1.8593,-1.8497,-1.8494,-1.8705,-1.9461,-1.9746,0.0,0.0,0.0,0.0,0.0,0.0,-1.7324,0.0,0.0,-1.4951,-1.5117,0.0,0.0,0.0,0.0,0.0,-1.3312,0.0,0.0,0.0,0.0,-1.453,-1.3593,0.0,-1.3586,-1.2585,-1.2518,-1.2492,-1.2492,-1.2492,-1.2532,-1.2612,-1.3093,-1.3373,-1.352,-1.3988,-1.4389,-1.4723,-1.4963,-1.5231,-1.5511,-1.5752,-1.5832,-1.5832,0.0,0.0,0.0,0.0,0.0,0.0,-2.7656,-2.8359,-2.875,-2.8242,-2.8164,-2.8027,-2.7637,-2.8008,-2.7812,-2.6621,-2.6816,-2.6641,-2.5801,-2.4941,-2.4434,-2.4355,-2.3613,-2.2988,-2.2519,-2.1641,-2.1191,0.0,-2.0312,-2.0078,-2.0508,-2.0547,0.0,0.0,0.0,0.0,0.0,-1.9883,-1.9863,-1.9824,-1.9394,-1.9746,-2.0449,-2.0019,-2.0156,-2.0566,-2.0566,-2.0566,-2.0566,-2.0566,-2.0566,-2.0566,-2.0566,-2.0566,-2.0566,-2.0566,-2.0566,-2.0566,-2.0566,-2.0566,-2.0566,-2.0566,-2.0566,-2.0217,-1.8815,-1.7778,-1.7058,-1.6901,-1.8022,-1.9219,-2.0294,-2.0156,-1.9902,0.0,0.0,0.0,0.0,0.0,-1.7656,-1.6836,0.0,-1.4641,-1.4321,-1.3348,0.0,0.0,-1.3314,0.0,0.0,0.0,0.0,-1.2833,-1.3125,-1.3317,-1.3277,-1.302,-1.3155,-1.3507,-1.3253,-1.3133,-1.3133,-1.3133,-1.3267,-1.352,-1.3574,-1.3908,-1.4402,-1.4456,-1.4803,-1.5311,-1.5351,-1.5538,-1.5792,-1.5818,-1.5832,-1.5832,0.0,0.0,0.0,0.0,0.0,0.0,0.0,-2.8711,-2.8769,-2.834,-2.8301,-2.8223,-2.8066,-2.7969,-2.7598,-2.6836,-2.6699,-2.6269,-2.5391,-2.4766,-2.4297,-2.4043,-2.3457,-2.3066,-2.2891,-2.2051,-2.1621,0.0,-2.0742,-2.0391,-2.0566,-2.0566,-2.0566,0.0,0.0,-2.0078,-1.9922,-1.9922,-1.9922,-1.9902,-1.9727,-2.0019,-2.0527,-2.0078,-2.0195,-2.0566,-2.0566,-2.0566,-2.0566,-2.0566,-2.0566,-2.0566,-2.0566,-2.0566,-2.0566,-2.0566,-2.0566,-2.0566,-2.0566,-2.0566,-2.0566,-2.0566,-2.0566,-2.043,-1.9792,-1.8679,-1.7796,-1.8022,-1.8611,-1.9353,-2.0411,-2.043,-2.0139,-1.9425,0.0,0.0,0.0,0.0,0.0,-1.7187,-1.569,-1.4764,-1.4863,-1.3065,0.0,0.0,0.0,0.0,0.0,0.0,0.0,-1.1955,0.0,-1.2576,-1.2919,-1.2889,-1.2959,-1.3387,-1.3267,-1.3213,-1.3213,-1.3213,-1.3373,-1.3572,-1.3828,-1.4148,-1.4536,-1.471,-1.503,-1.5391,-1.5391,-1.5578,-1.5832,-1.5832,-1.5832,-1.5832,-2.8965,0.0,-2.8496,0.0,-2.9141,-2.8906,-2.9082,-2.9004,-2.8769,-2.834,-2.8301,-2.8242,-2.8125,-2.7851,-2.7441,-2.6875,-2.6562,-2.6074,-2.5312,-2.4727,-2.4277,-2.3984,-2.3437,0.0,-2.3144,-2.2441,-2.207,-2.207,-2.1191,-2.0762,-2.0762,-2.0625,0.0,0.0,-2.0234,-2.0098,-2.0098,-2.0098,-2.0098,-2.0098,-2.0098,-2.0293,-2.0527,-2.0215,-2.0293,-2.0566,-2.0566,-2.0566,-2.0566,-2.0566,-2.0566,-2.0566,-2.0566,-2.0566,-2.0566,-2.0566,-2.0566,-2.0566,-2.0566,-2.0566,-2.0566,-2.0566,-2.0566,-2.0527,-2.041,-1.9352,-1.8434,-1.8801,-1.9201,-1.9687,-2.0489,-2.0566,-2.0275,-1.944,0.0,0.0,0.0,-1.7595,0.0,-1.6589,-1.5274,-1.4457,-1.4527,-1.2794,0.0,0.0,0.0,0.0,0.0,0.0,0.0,0.0,0.0,0.0,-1.2822,-1.2919,-1.312,-1.3347,-1.3427,-1.3467,-1.3467,-1.3467,-1.3587,-1.3788,-1.4001,-1.4295,-1.4669,-1.4883,-1.5177,-1.5524,-1.5524,-1.5645,-1.5832,-1.5832,-1.5832,-1.5832,-2.9707,-2.9551,-2.9824,-3.0703,-3.0488,-3.0039,-2.9629,-2.9199,-2.8769,-2.834,-2.8301,-2.8125,-2.7715,-2.7676,-2.7324,-2.6465,-2.6387,-2.6191,-2.5762,-2.4902,-2.4414,0.0,0.0,-2.3144,-2.3144,-2.2715,-2.25,-2.25,0.0,0.0,-2.1211,-2.0781,-2.0566,-2.0566,-2.0566,-2.0566,-2.0566,-2.0566,-2.0566,-2.0566,-2.0566,-2.0566,-2.0566,-2.0566,-2.0644,-2.0566,-2.0566,-2.0566,-2.0566,-2.0566,-2.0566,-2.0566,-2.0566,-2.0566,-2.0566,-2.0566,-2.0566,-2.0566,-2.0566,-2.0566,-2.0566,-2.0566,-2.0566,-2.0449,-2.0019,-1.9222,-1.8515,-1.8515,-1.9639,-2.0566,-2.0566,-2.0566,-2.043,-2.0,0.0,0.0,0.0,-1.6899,0.0,-1.4728,-1.4026,-1.3484,-1.2773,-1.2444,0.0,0.0,0.0,0.0,0.0,0.0,0.0,-1.1864,-1.2513,0.0,-1.2822,-1.3333,-1.3559,-1.3559,-1.3935,-1.4082,-1.4082,-1.4082,-1.4082,-1.4082,-1.4082,-1.4416,-1.4963,-1.4963,-1.5297,-1.5832,-1.5832,-1.5832,-1.5832,-1.5832,-1.5832,-1.5832,-3.0675,-3.0469,-3.0449,-3.043,-3.0293,-2.9961,-2.9238,-2.9004,-2.8769,-2.834,-2.8301,-2.8242,-2.8105,-2.7578,-2.7109,0.0,-2.6289,-2.5879,0.0,-2.4902,-2.4414,-2.4414,-2.3594,-2.3144,-2.3144,-2.3008,-2.2793,-2.2519,0.0,0.0,0.0,-2.1094,-2.0859,-2.0566,-2.0566,-2.0566,-2.0566,-2.0566,-2.0566,-2.0566,-2.0566,-2.0566,-2.0566,-2.0566,-2.0566,-2.0566,-2.0566,-2.0566,-2.0566,-2.0566,-2.0566,-2.0566,-2.0566,-2.0566,-2.0566,-2.0566,-2.0566,-2.0566,-2.0566,-2.0566,-2.0566,-2.0566,-2.0566,-2.0527,-2.0391,-2.012,-1.987,-1.9507,-1.9792,-2.0117,-2.0117,-1.9883,-1.9425,-1.8508,-1.8082,0.0,-1.7135,0.0,-1.5756,-1.5895,-1.4593,-1.3591,-1.3383,-1.2694,0.0,0.0,0.0,0.0,0.0,0.0,0.0,0.0,-1.2545,0.0,-1.3347,-1.3547,-1.3748,-1.3948,-1.4041,-1.4082,-1.4082,-1.4082,-1.4202,-1.4389,-1.4603,-1.491,-1.5271,-1.5471,-1.5658,-1.5832,-1.5832,-1.5832,-1.5832,-1.5832,-1.5832,-1.5832,-3.1285,-3.0898,-3.0801,-3.0508,-3.0449,-3.0156,-2.9297,-2.958,-2.9687,-2.9086,-2.8971,-2.887,-2.887,-2.7594,0.0,-2.7012,-2.623,-2.5742,-2.5742,-2.4902,-2.4414,-2.4414,-2.3594,-2.3144,-2.3144,-2.3144,0.0,-2.2754,-2.2598,-2.2168,-2.1484,-2.1309,-2.1094,-2.082,-2.0644,-2.0566,-2.0566,-2.0566,-2.0566,-2.0566,-2.0566,-2.0566,-2.0566,-2.0566,-2.0566,-2.0566,-2.0566,-2.0566,-2.0566,-2.0566,-2.0566,-2.0566,-2.0566,-2.0566,-2.0566,-2.0566,-2.0566,-2.0566,-2.0566,-2.0566,-2.0566,-2.0566,-2.0566,-2.0566,-2.0566,-2.0566,-2.0488,-2.0215,-2.0156,-2.0156,-2.0156,-1.9805,-1.9251,-1.8415,-1.797,-1.7422,-1.6473,-1.566,-1.5155,-1.5013,-1.3939,-1.3171,0.0,-1.2659,-1.2305,0.0,0.0,0.0,0.0,0.0,-1.2865,-1.2465,-1.2866,-1.3267,-1.3641,-1.3748,-1.3961,-1.4255,-1.4255,-1.4255,-1.4242,-1.4135,-1.4188,-1.4376,-1.4669,-1.4963,-1.5257,-1.5551,-1.5725,-1.5832,-1.5832,-1.5832,-1.5832,-1.5832,-1.5832,-1.5832,-3.1556,-3.0995,-3.0995,0.0,-3.1092,0.0,-2.9984,-3.0929,-3.1464,-3.0537,-3.0155,-2.988,-2.9758,-2.7804,-2.6663,-2.6934,0.0,0.0,-2.5742,-2.4902,-2.4414,-2.4414,-2.3594,-2.3144,-2.3144,-2.3144,-2.3125,-2.3086,-2.2695,-2.2285,-2.1836,-2.1426,-2.1211,-2.1172,-2.0742,-2.0566,-2.0566,-2.0566,-2.0566,-2.0566,-2.0566,-2.0566,-2.0566,-2.0566,-2.0566,-2.0566,-2.0566,-2.0566,-2.0566,-2.0566,-2.0566,-2.0566,-2.0566,-2.0566,-2.0566,-2.0566,-2.0566,-2.0566,-2.0566,-2.0566,-2.0566,-2.0566,-2.0566,-2.0566,-2.0566,-2.0566,-2.0566,-2.0566,-2.0547,-2.0527,-2.0527,-2.0137,-1.9687,-1.9224,-1.8724,-1.7647,-1.5488,-1.5084,-1.4371,-1.2586,0.0,0.0,-1.2331,-1.2331,-1.2345,0.0,0.0,0.0,0.0,0.0,-1.2903,-1.2889,-1.3373,-1.3599,-1.3625,-1.4001,-1.4269,-1.4522,-1.4522,-1.4522,-1.4509,-1.4242,-1.4135,-1.4188,-1.4469,-1.475,-1.5044,-1.5311,-1.5578,-1.5832,-1.5832,-1.5832,-1.5832,-1.5832,-1.5832,-1.5832,0.0,0.0,-3.2427,-3.2076,-3.3295,-3.3857,-3.2528,-3.2849,-3.2928,-3.1958,-3.1737,-3.1236,-2.988,-2.8932,-2.7921,-2.6643,-2.6055,-2.5742,-2.5742,-2.4902,-2.4414,-2.4414,-2.3594,-2.3144,-2.3144,-2.3144,-2.2988,-2.2656,-2.2559,-2.2129,-2.1387,-2.1289,-2.1055,-2.0723,-2.0605,-2.0566,-2.0566,-2.0566,-2.0566,-2.0566,-2.0566,-2.0566,-2.0566,-2.0566,-2.0566,-2.0566,-2.0566,-2.0566,-2.0566,-2.0566,-2.0566,-2.0566,-2.0566,-2.0566,-2.0566,-2.0566,-2.0566,-2.0566,-2.0566,-2.0566,-2.0566,-2.0566,-2.0566,-2.0566,-2.0566,-2.0566,-2.0566,-2.0566,-2.0293,-2.0078,-2.0078,-1.9453,-1.862,-1.7859,-1.6759,-1.5822,-1.5242,-1.3954,-1.3084,0.0,-1.294,-1.2714,-1.2714,-1.2714,-1.2746,0.0,0.0,0.0,-1.2986,-1.348,-1.3667,-1.344,-1.3788,-1.4082,-1.4309,-1.4603,-1.4683,-1.4522,-1.4522,-1.4522,-1.4522,-1.4442,-1.4669,-1.5097,-1.5164,-1.5351,-1.5631,-1.5698,-1.5765,-1.5832,-1.5832,-1.5832,-1.5832,-1.5832,-1.5832,-1.5832,-3.3077,-3.362,-3.3917,-3.342,-3.4207,-3.4527,-3.3272,-3.3834,-3.4129,-3.3346,-3.284,-3.2156,-3.1323,-2.9494,-2.7939,-2.7053,-2.6152,-2.5742,-2.5742,-2.4902,-2.4414,-2.4414,-2.3594,-2.3144,-2.3144,-2.3144,-2.293,-2.2519,-2.2519,-2.2168,-2.1523,-2.1328,-2.1113,-2.0859,-2.0664,-2.0566,-2.0566,-2.0566,-2.0566,-2.0566,-2.0566,-2.0566,-2.0566,-2.0566,-2.0566,-2.0566,-2.0566,-2.0566,-2.0566,-2.0566,-2.0566,-2.0566,-2.0566,-2.0566,-2.0566,-2.0566,-2.0566,-2.0566,-2.0566,-2.0566,-2.0566,-2.0566,-2.0566,-2.0566,-2.0566,-2.0566,-2.0566,-2.0566,-2.0371,-2.0156,-1.9941,-1.9375,-1.8653,-1.7943,-1.7058,-1.6158,-1.5296,-1.4299,-1.3506,-1.3297,-1.3017,-1.2876,-1.2946,-1.2959,-1.3026,-1.32,-1.3173,0.0,-1.34,-1.3961,-1.4148,-1.3854,-1.4269,-1.4563,-1.4723,-1.5017,-1.5084,-1.4923,-1.4923,-1.4923,-1.491,-1.479,-1.4897,-1.5204,-1.5337,-1.5484,-1.5645,-1.5778,-1.5832,-1.5832,-1.5832,-1.5832,-1.5832,-1.5832,-1.5832,-1.5832,-3.3935,-3.467,-3.5391,-3.4922,-3.5001,-3.4767,-3.3856,-3.4668,-3.5155,-3.475,-3.3982,-3.3263,-3.2933,-3.0041,-2.801,-2.76,-2.6476,-2.5742,-2.5742,-2.4961,-2.4492,-2.4414,-2.3652,-2.3203,-2.3144,-2.3144,-2.293,-2.2519,-2.2519,-2.2266,-2.1777,-2.1406,-2.1211,-2.1113,-2.0742,-2.0566,-2.0566,-2.0566,-2.0566,-2.0566,-2.0566,-2.0566,-2.0566,-2.0566,-2.0566,-2.0566,-2.0566,-2.0566,-2.0566,-2.0566,-2.0566,-2.0566,-2.0566,-2.0566,-2.0566,-2.0566,-2.0566,-2.0566,-2.0566,-2.0566,-2.0566,-2.0566,-2.0625,-2.0664,-2.0664,-2.0723,-2.0742,-2.0684,-2.0664,-2.0508,-2.0,-1.957,-1.9088,-1.8576,-1.7973,-1.6959,-1.5309,0.0,-1.4356,-1.2934,-1.2903,-1.2986,-1.3253,-1.328,-1.3307,-1.34,-1.3601,-1.3748,-1.3841,-1.4362,-1.4536,-1.4295,-1.4763,-1.5057,-1.5097,-1.5297,-1.5391,-1.5391,-1.5391,-1.5391,-1.5391,-1.5137,-1.5057,-1.511,-1.5351,-1.5458,-1.5484,-1.5725,-1.5832,-1.5832,-1.5832,-1.5832,-1.5832,-1.5832,-1.5832,-1.5832,-3.6503,-3.6673,-3.659,-3.6944,-3.7629,-3.7987,-3.7344,-3.6973,-3.6671,-3.6123,-3.5924,-3.5075,-3.3098,-3.1407,-2.965,-2.7757,-2.6476,-2.5742,-2.5742,-2.5254,-2.4805,-2.4434,-2.3945,-2.3516,-2.3144,-2.3144,-2.293,-2.2519,-2.2519,-2.2109,-2.1328,-2.1269,-2.1035,-2.0664,-2.0605,-2.0566,-2.0566,-2.0566,-2.0566,-2.0566,-2.0566,-2.0566,-2.0566,-2.0566,-2.0566,-2.0566,-2.0566,-2.0566,-2.0566,-2.0566,-2.0566,-2.0566,-2.0566,-2.0566,-2.0566,-2.0566,-2.0566,-2.0566,-2.0566,-2.0566,-2.0566,-2.0566,-2.0859,-2.1133,-2.1133,-2.1426,-2.1582,-2.1211,-2.1133,-2.0879,-2.0059,-1.957,-1.9039,-1.8138,-1.6704,-1.5342,-1.463,0.0,-1.3072,-1.2822,-1.32,-1.352,-1.3492,-1.3574,-1.3788,-1.4282,-1.4135,-1.4242,-1.4736,-1.5084,-1.5244,-1.519,-1.5284,-1.5444,-1.5698,-1.5498,-1.5391,-1.5391,-1.5391,-1.5391,-1.5391,-1.5351,-1.5458,-1.5698,-1.5738,-1.5765,-1.5765,-1.5805,-1.5832,-1.5832,-1.5832,-1.5832,-1.5832,-1.5832,-1.5832,-1.5832,-3.6365,-3.7073,-3.7412,-3.7388,-3.7693,-3.7764,-3.7211,-3.691,-3.6659,-3.6383,-3.6107,-3.5419,-3.4047,-3.2554,-3.1043,-2.9646,-2.8402,-2.7389,-2.6764,-2.5674,-2.4863,-2.4434,-2.4004,-2.3574,-2.3144,-2.3144,-2.293,-2.2519,-2.2519,-2.207,-2.123,-2.123,-2.0996,-2.0566,-2.0566,-2.0566,-2.0566,-2.0566,-2.0566,-2.0566,-2.0566,-2.0566,-2.0566,-2.0566,-2.0566,-2.0566,-2.0566,-2.0566,-2.0566,-2.0566,-2.0566,-2.0566,-2.0566,-2.0566,-2.0566,-2.0566,-2.0566,-2.0566,-2.0566,-2.0566,-2.0566,-2.0566,-2.0898,-2.123,-2.123,-2.1562,-2.1836,-2.1621,-2.1406,-2.1035,-2.0391,-1.9727,-1.9131,-1.8692,-1.7171,-1.5854,-1.5391,-1.4336,-1.3537,-1.3494,-1.3574,-1.3828,-1.4309,-1.4215,-1.4295,-1.4723,-1.4629,-1.475,-1.5177,-1.5324,-1.5471,-1.5618,-1.5631,-1.5698,-1.5832,-1.5698,-1.5631,-1.5631,-1.5631,-1.5631,-1.5631,-1.5631,-1.5698,-1.5832,-1.5832,-1.5832,-1.5832,-1.5832,-1.5832,-1.5832,-1.5832,-1.5832,-1.5832,-1.5832,-1.5832,-1.5832,-3.6314,-3.7071,-3.7713,-3.7437,-3.7262,-3.7036,-3.6609,-3.6433,-3.6358,-3.6358,-3.6006,-3.5529,-3.4977,-3.329,-3.2098,-3.1461,-3.0193,-2.905,-2.8049,-2.6692,-2.5558,-2.457,-2.4062,-2.3574,-2.3144,-2.3144,-2.2988,-2.2656,-2.2656,-2.2227,-2.1387,-2.1387,-2.1094,-2.0566,-2.0566,-2.0566,-2.0566,-2.0566,-2.0566,-2.0566,-2.0566,-2.0566,-2.0566,-2.0566,-2.0566,-2.0566,-2.0566,-2.0566,-2.0566,-2.0566,-2.0566,-2.0566,-2.0566,-2.0644,-2.0723,-2.0723,-2.0801,-2.0859,-2.0742,-2.0801,-2.0879,-2.0879,-2.1211,-2.1523,-2.1523,-2.1855,-2.2148,-2.2051,-2.168,-2.125,-2.0801,-2.0098,-1.959,-1.959,0.0,-1.7025,-1.6563,-1.5405,-1.4583,-1.4277,-1.4041,-1.4215,-1.4897,-1.4763,-1.475,-1.5044,-1.507,-1.519,-1.5484,-1.5498,-1.5605,-1.5818,-1.5832,-1.5832,-1.5832,-1.5832,-1.5832,-1.5832,-1.5832,-1.5832,-1.5832,-1.5832,-1.5832,-1.5832,-1.5832,-1.5832,-1.5832,-1.5832,-1.5832,-1.5832,-1.5832,-1.5832,-1.5832,-1.5832,-1.5832,-1.5832,-3.7692,-3.749,-3.7387,-3.7864,-3.7513,-3.7161,-3.7136,-3.6684,-3.6358,-3.6358,-3.6332,-3.6081,-3.5554,-3.3942,-3.2647,-3.2098,-3.0422,-2.9304,-2.9304,-2.8676,-2.7393,-2.5114,-2.4238,-2.3574,-2.3144,-2.3144,-2.3125,-2.3086,-2.3086,-2.2656,-2.1836,-2.1836,-2.1387,-2.0566,-2.0566,-2.0566,-2.0566,-2.0566,-2.0566,-2.0566,-2.0566,-2.0566,-2.0566,-2.0566,-2.0566,-2.0566,-2.0566,-2.0566,-2.0566,-2.0566,-2.0566,-2.0566,-2.0566,-2.0859,-2.1191,-2.1191,-2.1465,-2.1699,-2.1289,-2.1484,-2.1797,-2.1797,-2.2109,-2.2422,-2.2422,-2.2754,-2.293,-2.2539,-2.2129,-2.1699,-2.1269,-2.0801,-2.0469,-2.0469,0.0,0.0,-1.7413,-1.6609,-1.5731,-1.4556,-1.471,-1.4897,-1.495,-1.495,-1.5057,-1.5337,-1.5364,-1.5484,-1.5778,-1.5792,-1.5805,-1.5832,-1.5832,-1.5832,-1.5832,-1.5832,-1.5832,-1.5832,-1.5832,-1.5832,-1.5832,-1.5832,-1.5832,-1.5832,-1.5832,-1.5832,-1.5832,-1.5832,-1.5832,-1.5832,-1.5832,-1.5832,-1.5832,-1.5832,-1.5832,-1.5832,-3.6935,-3.681,-3.6734,-3.696,-3.681,-3.6684,-3.6684,-3.6483,-3.6358,-3.6358,-3.6358,-3.6157,-3.5604,-3.4569,-3.3843,-3.3301,-3.2269,-3.1335,-3.0598,-3.002,-2.8387,-2.5439,-2.5071,-2.4331,-2.3144,-2.3144,-2.3144,-2.3144,-2.3144,-2.2852,-2.2266,-2.2012,-2.1562,-2.0977,-2.0684,-2.0723,-2.0957,-2.0684,-2.0723,-2.0957,-2.0684,-2.0566,-2.0566,-2.0566,-2.0566,-2.0566,-2.0566,-2.0566,-2.0566,-2.0566,-2.0566,-2.0605,-2.0898,-2.1094,-2.1289,-2.1562,-2.1934,-2.2246,-2.207,-2.1953,-2.1894,-2.1894,-2.2207,-2.2519,-2.2519,-2.2832,-2.3086,-2.293,-2.2559,-2.2227,-2.2051,-2.1465,-2.1074,-2.1348,0.0,-1.9199,-1.9112,-1.8179,-1.7195,-1.6315,-1.6123,-1.597,-1.555,-1.5337,-1.5351,-1.5645,-1.5658,-1.5712,-1.5818,-1.5832,-1.5832,-1.5832,-1.5832,-1.5832,-1.5832,-1.5832,-1.5832,-1.5832,-1.5832,-1.5832,-1.5832,-1.5832,-1.5832,-1.5832,-1.5832,-1.5832,-1.5832,-1.5832,-1.5832,-1.5832,-1.5832,-1.5832,-1.5832,-1.5832,-1.5832,-1.5832,-3.6358,-3.6358,-3.6358,-3.6358,-3.6358,-3.6358,-3.6358,-3.6358,-3.6358,-3.6358,-3.6358,-3.6207,-3.5855,-3.5152,-3.4575,-3.4198,-3.3495,-3.2698,-3.1865,-3.1269,-2.9449,-2.6044,-2.6001,-2.5443,-2.4231,-2.4145,-2.3973,-2.3627,-2.3627,-2.3256,-2.25,-2.2227,-2.1855,-2.1426,-2.1113,-2.1074,-2.1211,-2.0898,-2.0879,-2.0996,-2.0684,-2.0644,-2.0762,-2.0625,-2.0664,-2.0781,-2.0781,-2.0684,-2.0586,-2.0723,-2.0781,-2.082,-2.1133,-2.1426,-2.1719,-2.2148,-2.248,-2.2715,-2.2715,-2.25,-2.2285,-2.2285,-2.25,-2.2715,-2.2715,-2.293,-2.3144,-2.3144,-2.2812,-2.2559,-2.2676,-2.2129,-2.1738,-2.2031,-2.1167,-2.0439,-2.034,-1.9674,-1.8729,-1.7538,-1.7221,-1.6723,-1.5886,-1.5645,-1.5618,-1.5818,-1.5832,-1.5832,-1.5832,-1.5832,-1.5832,-1.5832,-1.5832,-1.5832,-1.5832,-1.5832,-1.5832,-1.5832,-1.5832,-1.5832,-1.5832,-1.5832,-1.5832,-1.5832,-1.5832,-1.5832,-1.5832,-1.5832,-1.5832,-1.5832,-1.5832,-1.5832,-1.5832,-1.5832,-1.5832,-1.5832,-3.6358,-3.6358,-3.6358,-3.6358,-3.6358,-3.6358,-3.6358,-3.6358,-3.6358,-3.6358,-3.6358,-3.6358,-3.6358,-3.5378,-3.4726,-3.4726,-3.3721,-3.3068,-3.3068,-3.2516,-3.0664,-2.7245,-2.7115,-2.6892,-2.6483,-2.6483,-2.5964,-2.4787,-2.4787,-2.3985,-2.2519,-2.2519,-2.2285,-2.1894,-2.1894,-2.1641,-2.125,-2.125,-2.0977,-2.0586,-2.0586,-2.084,-2.1191,-2.0742,-2.0859,-2.125,-2.125,-2.0957,-2.0644,-2.1094,-2.125,-2.125,-2.125,-2.1836,-2.2598,-2.3027,-2.3144,-2.3144,-2.3144,-2.3144,-2.3144,-2.3144,-2.3144,-2.3144,-2.3144,-2.3144,-2.3144,-2.3144,-2.2812,-2.2637,-2.3066,-2.2793,-2.2519,-2.2519,-2.2871,-2.2533,-2.0953,-2.1049,-2.0387,-1.7963,-1.7684,-1.7232,-1.5927,-1.5832,-1.5832,-1.5832,-1.5832,-1.5832,-1.5832,-1.5832,-1.5832,-1.5832,-1.5832,-1.5832,-1.5832,-1.5832,-1.5832,-1.5832,-1.5832,-1.5832,-1.5832,-1.5832,-1.5832,-1.5832,-1.5832,-1.5832,-1.5832,-1.5832,-1.5832,-1.5832,-1.5832,-1.5832,-1.5832,-1.5832,-1.5832,-1.5832,-3.6358,-3.6358,-3.6358,-3.6358,-3.6358,-3.6358,-3.6358,-3.6358,-3.6358,-3.6358,-3.6358,-3.6358,-3.6358,-3.5378,-3.4726,-3.4726,-3.3721,-3.2893,-3.2491,-3.1938,-3.0984,-2.9618,-2.881,-2.781,-2.6565,-2.6483,-2.5964,-2.4787,-2.4787,-2.4149,-2.2949,-2.2656,-2.2441,-2.2305,-2.2012,-2.1973,-2.2109,-2.1816,-2.1777,-2.1914,-2.1602,-2.1582,-2.168,-2.1543,-2.1582,-2.1699,-2.1699,-2.1602,-2.1504,-2.1641,-2.1699,-2.1738,-2.2031,-2.25,-2.2969,-2.3105,-2.3144,-2.3144,-2.3144,-2.3144,-2.3144,-2.3144,-2.3144,-2.3144,-2.3144,-2.3144,-2.3144,-2.3144,-2.3027,-2.2988,-2.3125,-2.3027,-2.2949,-2.2949,-2.3066,-2.2911,-2.2427,-2.2503,-2.1676,-1.9222,-1.8948,-1.8133,-1.6008,-1.6574,-1.6763,-1.5832,-1.5832,-1.5832,-1.5832,-1.5832,-1.5832,-1.5832,-1.5832,-1.5832,-1.5832,-1.5832,-1.5832,-1.5832,-1.5832,-1.5832,-1.5832,-1.5832,-1.5832,-1.5832,-1.5832,-1.5832,-1.5832,-1.5832,-1.5832,-1.5832,-1.5832,-1.5832,-1.5832,-1.5832,-1.5832,-1.5832,-3.6358,-3.6358,-3.6358,-3.6358,-3.6358,-3.6358,-3.6358,-3.6358,-3.6358,-3.6358,-3.6358,-3.6282,-3.6056,-3.5253,-3.4625,-3.4424,-3.3596,-3.2943,-3.2566,-3.1813,-3.126,-3.0934,-2.9819,-2.8763,-2.781,-2.781,-2.7058,-2.5462,-2.5859,-2.5041,-2.3125,-2.3282,-2.3162,-2.2754,-2.25,-2.2441,-2.25,-2.2246,-2.2187,-2.2246,-2.1992,-2.1992,-2.2109,-2.1953,-2.1992,-2.2129,-2.2129,-2.2031,-2.1914,-2.207,-2.2129,-2.2207,-2.2617,-2.293,-2.3144,-2.3144,-2.3144,-2.3144,-2.3144,-2.3144,-2.3144,-2.3144,-2.3144,-2.3144,-2.3144,-2.3144,-2.3144,-2.3144,-2.3144,-2.3144,-2.3144,-2.3144,-2.3144,-2.3144,-2.3144,-2.3144,-2.3144,-2.3144,-2.2403,-2.0404,-2.0206,-1.9389,-1.7483,-1.7948,-1.8133,-1.7296,-1.6842,-1.6574,-1.6574,-1.6103,-1.5832,-1.5832,-1.5832,-1.5832,-1.5832,-1.5832,-1.5832,-1.5832,-1.5832,-1.5832,-1.5832,-1.5832,-1.5832,-1.5832,-1.5832,-1.5832,-1.5832,-1.5832,-1.5832,-1.5832,-1.5832,-1.5832,-1.5832,-1.5832,-1.5832,-1.5832,-3.6358,-3.6358,-3.6358,-3.6358,-3.6358,-3.6358,-3.6358,-3.6358,-3.6358,-3.6358,-3.6307,-3.6107,-3.5604,-3.5002,-3.4449,-3.3947,-3.3395,-3.3068,-3.3068,-3.2064,-3.1436,-3.1386,-3.0407,-2.9854,-2.9804,-2.9804,-2.8791,-2.6648,-2.7602,-2.6521,-2.3387,-2.4382,-2.4296,-2.3387,-2.3299,-2.3083,-2.2729,-2.2729,-2.2428,-2.1992,-2.1992,-2.2227,-2.2519,-2.2148,-2.2227,-2.2559,-2.2559,-2.2324,-2.2051,-2.2441,-2.2559,-2.2637,-2.3027,-2.3144,-2.3144,-2.3144,-2.3144,-2.3144,-2.3144,-2.3144,-2.3144,-2.3144,-2.3144,-2.3144,-2.3144,-2.3144,-2.3144,-2.3144,-2.3144,-2.3144,-2.3144,-2.3144,-2.3144,-2.3144,-2.3144,-2.3144,-2.3144,-2.3144,-2.2668,-2.148,-2.1302,-2.0836,-1.9588,-1.9497,-1.9588,-1.9679,-1.8503,-1.787,-1.787,-1.6749,-1.6103,-1.6021,-1.6021,-1.5927,-1.5832,-1.5832,-1.5832,-1.5832,-1.5832,-1.5832,-1.5832,-1.5832,-1.5832,-1.5832,-1.5832,-1.5832,-1.5832,-1.5832,-1.5832,-1.5832,-1.5832,-1.5832,-1.5832,-1.5832,-1.5832,-1.5832,-3.6358,-3.6358,-3.6358,-3.6358,-3.6358,-3.6358,-3.6358,-3.6358,-3.6358,-3.6358,-3.5981,-3.568,-3.5554,-3.4675,-3.4022,-3.3897,-3.3395,-3.3068,-3.3068,-3.2416,-3.1838,-3.1411,-3.0783,-3.0231,-2.9804,-2.9804,-2.9131,-2.7763,-2.8004,-2.7279,-2.5735,-2.5126,-2.5126,-2.5714,-2.4787,-2.4405,-2.4322,-2.4322,-2.377,-2.2871,-2.2871,-2.293,-2.2988,-2.2891,-2.293,-2.3008,-2.3008,-2.2949,-2.2891,-2.2969,-2.3008,-2.3027,-2.3105,-2.3144,-2.3144,-2.3144,-2.3144,-2.3144,-2.3144,-2.3144,-2.3144,-2.3144,-2.3144,-2.3144,-2.3144,-2.3144,-2.3144,-2.3144,-2.3144,-2.3144,-2.3144,-2.3144,-2.3144,-2.3144,-2.3144,-2.3144,-2.3144,-2.3144,-2.2668,-2.148,-2.1302,-2.0836,-1.9588,-1.9497,-1.9844,-2.0836,-1.9753,-1.9131,-1.9131,-1.8856,-1.8226,-1.7311,-1.7311,-1.6857,-1.5832,-1.5832,-1.5832,-1.5832,-1.5832,-1.5832,-1.5832,-1.5832,-1.5832,-1.5832,-1.5832,-1.5832,-1.5832,-1.5832,-1.5832,-1.5832,-1.5832,-1.5832,-1.5832,-1.5832,-1.5832,-1.5832,-3.6358,-3.6358,-3.6358,-3.6358,-3.6358,-3.6358,-3.6358,-3.6358,-3.6358,-3.6358,-3.5881,-3.5454,-3.5177,-3.4399,-3.3796,-3.352,-3.3244,-3.3068,-3.3068,-3.2541,-3.1964,-3.1411,-3.0884,-3.0357,-2.9804,-2.9804,-2.9287,-2.8084,-2.8609,-2.7787,-2.5714,-2.563,-2.5378,-2.4893,-2.4211,-2.3953,-2.3953,-2.3953,-2.3627,-2.3144,-2.3144,-2.3144,-2.3144,-2.3144,-2.3144,-2.3144,-2.3144,-2.3144,-2.3144,-2.3144,-2.3144,-2.3144,-2.3144,-2.3144,-2.3144,-2.3144,-2.3144,-2.3144,-2.3144,-2.3144,-2.3144,-2.3144,-2.3301,-2.3398,-2.3184,-2.3144,-2.3203,-2.3398,-2.3437,-2.3516,-2.3711,-2.375,-2.3672,-2.3477,-2.3613,-2.3594,-2.3203,-2.3496,-2.3384,-2.2617,-2.2509,-2.2165,-2.1338,-2.123,-2.1571,-2.24,-2.1409,-2.068,-2.068,-2.013,-1.9124,-1.7777,-1.7684,-1.7138,-1.5832,-1.5832,-1.5832,-1.5832,-1.5832,-1.5832,-1.5832,-1.5832,-1.5832,-1.5832,-1.5832,-1.5832,-1.5832,-1.5832,-1.5832,-1.5832,-1.5832,-1.5832,-1.5832,-1.5832,-1.5832,-1.5832,-3.6358,-3.6282,-3.6257,-3.6332,-3.6282,-3.6257,-3.6332,-3.6358,-3.6358,-3.6358,-3.5805,-3.5228,-3.4776,-3.4148,-3.3571,-3.3119,-3.3068,-3.3068,-3.3068,-3.2541,-3.1964,-3.1411,-3.0884,-3.0357,-2.9804,-2.9804,-2.9365,-2.8426,-2.9365,-2.8291,-2.5357,-2.613,-2.5484,-2.3627,-2.3474,-2.3387,-2.3387,-2.3387,-2.3299,-2.3144,-2.3144,-2.3144,-2.3144,-2.3144,-2.3144,-2.3144,-2.3144,-2.3144,-2.3144,-2.3144,-2.3144,-2.3144,-2.3144,-2.3144,-2.3144,-2.3144,-2.3144,-2.3144,-2.3144,-2.3184,-2.3242,-2.3242,-2.3574,-2.3809,-2.3437,-2.3359,-2.3457,-2.3828,-2.3906,-2.4004,-2.4355,-2.4414,-2.4297,-2.3965,-2.418,-2.416,-2.3457,-2.3965,-2.4277,-2.3945,-2.3906,-2.375,-2.3398,-2.3359,-2.3516,-2.3867,-2.296,-2.2373,-2.23,-2.1344,-1.9953,-1.8334,-1.8149,-1.7404,-1.6103,-1.5927,-1.5832,-1.5832,-1.5832,-1.5858,-1.5912,-1.5912,-1.5912,-1.5899,-1.5845,-1.5832,-1.5832,-1.5832,-1.5832,-1.5832,-1.5832,-1.5832,-1.5832,-1.5832,-1.5832,-1.5832,-3.6358,-3.5981,-3.5805,-3.6282,-3.5981,-3.5805,-3.6282,-3.6358,-3.6358,-3.6358,-3.5479,-3.4801,-3.4726,-3.3796,-3.3169,-3.3093,-3.3068,-3.3068,-3.3068,-3.2541,-3.1964,-3.1411,-3.0884,-3.0357,-2.9804,-2.9804,-2.9702,-2.9546,-2.9702,-2.9028,-2.7683,-2.6871,-2.6318,-2.5986,-2.5041,-2.4532,-2.4532,-2.4532,-2.3953,-2.3144,-2.3144,-2.3144,-2.3144,-2.3144,-2.3144,-2.3144,-2.3144,-2.3144,-2.3144,-2.3144,-2.3144,-2.3144,-2.3144,-2.3144,-2.3144,-2.3144,-2.3144,-2.3144,-2.3144,-2.3418,-2.3711,-2.3711,-2.4023,-2.4316,-2.4258,-2.4238,-2.4258,-2.4316,-2.4336,-2.4355,-2.4414,-2.4414,-2.4394,-2.4336,-2.4375,-2.4375,-2.4258,-2.4336,-2.4394,-2.4336,-2.4336,-2.4316,-2.4258,-2.4238,-2.4258,-2.4316,-2.4152,-2.3886,-2.3628,-2.3409,-2.255,-2.0854,-1.977,-1.8688,-1.7404,-1.6386,-1.5832,-1.5832,-1.5832,-1.5965,-1.6219,-1.6219,-1.6219,-1.6206,-1.5939,-1.5832,-1.5832,-1.5832,-1.5832,-1.5832,-1.5832,-1.5832,-1.5832,-1.5832,-1.5832,-1.5832,-3.6307,-3.568,-3.5253,-3.5805,-3.5705,-3.5629,-3.5881,-3.6157,-3.6257,-3.5956,-3.5203,-3.46,-3.4299,-3.3545,-3.3068,-3.3068,-3.3068,-3.3068,-3.3068,-3.2541,-3.1964,-3.1411,-3.0884,-3.0357,-2.9804,-2.9804,-2.9804,-2.9804,-2.9804,-2.887,-2.7197,-2.6707,-2.5819,-2.4638,-2.4702,-2.4787,-2.4787,-2.4787,-2.4532,-2.4039,-2.4039,-2.3627,-2.3125,-2.38,-2.3627,-2.3144,-2.3144,-2.3144,-2.3144,-2.3144,-2.3144,-2.3144,-2.3144,-2.3144,-2.3144,-2.3144,-2.3144,-2.3184,-2.3437,-2.3633,-2.3848,-2.4082,-2.4473,-2.4785,-2.4785,-2.498,-2.5078,-2.4824,-2.4785,-2.4863,-2.5098,-2.5156,-2.5078,-2.4824,-2.498,-2.498,-2.4492,-2.4844,-2.5059,-2.4805,-2.4785,-2.4687,-2.4434,-2.4414,-2.4512,-2.4766,-2.4785,-2.459,-2.416,-2.348,-2.2245,-2.0314,-1.9131,-1.7855,-1.6669,-1.6103,-1.5912,-1.6086,-1.6246,-1.6299,-1.6273,-1.6273,-1.6366,-1.65,-1.6206,-1.6072,-1.6059,-1.5899,-1.5832,-1.5832,-1.5832,-1.5832,-1.5832,-1.5832,-1.5832,-1.5832]},{"header":{"parameterUnit":"m.s-1","parameterCategory":1,"la1":30.6,"la2":28.766,"lo1":-90.7593,"lo2":-88.6598,"dy":0.0162,"dx":0.0183,"nx":116,"ny":114,"refTime":"2023-06-24T12:00:00:Z","depth":0,"parameterNumber":3,"parameterNumberName":"V-component_of_WINDS"},"data":[0.0,0.0,0.0,0.0,0.0,0.0,0.0,0.0,0.0,0.0,0.0,0.0,0.0,0.0,0.0,0.0,0.0,0.0,0.0,0.0,0.0,0.0,0.0,0.0,0.0,0.0,0.0,0.0,0.0,0.0,0.0,0.0,0.0,0.0,0.0,0.0,0.0,0.0,0.0,0.0,0.0,0.0,0.0,0.0,0.0,0.0,0.0,0.0,0.0,0.0,0.0,0.0,0.0,0.0,0.0,0.0,0.0,0.0,0.0,0.0,0.0,0.0,0.0,0.0,0.0,0.0,0.0,0.0,0.0,0.0,0.0,0.0,0.0,0.0,0.0,0.0,0.0,0.0,0.0,0.0,0.0,0.0,0.0,0.0,0.0,0.0,0.0,0.0,0.0,0.0,0.0,0.0,0.0,0.0,0.0,0.0,0.0,0.0,0.0,0.0,0.0,0.0,0.0,0.0,0.0,0.0,0.0,0.0,0.0,0.0,0.0,0.0,0.0,0.0,0.0,0.0,0.0,0.0,0.0,0.0,0.0,0.0,0.0,0.0,0.0,0.0,0.0,0.0,0.0,0.0,0.0,0.0,0.0,0.0,0.0,0.0,0.0,0.0,0.0,0.0,0.0,0.0,0.0,0.0,0.0,0.0,0.0,0.0,0.0,0.0,0.0,0.0,0.0,0.0,0.0,0.0,0.0,0.0,0.0,0.0,0.0,0.0,0.0,0.0,0.0,0.0,0.0,0.0,0.0,0.0,0.0,0.0,0.0,0.0,0.0,0.0,0.0,0.0,0.0,0.0,0.0,0.0,0.0,0.0,0.0,0.0,0.0,0.0,0.0,0.0,0.0,0.0,0.0,0.0,0.0,0.0,0.0,0.0,0.0,0.0,0.0,0.0,0.0,0.0,0.0,0.0,0.0,0.0,0.0,0.0,0.0,0.0,0.0,0.0,0.0,0.0,0.0,0.0,0.0,0.0,0.0,0.0,0.0,0.0,0.0,0.0,0.0,0.0,0.0,0.0,0.0,0.0,0.0,0.0,0.0,0.0,0.0,0.0,0.0,0.0,0.0,0.0,0.0,0.0,0.0,0.0,0.0,0.0,0.0,0.0,0.0,0.0,0.0,0.0,0.0,0.0,0.0,0.0,0.0,0.0,0.0,0.0,0.0,0.0,0.0,0.0,0.0,0.0,0.0,0.0,0.0,0.0,0.0,0.0,0.0,0.0,0.0,0.0,0.0,0.0,0.0,0.0,0.0,0.0,0.0,0.0,0.0,0.0,0.0,0.0,0.0,0.0,0.0,0.0,0.0,0.0,0.0,0.0,0.0,0.0,0.0,0.0,0.0,0.0,0.0,0.0,0.0,0.0,0.0,0.0,0.0,0.0,0.0,0.0,0.0,0.0,0.0,0.0,0.0,0.0,0.0,0.0,0.0,0.0,0.0,0.0,0.0,0.0,0.0,0.0,0.0,0.0,0.0,0.0,0.0,0.0,0.0,0.0,0.0,0.0,0.0,0.0,0.0,0.0,0.0,0.0,0.0,0.0,0.0,0.0,0.0,0.0,0.0,0.0,0.0,0.0,0.0,0.0,0.0,0.0,0.0,0.0,0.0,0.0,0.0,0.0,0.0,0.0,0.0,0.0,0.0,0.0,0.0,0.0,0.0,0.0,0.0,0.0,0.0,0.0,0.0,0.0,0.0,0.0,0.0,0.0,0.0,0.0,0.0,0.0,0.0,0.0,0.0,0.0,0.0,0.0,0.0,0.0,0.0,0.0,0.0,0.0,0.0,0.0,0.0,0.0,0.0,0.0,0.0,0.0,0.0,0.0,0.0,0.0,0.0,0.0,0.0,0.0,0.0,0.0,0.0,0.0,0.0,0.0,0.0,0.0,0.0,0.0,0.0,0.0,0.0,0.0,0.0,0.0,0.0,0.0,0.0,0.0,0.0,0.0,0.0,0.0,0.0,0.0,0.0,0.0,0.0,0.0,0.0,0.0,0.0,0.0,0.0,0.0,0.0,0.0,0.0,0.0,0.0,0.0,0.0,0.0,0.0,0.0,0.0,0.0,0.0,0.0,0.0,0.0,0.0,0.0,0.0,0.0,0.0,0.0,0.0,0.0,0.0,0.0,0.0,0.0,0.0,0.0,0.0,0.0,0.0,0.0,0.0,0.0,0.0,0.0,0.0,0.0,0.0,0.0,0.0,0.0,0.0,0.0,0.0,0.0,0.0,0.0,0.0,0.0,0.0,0.0,0.0,0.0,0.0,0.0,0.0,0.0,0.0,0.0,0.0,0.0,0.0,0.0,0.0,0.0,0.0,0.0,0.0,0.0,0.0,0.0,0.0,0.0,0.0,0.0,0.0,0.0,0.0,0.0,0.0,0.0,0.0,0.0,0.0,0.0,0.0,0.0,0.0,0.0,0.0,0.0,0.0,0.0,0.0,0.0,0.0,0.0,0.0,0.0,0.0,0.0,0.0,0.0,0.0,0.0,0.0,0.0,0.0,0.0,0.0,0.0,0.0,0.0,0.0,0.0,0.0,0.0,0.0,0.0,0.0,0.0,0.0,0.0,0.0,0.0,0.0,0.0,0.0,0.0,0.0,0.0,0.0,0.0,0.0,0.0,0.0,0.0,0.0,0.0,0.0,0.0,0.0,0.0,0.0,0.0,0.0,0.0,0.0,0.0,0.0,0.0,0.0,0.0,0.0,0.0,0.0,0.0,0.0,0.0,0.0,0.0,0.0,0.0,0.0,0.0,0.0,0.0,0.0,0.0,0.0,0.0,0.0,0.0,0.0,0.0,0.0,0.0,0.0,0.0,0.0,0.0,0.0,0.0,0.0,0.0,0.0,0.0,0.0,0.0,0.0,0.0,0.0,0.0,0.0,0.0,0.0,0.0,0.0,0.0,0.0,0.0,0.0,0.0,0.0,0.0,0.0,0.0,0.0,0.0,0.0,0.0,0.0,0.0,0.0,0.0,0.0,0.0,0.0,0.0,0.0,0.0,0.0,0.0,0.0,0.0,0.0,0.0,0.0,0.0,0.0,0.0,0.0,0.0,0.0,0.0,0.0,0.0,0.0,0.0,0.0,0.0,0.0,0.0,0.0,0.0,0.0,0.0,0.0,0.0,0.0,0.0,0.0,0.0,0.0,0.0,0.0,0.0,0.0,0.0,0.0,0.0,0.0,0.0,0.0,0.0,0.0,0.0,0.0,0.0,0.0,0.0,0.0,0.0,0.0,0.0,0.0,0.0,0.0,0.0,0.0,0.0,0.0,0.0,0.0,0.0,0.0,0.0,0.0,0.0,0.0,0.0,0.0,0.0,0.0,0.0,0.0,0.0,0.0,0.0,0.0,0.0,0.0,0.0,0.0,0.0,0.0,0.0,0.0,0.0,0.0,0.0,0.0,0.0,0.0,0.0,0.0,0.0,0.0,0.0,0.0,0.0,0.0,0.0,0.0,0.0,0.0,0.0,0.0,0.0,0.0,0.0,0.0,0.0,0.0,0.0,0.0,0.0,0.0,0.0,0.0,0.0,0.0,0.0,0.0,0.0,0.0,0.0,0.0,0.0,0.0,0.0,0.0,0.0,0.0,0.0,0.0,0.0,0.0,0.0,0.0,0.0,0.0,0.0,0.0,0.0,0.0,0.0,0.0,0.0,0.0,0.0,0.0,0.0,0.0,0.0,0.0,0.0,0.0,0.0,0.0,0.0,0.0,0.0,0.0,0.0,0.0,0.0,0.0,0.0,0.0,0.0,0.0,0.0,0.0,0.0,0.0,0.0,0.0,0.0,0.0,0.0,0.0,0.0,0.0,0.0,0.0,0.0,0.0,0.0,0.0,0.0,0.0,0.0,0.0,0.0,0.0,0.0,0.0,0.0,0.0,0.0,0.0,0.0,0.0,0.0,0.0,0.0,0.0,0.0,0.0,0.0,0.0,0.0,0.0,0.0,0.0,0.0,0.0,0.0,0.0,0.0,0.0,0.0,0.0,0.0,0.0,0.0,0.0,0.0,0.0,0.0,0.0,0.0,0.0,0.0,0.0,0.0,0.0,0.0,0.0,0.0,0.0,0.0,0.0,0.0,0.0,0.0,0.0,0.0,0.0,0.0,0.0,0.0,0.0,0.0,0.0,0.0,0.0,0.0,0.0,0.0,0.0,0.0,0.0,0.0,0.0,0.0,0.0,0.0,0.0,0.0,0.0,0.0,0.0,0.0,0.0,0.0,0.0,0.0,0.0,0.0,0.0,0.0,0.0,0.0,0.0,0.0,0.0,0.0,0.0,0.0,0.0,0.0,0.0,0.0,0.0,0.0,0.0,0.0,0.0,0.0,0.0,0.0,0.0,0.0,0.0,0.0,0.0,0.0,0.0,0.0,0.0,0.0,0.0,0.0,0.0,0.0,0.0,0.0,0.0,0.0,0.0,0.0,0.0,0.0,0.0,0.0,0.0,0.0,0.0,0.0,0.0,0.0,0.0,0.0,0.0,0.0,0.0,0.0,0.0,0.0,0.0,0.0,0.0,0.0,0.0,0.0,0.0,0.0,0.0,0.0,0.0,0.0,0.0,0.0,0.0,0.0,0.0,0.0,0.0,0.0,0.0,0.0,0.0,0.0,0.0,0.0,0.0,0.0,0.0,0.0,0.0,0.0,0.0,0.0,0.0,0.0,0.0,0.0,0.0,0.0,0.0,0.0,0.0,0.0,0.0,0.0,0.0,0.0,0.0,0.0,0.0,0.0,0.0,0.0,0.0,0.0,0.0,0.0,0.0,0.0,0.0,0.0,0.0,0.0,0.0,0.0,0.0,0.0,0.0,0.0,0.0,0.0,0.0,0.0,0.0,0.0,0.0,0.0,0.0,0.0,0.0,0.0,0.0,0.0,0.0,0.0,0.0,0.0,0.0,0.0,0.0,0.0,0.0,0.0,0.0,0.0,0.0,0.0,0.0,0.0,0.0,0.0,0.0,0.0,0.0,0.0,0.0,0.0,0.0,0.0,0.0,0.0,0.0,0.0,0.0,0.0,0.0,0.0,0.0,0.0,0.0,0.0,0.0,0.0,0.0,0.0,0.0,0.0,0.0,0.0,0.0,0.0,0.0,0.0,0.0,0.0,0.0,0.0,0.0,0.0,0.0,0.0,0.0,0.0,0.0,0.0,0.0,0.0,0.0,0.0,0.0,0.0,0.0,0.0,0.0,0.0,0.0,0.0,0.0,0.0,0.0,0.0,0.0,0.0,0.0,0.0,0.0,0.0,0.0,0.0,0.0,0.0,0.0,0.0,0.0,0.0,0.0,0.0,0.0,0.0,0.0,0.0,0.0,0.0,0.0,0.0,0.0,0.0,0.0,0.0,0.0,0.0,0.0,0.0,0.0,0.0,0.0,0.0,0.0,0.0,0.0,0.0,0.0,0.0,0.0,0.0,0.0,0.0,0.0,0.0,0.0,0.0,0.0,0.0,0.0,0.0,0.0,0.0,0.0,0.0,0.0,0.0,0.0,0.0,0.0,0.0,0.0,0.0,0.0,0.0,0.0,0.0,0.0,0.0,0.0,0.0,0.0,0.0,0.0,0.0,0.0,0.0,0.0,0.0,0.0,0.0,0.0,0.0,0.0,0.0,0.0,0.0,0.0,0.0,0.0,0.0,0.0,0.0,0.0,0.0,0.0,0.0,0.0,0.0,0.0,0.0,0.0,0.0,0.0,0.0,0.0,0.0,0.0,0.0,0.0,0.0,0.0,0.0,0.0,0.0,0.0,0.0,0.0,0.0,0.0,0.0,0.0,0.0,0.0,0.0,0.0,0.0,0.0,0.0,0.0,0.0,0.0,0.0,0.0,0.0,0.0,0.0,0.0,0.0,0.0,0.0,0.0,0.0,0.0,0.0,0.0,0.0,0.0,0.0,0.0,0.0,0.0,0.0,0.0,0.0,0.0,0.0,0.0,0.0,0.0,0.0,0.0,0.0,0.0,0.0,0.0,0.0,0.0,0.0,0.0,0.0,0.0,0.0,0.0,0.0,0.0,0.0,0.0,0.0,0.0,0.0,0.0,0.0,0.0,0.0,0.0,0.0,0.0,0.0,0.0,0.0,0.0,0.0,0.0,0.0,0.0,0.0,-4.6702,0.0,0.0,0.0,0.0,0.0,0.0,0.0,0.0,0.0,0.0,0.0,0.0,0.0,0.0,0.0,0.0,0.0,0.0,0.0,0.0,0.0,0.0,0.0,0.0,0.0,0.0,0.0,0.0,0.0,0.0,0.0,0.0,0.0,0.0,0.0,0.0,0.0,0.0,0.0,0.0,0.0,0.0,0.0,0.0,0.0,0.0,0.0,0.0,0.0,0.0,0.0,0.0,0.0,0.0,0.0,0.0,0.0,0.0,0.0,0.0,0.0,0.0,0.0,0.0,0.0,0.0,0.0,0.0,0.0,0.0,0.0,0.0,0.0,0.0,0.0,0.0,0.0,0.0,0.0,0.0,0.0,0.0,0.0,0.0,0.0,0.0,0.0,0.0,0.0,0.0,0.0,0.0,0.0,0.0,0.0,0.0,0.0,0.0,0.0,0.0,0.0,0.0,0.0,0.0,0.0,0.0,0.0,0.0,0.0,0.0,0.0,0.0,0.0,0.0,0.0,0.0,-4.8919,0.0,0.0,0.0,0.0,0.0,0.0,0.0,0.0,0.0,0.0,0.0,0.0,0.0,0.0,0.0,0.0,0.0,0.0,0.0,0.0,0.0,0.0,0.0,0.0,0.0,0.0,0.0,0.0,0.0,0.0,0.0,0.0,0.0,0.0,0.0,0.0,0.0,0.0,0.0,0.0,0.0,0.0,0.0,0.0,0.0,0.0,0.0,0.0,0.0,0.0,0.0,0.0,0.0,0.0,0.0,0.0,0.0,0.0,0.0,0.0,0.0,0.0,0.0,0.0,0.0,0.0,0.0,0.0,0.0,0.0,0.0,0.0,0.0,0.0,0.0,0.0,0.0,0.0,0.0,0.0,0.0,0.0,0.0,0.0,0.0,0.0,0.0,0.0,0.0,0.0,0.0,0.0,0.0,0.0,0.0,0.0,0.0,0.0,0.0,0.0,0.0,0.0,0.0,0.0,0.0,0.0,0.0,0.0,-5.2087,-5.5164,-5.8396,-6.0204,-6.1704,-6.2589,-5.8604,-5.4765,-5.1262,-5.052,0.0,0.0,0.0,0.0,0.0,0.0,0.0,0.0,0.0,0.0,0.0,0.0,0.0,0.0,0.0,0.0,0.0,0.0,0.0,0.0,0.0,0.0,0.0,0.0,0.0,0.0,0.0,0.0,0.0,0.0,0.0,0.0,0.0,0.0,0.0,0.0,0.0,0.0,-3.5679,-3.678,-3.7771,-3.8579,-3.7367,0.0,0.0,0.0,0.0,0.0,0.0,0.0,0.0,0.0,0.0,0.0,0.0,0.0,0.0,0.0,0.0,0.0,0.0,0.0,0.0,0.0,0.0,0.0,0.0,0.0,0.0,0.0,0.0,0.0,0.0,0.0,0.0,0.0,0.0,0.0,0.0,0.0,0.0,0.0,0.0,0.0,0.0,0.0,-3.7034,-3.9261,0.0,0.0,0.0,0.0,0.0,0.0,0.0,0.0,0.0,0.0,0.0,0.0,0.0,-4.597,-4.8202,-5.001,-5.1818,-5.3703,-5.7703,-6.1012,-6.3666,-6.6128,-6.8513,-7.0629,-6.9256,0.0,-5.5929,-5.3656,0.0,0.0,0.0,0.0,0.0,0.0,0.0,0.0,0.0,0.0,0.0,0.0,0.0,0.0,0.0,0.0,0.0,0.0,0.0,0.0,0.0,0.0,0.0,0.0,0.0,0.0,0.0,0.0,0.0,0.0,0.0,0.0,0.0,0.0,0.0,0.0,-3.3377,-3.603,-3.7698,-4.0304,-4.2176,-4.324,-4.2543,-4.1552,-4.0341,-3.8909,0.0,0.0,0.0,0.0,0.0,0.0,0.0,0.0,0.0,0.0,0.0,0.0,0.0,0.0,0.0,0.0,0.0,0.0,0.0,0.0,0.0,0.0,0.0,0.0,0.0,0.0,0.0,0.0,0.0,0.0,0.0,0.0,0.0,0.0,0.0,0.0,0.0,0.0,0.0,-3.7864,-3.9604,-3.9001,-3.9637,-4.0323,0.0,0.0,0.0,0.0,0.0,0.0,0.0,0.0,0.0,-4.7702,-4.8663,-4.9471,-5.0125,-5.2741,-5.5126,-5.7357,-6.1627,-6.5474,-6.8975,-7.1514,-7.3783,-7.5668,-7.4861,-7.136,-6.5897,-6.0935,-5.7049,-5.4049,0.0,0.0,0.0,0.0,-5.2334,-5.2525,0.0,0.0,0.0,0.0,0.0,0.0,0.0,0.0,0.0,0.0,0.0,0.0,0.0,0.0,0.0,-2.8518,0.0,0.0,0.0,0.0,0.0,0.0,0.0,0.0,0.0,0.0,0.0,0.0,-3.6916,-3.9753,-4.0634,-4.4048,-4.6177,-4.7131,-4.7131,-4.548,-4.2616,-4.1332,-3.99,0.0,0.0,0.0,0.0,0.0,0.0,0.0,0.0,0.0,0.0,0.0,0.0,0.0,0.0,0.0,0.0,0.0,0.0,0.0,0.0,0.0,0.0,0.0,0.0,0.0,0.0,0.0,0.0,0.0,0.0,0.0,0.0,0.0,0.0,0.0,0.0,0.0,0.0,-3.9865,-4.1342,-3.8821,-4.1053,-4.2354,0.0,0.0,0.0,0.0,0.0,0.0,-4.8432,-4.9702,-5.0779,-5.1664,-5.2895,-5.3549,-5.3626,-5.6088,-5.8627,-6.1166,-6.482,-6.8744,-7.2899,-7.5245,-7.7361,-7.9131,-7.8284,-7.6746,-7.4245,-6.7436,-6.2512,-5.9088,-5.6934,-5.5753,-5.5393,-5.6414,-5.6545,-5.6538,0.0,0.0,0.0,0.0,0.0,0.0,0.0,0.0,0.0,0.0,0.0,0.0,0.0,0.0,-2.8619,-3.0818,-3.1123,-3.1427,0.0,0.0,0.0,0.0,0.0,0.0,0.0,0.0,0.0,-3.711,-3.8982,-4.1809,-4.559,-4.7315,-4.9003,-5.0545,-5.0545,-5.0435,-4.9958,-4.5296,-4.3681,-4.3938,0.0,0.0,0.0,0.0,0.0,0.0,0.0,0.0,0.0,0.0,0.0,0.0,0.0,0.0,0.0,0.0,0.0,0.0,0.0,0.0,0.0,0.0,0.0,0.0,0.0,0.0,0.0,0.0,0.0,0.0,0.0,0.0,0.0,0.0,0.0,0.0,0.0,0.0,0.0,-4.0101,-4.3194,0.0,0.0,0.0,0.0,-4.6509,-4.8202,-5.024,-5.2741,-5.2972,-5.4511,-5.7742,-5.7934,-5.9127,-6.1473,-6.1666,-6.3051,-6.559,-6.7398,-7.0514,-7.463,-7.6399,-7.8592,-8.0939,-8.0054,-7.9131,-7.7707,-7.0937,-6.709,-6.5128,-6.1781,-6.0635,-6.0806,-6.0082,-5.9688,-5.9673,0.0,0.0,0.0,0.0,0.0,0.0,0.0,0.0,0.0,0.0,0.0,0.0,0.0,-2.9973,-3.1596,-3.3863,-3.5385,-3.5723,-3.4506,0.0,0.0,0.0,0.0,0.0,0.0,0.0,-3.6309,-3.8458,-4.1723,-4.4747,-4.7462,-4.86,-4.9994,-5.1573,-5.2123,-5.2637,-5.2821,-4.8453,-4.5553,-4.3718,-4.1258,-3.9276,0.0,0.0,0.0,0.0,0.0,0.0,0.0,0.0,0.0,0.0,0.0,0.0,0.0,0.0,0.0,0.0,0.0,0.0,0.0,0.0,0.0,0.0,0.0,0.0,0.0,0.0,0.0,0.0,0.0,0.0,0.0,0.0,0.0,0.0,0.0,0.0,0.0,-4.448,-4.803,0.0,-4.8163,-4.824,-4.9125,-5.0818,-5.251,-5.4818,-5.7934,-5.9127,-6.0781,-6.3128,-6.3205,-6.3358,-6.3705,-6.4282,-6.5013,-6.5936,-6.8167,-7.0591,-7.3168,-7.5438,-7.7553,-7.9438,-7.9708,-7.9631,-7.9169,-7.6746,-7.3215,-6.9145,-6.685,-6.5465,-6.4821,-6.501,-6.5185,-6.5468,0.0,0.0,0.0,0.0,0.0,0.0,0.0,0.0,0.0,0.0,0.0,-2.6447,-2.953,-3.1558,-3.3694,-3.6128,-3.7509,-3.7618,-3.6096,0.0,0.0,0.0,0.0,0.0,0.0,-3.6007,-3.8869,-4.0926,-4.4485,-4.7229,-4.915,-4.9994,-5.1096,-5.2454,-5.3261,-5.3922,-5.4252,-5.1793,-4.8746,-4.5369,-4.3497,-4.2103,-4.0708,0.0,0.0,0.0,0.0,0.0,0.0,0.0,0.0,0.0,0.0,0.0,0.0,0.0,0.0,0.0,0.0,0.0,0.0,0.0,0.0,0.0,0.0,0.0,0.0,0.0,0.0,0.0,0.0,0.0,0.0,0.0,0.0,0.0,0.0,0.0,-4.8187,-4.8411,-5.2008,-5.3818,-5.2125,-5.2741,-5.3972,-5.5626,-5.7319,-5.9627,-6.2743,-6.3974,-6.5243,-6.6705,-6.6744,-6.6474,-6.5897,-6.6167,-6.6282,-6.632,-6.8013,-6.9706,-7.1398,-7.3399,-7.5361,-7.7284,-7.813,-7.8669,-7.8977,-7.8977,-7.6613,-7.2881,-7.1471,-6.9929,-6.8591,-6.8816,-6.894,-6.8999,0.0,0.0,0.0,0.0,0.0,0.0,0.0,0.0,0.0,0.0,-2.3362,-2.5875,-2.9099,-3.189,-3.4708,-3.7571,-3.7151,-3.6772,-3.6806,-3.2645,0.0,0.0,0.0,0.0,-3.5119,-3.9228,-4.2485,-4.4747,-4.7167,-4.9184,-5.0839,-5.1646,-5.2454,-5.3298,-5.4069,-5.4436,-5.4546,-5.5317,-5.3408,-4.9591,-4.7021,-4.5993,-4.5406,0.0,0.0,0.0,0.0,0.0,0.0,0.0,0.0,0.0,0.0,0.0,0.0,0.0,0.0,0.0,0.0,0.0,0.0,0.0,0.0,0.0,0.0,0.0,0.0,0.0,0.0,0.0,0.0,0.0,0.0,0.0,0.0,0.0,-4.4662,-4.8743,-5.1644,-5.172,-5.4956,-5.6549,-5.4972,-5.7049,-5.9204,-6.0858,-6.2512,-6.4512,-6.7051,-6.7167,-6.759,-6.8475,-6.8475,-6.8475,-6.8398,-6.7552,-6.709,-6.7051,-6.709,-6.7975,-6.9667,-7.0514,-7.2245,-7.4668,-7.5592,-7.6476,-7.7284,-7.7284,-7.692,-7.6273,-7.5434,-7.3897,-7.2087,-7.1268,-7.0643,-7.0018,0.0,0.0,0.0,0.0,0.0,0.0,0.0,0.0,0.0,0.0,-2.445,-2.7218,-2.9913,-3.2626,-3.5448,-3.836,-3.6934,-3.6419,-3.7503,0.0,0.0,0.0,0.0,0.0,-3.782,-4.0,-4.2723,-4.5988,-4.8215,-5.0132,-5.1683,-5.1903,-5.2747,-5.4106,-5.4913,-5.5574,-5.6198,-5.7005,-5.6381,-5.4473,-5.0251,-4.7865,-4.6397,0.0,0.0,0.0,0.0,0.0,0.0,0.0,0.0,0.0,0.0,0.0,0.0,0.0,0.0,0.0,0.0,0.0,0.0,0.0,0.0,0.0,0.0,0.0,0.0,0.0,0.0,0.0,0.0,0.0,0.0,0.0,0.0,-4.9526,-4.8273,-5.1809,-5.5001,-5.6268,-5.9465,-6.1627,-6.182,-6.2474,-6.3551,-6.5243,-6.5782,-6.6898,-6.8898,-6.8975,-6.936,-7.0206,-7.0206,-6.9629,-6.8398,-6.8167,-6.7436,-6.6244,-6.6821,-6.7359,-6.7859,-6.9975,-7.1629,-7.3014,-7.5091,-7.6476,-7.7284,-7.7284,-7.6574,-7.5434,-7.5167,-7.3897,-7.2211,-7.2341,-7.1658,-7.0546,0.0,0.0,0.0,0.0,0.0,0.0,0.0,0.0,0.0,0.0,-2.4212,-2.6942,-2.8294,-3.1407,-3.4027,-3.5755,-3.5183,-3.4783,-3.4767,0.0,0.0,0.0,0.0,-3.5688,-3.9268,-4.1678,-4.4397,-4.7452,-4.9305,-5.0856,-5.2062,-5.2387,-5.3215,-5.4474,-5.5275,-5.6081,-5.6859,-5.7666,-5.7923,-5.7556,-5.4363,-5.2344,-5.0765,-4.6838,-4.5773,-4.6067,-4.3754,-4.3167,-4.3204,-4.1479,0.0,0.0,0.0,0.0,0.0,0.0,0.0,0.0,0.0,0.0,0.0,0.0,0.0,0.0,0.0,0.0,0.0,0.0,0.0,0.0,0.0,0.0,0.0,0.0,-5.1658,-5.4572,-5.4682,-5.6819,-5.9165,-6.1243,-6.3512,-6.5243,-6.6128,-6.6205,-6.6744,-6.809,-6.8205,-6.8783,-7.0129,-7.0206,-7.0437,-7.0898,-7.0898,-7.0437,-6.9475,-6.9129,-6.8475,-6.7475,-6.7244,-6.709,-6.7128,-6.8282,-6.9475,-7.0744,-7.2937,-7.4553,-7.5745,-7.6476,-7.6048,0.0,0.0,0.0,0.0,0.0,-7.1599,-7.0239,0.0,0.0,0.0,0.0,0.0,0.0,0.0,0.0,0.0,0.0,0.0,-2.557,-2.5378,-2.8817,-3.1228,-3.155,-3.2434,-3.2298,0.0,0.0,0.0,-3.0886,-3.5385,-3.8649,-4.0251,-4.3731,-4.6569,-4.8791,-5.0223,-5.1317,-5.2236,-5.2854,-5.3655,-5.4525,-5.5245,-5.6029,-5.6849,-5.7543,-5.8396,-5.9139,-5.8454,-5.7657,-5.6455,-5.1867,-5.0949,-5.172,-4.8526,-4.6177,-4.4415,-4.3351,0.0,0.0,0.0,0.0,0.0,0.0,0.0,0.0,0.0,0.0,0.0,0.0,0.0,0.0,0.0,0.0,0.0,0.0,0.0,0.0,0.0,0.0,0.0,0.0,-5.5953,-5.9127,-6.2358,-6.2974,-6.382,-6.5782,-6.6744,-6.759,-6.8475,-6.8552,-6.8898,-6.9783,-6.986,-7.0167,-7.086,0.0,0.0,0.0,0.0,-7.086,-7.0783,-7.0052,-6.9667,-6.9513,-6.7975,-6.7205,-6.709,-6.6474,-6.6936,-6.8359,-7.0129,-7.1822,-7.3476,-7.4976,-7.5053,-7.4226,-7.3777,-7.2852,-7.1738,-7.1501,-7.0674,-6.9481,0.0,0.0,0.0,0.0,0.0,0.0,0.0,0.0,0.0,-1.9762,-2.211,-2.3846,-2.3953,-2.6116,-2.8503,-3.0709,-2.9925,-2.9783,0.0,0.0,-3.2476,-3.5351,-3.7043,-3.9393,-4.2668,-4.4674,-4.6735,-4.8866,-4.975,-5.0885,-5.2201,-5.2378,-5.3139,-5.4543,-5.465,-5.5541,-5.6898,-5.7041,-5.7927,-5.9164,-5.9019,-5.8505,-5.7446,-5.4583,-5.3261,-5.2637,-5.0031,-5.0068,-5.0912,-4.8086,-4.7388,-4.7168,-4.4048,0.0,0.0,0.0,0.0,0.0,0.0,0.0,0.0,0.0,0.0,0.0,0.0,0.0,0.0,0.0,0.0,0.0,0.0,0.0,0.0,-5.6333,-6.0942,-6.4897,-6.6898,-6.8359,-6.8629,-6.7051,-6.7628,-6.8475,-6.936,-6.9436,-6.9783,-7.0591,-7.0667,-7.0744,-7.0898,-7.0898,-7.0898,-7.0898,-7.0898,-7.0591,-6.9937,-6.9783,-6.936,-6.8667,0.0,0.0,-6.7128,-6.7667,-6.7705,-6.7475,-6.986,-7.1475,-7.2476,-7.2783,-7.2437,-7.1678,-7.1827,-7.198,-7.1911,-7.0346,-6.9435,-6.8866,0.0,0.0,0.0,0.0,0.0,0.0,0.0,0.0,0.0,0.0,-2.1515,-2.2753,-2.2634,-2.4118,-2.553,-2.6581,-2.6745,0.0,0.0,-3.1901,-3.3795,-3.7212,-3.9106,-4.1339,-4.3944,-4.5838,-4.7335,-4.8391,-4.9521,-5.0626,-5.1706,-5.2087,-5.3088,-5.4524,-5.4583,-5.518,-5.6361,-5.7148,-5.8178,-5.9311,-6.0062,-6.0418,-6.0199,-5.818,-5.6638,-5.5427,-5.4216,-5.3555,-5.2894,-5.0839,-5.0178,-4.9627,-4.6324,-4.4195,-4.2249,0.0,0.0,0.0,0.0,0.0,0.0,0.0,0.0,0.0,0.0,0.0,0.0,0.0,0.0,-4.8843,0.0,0.0,-5.8681,-6.1416,-6.4821,-6.759,-6.8859,-7.0129,-7.0437,-6.9129,-6.9783,-7.0283,-7.0283,-7.0283,-7.0475,-7.086,-7.0898,-7.0898,-7.0898,-7.0898,-7.0898,-7.0898,-7.0898,-7.0706,-7.0283,-7.0283,-6.9898,-6.9052,-6.8629,-6.7936,-6.709,-6.7128,-6.7128,-6.7205,-6.936,-7.0783,-7.1591,-7.2014,-7.1937,-7.1525,-7.1275,-7.1074,-7.0766,-6.9381,-6.8569,-6.8155,0.0,0.0,0.0,0.0,0.0,0.0,0.0,0.0,0.0,0.0,0.0,-2.1667,-2.1345,-2.2233,-2.2825,0.0,0.0,0.0,0.0,-3.278,-3.5013,-3.8193,-4.1035,-4.3166,-4.4553,-4.6786,-4.7936,-4.7936,-4.9221,-5.0338,-5.1217,-5.1826,-5.2929,-5.4391,-5.4391,-5.4799,-5.5602,-5.6872,-5.8013,-5.8932,-6.0352,-6.1405,-6.2032,-6.0848,-5.9612,-5.8364,-5.7593,-5.5427,-5.2858,-5.205,-5.1242,-5.0141,-4.7645,-4.6617,-4.5516,-4.1148,-3.9863,0.0,0.0,0.0,0.0,0.0,0.0,0.0,0.0,0.0,-4.6405,-4.9251,-5.2454,-5.5579,-5.8157,-6.0813,-6.3433,-6.5987,-6.7691,-6.9086,-7.0052,-7.0651,-7.0969,-7.0937,-7.1514,-7.1668,-7.0975,-7.0898,-7.0898,-7.0898,-7.0744,-7.0744,-7.0898,-7.0744,-7.0744,-7.0898,-7.0898,-7.0898,-7.0898,-7.0898,-7.0552,-6.9937,-6.9052,-6.8205,-6.7321,-6.6513,-6.6397,-6.6974,-6.8898,-7.0167,-7.0975,-7.1822,-7.2091,-7.186,-7.1014,-7.0283,-6.9629,-6.909,-6.8513,-6.8012,0.0,0.0,0.0,0.0,0.0,0.0,0.0,0.0,0.0,0.0,0.0,0.0,0.0,0.0,0.0,0.0,0.0,0.0,-3.1928,-3.3558,-3.5994,-3.9681,-4.2049,-4.3707,-4.4553,-4.6786,-4.7936,-4.7936,-4.8714,-4.983,-5.1217,-5.1285,-5.2162,-5.3618,-5.3618,-5.4024,-5.477,-5.4906,-5.5813,-5.7206,-5.8107,-5.8964,-5.9724,-6.0225,-6.0309,-5.9648,-5.6088,-5.3665,-5.2013,-5.1206,-5.0398,-4.9774,-5.0141,-4.9224,-4.7498,-4.4819,0.0,-3.9643,-3.8579,-3.8505,-3.935,-4.2139,-4.247,-4.3928,0.0,0.0,-5.1818,-5.577,-5.811,-5.9863,-6.1363,-6.4295,-6.6833,-6.7936,-6.9115,-7.04,-7.1755,-7.1605,-7.1242,-7.0948,-7.0975,-7.1014,-7.0898,-7.0898,-7.0898,-7.0898,-7.0244,-7.0167,-7.086,-7.0206,-7.0167,-7.0898,-7.0898,-7.0898,-7.0898,-7.0898,-7.086,-7.0744,-6.9937,-6.909,-6.8244,-6.7359,-6.6628,-6.6167,-6.8629,-7.0167,-7.0975,-7.1822,-7.1745,-7.0975,-7.0167,-6.9783,-6.9783,-7.0398,-7.014,-6.9459,0.0,0.0,0.0,0.0,0.0,0.0,0.0,0.0,0.0,0.0,0.0,0.0,0.0,0.0,0.0,0.0,0.0,0.0,-3.1996,-3.366,-3.6366,-4.0561,-4.2455,-4.3775,-4.4553,-4.6786,-4.7936,-4.7936,-4.8646,-4.956,-5.0574,-5.1014,-5.1792,-5.2807,-5.3281,-5.3687,-5.4059,-5.4935,-5.5701,-5.6362,-5.7681,-5.833,-5.853,-5.746,-5.6536,-5.5677,-5.4728,-5.2747,0.0,0.0,-4.8221,-4.8157,-4.8251,-4.7636,-4.6434,-4.4011,-4.2359,0.0,-4.1442,-4.2176,0.0,0.0,-4.6801,-4.9375,-5.2153,-5.4277,-5.6555,-5.955,-6.2528,-6.4908,-6.6269,-6.8052,-6.9436,0.0,-7.0681,-7.1189,-7.0794,-7.0566,-6.9808,-6.8179,-6.7975,-6.8552,-7.0052,-7.0206,-7.0206,-7.0206,-6.9898,-6.9629,-6.9436,-6.9629,-6.986,-7.0206,-7.0667,-7.0898,-7.0898,-7.0898,-7.0667,-7.0206,-6.986,-6.8975,-6.7628,-6.7282,-6.6898,-6.6667,-6.8244,-6.9436,-7.0283,-7.1091,-7.0937,-7.0206,-7.036,-7.0129,-6.9667,-6.9513,-6.9552,-6.9706,0.0,0.0,0.0,0.0,0.0,0.0,0.0,0.0,0.0,0.0,0.0,0.0,0.0,0.0,0.0,0.0,0.0,0.0,0.0,-3.2773,-3.5746,-3.9884,-4.1808,-4.3267,-4.4248,-4.6278,-4.7394,-4.7597,-4.8342,-4.9289,-5.0405,-5.0947,-5.1725,-5.2672,-5.3247,-5.3518,-5.3585,-5.4689,-5.5154,-5.5253,-5.6405,-5.6764,-5.6399,-5.4221,-5.2287,-5.0695,-5.162,-4.9966,0.0,0.0,-4.4927,-4.5114,-4.5217,-4.5075,-4.4599,-4.3094,-4.247,-4.2433,-4.302,0.0,0.0,-4.7021,-5.0582,-5.3965,-5.4428,-5.7427,-6.0783,-6.3381,-6.5562,-6.754,-6.9047,-6.9316,-6.9442,-6.9821,-7.0277,-7.0287,-6.9448,-6.8817,-6.7714,-6.5782,-6.5128,-6.5667,-6.7744,-6.859,-6.909,-6.9321,-6.9129,-6.8821,-6.8436,-6.8783,-6.9206,-6.9667,-7.0283,-7.0667,-7.0898,-7.0898,-7.0514,-6.9706,-6.9475,-6.8552,-6.709,-6.6859,-6.6898,-6.7128,-6.8013,-6.9013,-7.009,-7.0667,-7.0552,-7.009,-7.0667,-7.0552,-6.9937,-6.9321,-6.9475,-7.0014,0.0,0.0,0.0,0.0,0.0,0.0,0.0,0.0,0.0,0.0,0.0,0.0,0.0,0.0,0.0,0.0,0.0,0.0,0.0,-3.0448,-3.3826,-3.707,-3.9799,-4.1948,-4.3403,-4.4993,-4.6109,-4.6819,-4.7597,-4.9052,-5.1183,-5.1217,-5.2029,-5.345,-5.3484,-5.3518,-5.3518,-5.3518,-5.3585,-5.3584,-5.3604,-5.3177,-5.2392,-5.0875,-4.8425,-4.5811,-4.5811,0.0,0.0,0.0,-4.0372,-4.0377,-4.1956,-4.2433,0.0,-4.324,-4.291,-4.2323,0.0,0.0,-4.6654,-4.9848,-5.3115,-5.6485,-6.0078,-6.2252,-6.4458,-6.787,-6.7045,-6.6213,-6.8109,-6.6739,-6.5779,-6.6999,-6.6795,-6.6942,-6.8268,-6.6528,-6.4993,-6.4654,-6.3205,-6.2551,0.0,-6.5743,-6.7513,-6.8398,-6.7667,-6.7552,-6.8359,-6.7628,-6.7936,-6.9667,-6.9706,-7.0129,-7.0898,-7.0898,-7.0514,-6.9706,-6.8859,-6.7975,-6.7051,-6.6282,-6.6359,-6.7128,-6.8013,-6.936,-7.086,-7.0898,-7.0898,-7.086,-7.0898,-7.0898,-7.086,-7.0821,-7.0821,-7.086,0.0,0.0,0.0,0.0,0.0,0.0,0.0,0.0,0.0,0.0,0.0,0.0,0.0,0.0,0.0,0.0,0.0,0.0,0.0,-2.8675,-3.1262,-3.3565,-3.6692,-3.8559,-3.9106,-4.1905,-4.3798,-4.453,-4.5808,-4.709,-4.8274,-4.8781,-4.956,-5.0541,-5.1014,-5.1522,-5.1995,-5.1995,-5.1995,-5.1894,-5.089,-5.0366,-4.9812,-4.6811,-4.3802,-4.0953,0.0,0.0,0.0,0.0,0.0,-3.6526,-3.8092,-3.8238,-3.819,-3.9836,-4.0891,-4.2103,0.0,0.0,-5.0729,-5.3959,-5.7189,-6.0173,-6.2583,-6.4402,-6.5679,-6.6116,-6.522,-6.4138,-6.346,-6.3032,-6.2882,-6.3329,-6.4879,-6.597,-6.5872,-6.5217,-6.3859,-6.1488,-6.1243,0.0,0.0,0.0,0.0,-6.6628,-6.6474,-6.6436,-6.6744,-6.6974,-6.7628,-6.8821,-6.8859,-6.9513,-7.0898,-7.036,-6.9975,-6.9667,-6.7705,-6.6859,-6.7051,-6.5667,-6.5513,-6.6359,-6.7782,-6.8744,-6.9283,-6.986,-7.009,-7.009,-7.009,-7.009,-7.0167,-7.0706,-7.0898,-7.0898,0.0,0.0,0.0,0.0,0.0,0.0,0.0,0.0,0.0,0.0,0.0,0.0,0.0,0.0,0.0,0.0,0.0,0.0,0.0,0.0,-2.8233,-3.0009,-3.2836,-3.4691,-3.5517,-3.7796,-3.9456,-4.0442,-4.1953,-4.318,-4.4181,-4.5362,-4.6428,-4.7463,-4.7872,-4.8635,-4.9627,-4.9342,-4.887,-4.8342,-4.709,-4.5974,-4.4688,-4.1474,-3.8565,0.0,0.0,0.0,0.0,0.0,0.0,-3.3916,-3.4939,-3.5914,-3.7098,-3.8993,-4.1111,-4.3718,-4.7755,-5.1022,-5.4069,-5.7299,-6.0089,-6.2401,-6.3759,-6.464,-6.488,-6.3803,-6.2352,-6.0729,-5.8929,-5.8076,-5.8043,-5.9244,-6.0912,-6.2362,-6.3322,-6.2938,-6.1927,-6.0142,-6.0165,-6.0242,0.0,0.0,0.0,-6.5282,-6.5705,-6.5897,-6.5897,-6.6397,-6.7205,-6.8359,-6.8398,-6.9206,-7.0898,-7.009,-6.9398,-6.8744,-6.6821,-6.6013,-6.6167,-6.5397,-6.5359,-6.5974,-6.7667,-6.8398,-6.8513,-6.9667,-6.9975,-6.9744,-7.0014,-7.0129,-7.0206,-7.0706,-7.0898,-7.0898,0.0,0.0,0.0,0.0,0.0,0.0,0.0,0.0,0.0,0.0,0.0,0.0,0.0,0.0,0.0,0.0,0.0,0.0,0.0,0.0,0.0,-2.6502,-2.851,-3.0526,-3.2563,-3.274,-3.3502,-3.498,-3.6291,-3.7718,-3.9202,-4.1058,-4.2767,-4.4185,-4.4065,-4.489,-4.6254,-4.553,-4.439,-4.3064,-4.2252,-4.029,-3.755,-3.525,0.0,0.0,0.0,0.0,0.0,0.0,0.0,0.0,0.0,-3.554,-3.9093,-4.0855,-4.3608,-4.6985,-5.1059,-5.3959,-5.6602,-5.9758,-6.1704,-6.3062,-6.387,-6.3319,-6.2339,-6.1087,-5.848,-5.5997,0.0,0.0,-5.1654,-5.5025,-5.5399,-5.6687,-6.08,-6.0074,-5.9534,0.0,0.0,0.0,0.0,0.0,0.0,-6.4551,0.0,-6.5859,-6.5974,-6.5974,-6.6705,-6.8359,-6.8321,-6.9129,-7.0898,-7.0052,-6.8783,-6.709,-6.6244,-6.5436,-6.4705,-6.5436,-6.582,-6.5974,-6.759,-6.8321,-6.8513,-7.0129,-7.036,-6.9821,-7.0552,-7.086,-7.0898,-7.0898,-7.086,-7.0821,0.0,0.0,0.0,0.0,0.0,0.0,0.0,0.0,0.0,0.0,0.0,0.0,0.0,0.0,0.0,0.0,0.0,0.0,0.0,0.0,0.0,0.0,0.0,0.0,0.0,0.0,0.0,0.0,0.0,-3.4071,-3.5467,-3.6013,-3.6927,-3.8181,-3.8181,-3.8923,-4.0189,-3.9951,-3.9665,-3.9208,0.0,-3.6874,-3.596,0.0,0.0,0.0,0.0,0.0,0.0,0.0,0.0,0.0,0.0,-3.752,-4.0267,-4.3681,-4.6581,-4.9517,-5.3555,-5.6859,-5.9648,-6.1704,-6.2989,-6.3649,-6.3246,-6.2034,-6.01,-5.6786,-5.3608,-5.0591,0.0,0.0,0.0,-5.1793,-5.5148,0.0,-6.0622,-6.1659,0.0,0.0,0.0,-6.2435,-6.2627,-6.3243,0.0,0.0,-6.5513,-6.5474,-6.6744,-6.6782,-6.7282,-6.8359,-6.7205,-6.7936,-7.086,-6.9475,-6.8167,-6.709,-6.5628,-6.5166,-6.5513,-6.4436,-6.4666,-6.5897,-6.6359,-6.7244,-6.8436,-6.8859,-6.9667,-7.0552,-7.0167,-7.036,-7.0898,-7.0898,-7.0514,-6.9948,0.0,0.0,0.0,0.0,0.0,0.0,0.0,0.0,0.0,0.0,0.0,0.0,0.0,0.0,0.0,0.0,0.0,0.0,0.0,0.0,0.0,0.0,0.0,0.0,0.0,0.0,0.0,0.0,0.0,0.0,0.0,-3.0704,-3.1966,-3.3168,-3.3401,-3.4419,-3.5881,-3.5572,0.0,0.0,0.0,0.0,0.0,0.0,0.0,0.0,0.0,0.0,0.0,0.0,0.0,-3.7154,-3.9094,-4.1275,-4.3864,-4.7902,0.0,-5.3482,-5.6822,-5.9832,-6.2071,-6.2218,-6.2622,-6.2401,-6.0162,-5.84,-5.5904,-5.1132,-4.8416,0.0,0.0,0.0,0.0,0.0,0.0,0.0,-5.8974,-6.0546,-6.1365,0.0,-6.2512,0.0,-6.382,-6.4666,-6.5705,0.0,-6.6244,-6.6282,-6.759,-6.7321,-6.7513,-6.8359,-6.7128,-6.7321,-6.9206,-6.8282,-6.7398,-6.6551,-6.5628,-6.5436,-6.5859,-6.4897,-6.4974,-6.5897,0.0,-6.6974,-6.7898,-6.8667,-6.9513,-7.036,-7.0283,-7.0514,-7.086,-7.0514,-6.9942,-6.9259,0.0,0.0,0.0,0.0,0.0,0.0,0.0,0.0,0.0,0.0,0.0,0.0,0.0,0.0,0.0,0.0,0.0,0.0,0.0,0.0,0.0,0.0,0.0,0.0,0.0,0.0,0.0,0.0,0.0,0.0,0.0,0.0,0.0,0.0,0.0,0.0,0.0,0.0,0.0,0.0,0.0,0.0,0.0,0.0,0.0,0.0,0.0,0.0,0.0,0.0,-3.7833,-3.903,-4.291,-4.581,-4.8563,-5.2527,-5.5244,-5.7483,-5.9905,-6.2218,-6.3539,-6.1998,-6.1337,-6.0089,-5.6161,-5.3702,-5.0729,-4.5333,0.0,-4.1809,-3.8909,0.0,-4.2121,-4.6068,0.0,-5.198,-5.7134,-5.8612,-5.9944,-6.2026,-6.2974,-6.3858,-6.4859,-6.5513,-6.6282,-6.7205,-6.7167,-6.7436,-6.8205,-6.7513,-6.7398,-6.8052,-6.7552,-6.7167,-6.6936,-6.7051,-6.6705,-6.5897,-6.5897,-6.5897,-6.5897,-6.5782,-6.5782,-6.5936,-6.6628,-6.7051,-6.7398,-6.9013,-6.9744,-6.9937,-7.0629,-7.0794,-7.0574,-6.9854,-6.9084,-6.835,0.0,0.0,0.0,0.0,0.0,0.0,0.0,0.0,0.0,0.0,-1.969,0.0,0.0,0.0,0.0,0.0,0.0,0.0,0.0,0.0,0.0,0.0,0.0,0.0,0.0,0.0,0.0,0.0,0.0,0.0,0.0,0.0,0.0,0.0,0.0,0.0,0.0,0.0,0.0,0.0,0.0,0.0,0.0,0.0,0.0,0.0,0.0,0.0,0.0,0.0,-3.9659,-4.3356,-4.6505,-4.915,-5.1793,-5.5207,-5.6932,-5.8327,-6.075,-6.2181,-6.2805,-6.1851,-6.0089,-5.774,-5.4399,-5.0288,0.0,0.0,0.0,-3.8138,-3.6927,-3.8832,0.0,-4.6452,0.0,0.0,0.0,0.0,-6.1118,0.0,0.0,0.0,0.0,0.0,0.0,0.0,0.0,-6.7167,-6.7321,-6.7167,-6.6859,-6.6359,-6.7513,-6.7513,-6.6128,-6.6782,-6.6705,-6.5897,-6.5897,-6.5897,-6.5859,-6.5166,-6.5205,-6.5897,-6.6051,0.0,-6.8244,-6.9283,-7.009,-7.0706,-7.086,-7.023,-6.9234,-6.9082,-6.7825,-6.6107,0.0,0.0,0.0,0.0,0.0,0.0,0.0,0.0,0.0,0.0,-1.969,-1.969,0.0,0.0,0.0,0.0,0.0,0.0,0.0,0.0,0.0,0.0,0.0,0.0,0.0,0.0,0.0,0.0,0.0,0.0,0.0,0.0,0.0,0.0,0.0,0.0,0.0,0.0,0.0,0.0,0.0,0.0,0.0,0.0,0.0,0.0,0.0,0.0,0.0,0.0,-3.8919,-4.3351,-4.8134,-5.1578,-5.4326,-5.6748,-5.829,-5.9575,-6.1153,-6.2511,-6.3062,-6.1374,-5.8841,-5.5574,-5.1059,0.0,0.0,0.0,0.0,-3.5936,-3.5165,0.0,0.0,0.0,0.0,0.0,0.0,0.0,0.0,0.0,0.0,0.0,0.0,0.0,0.0,0.0,0.0,-6.7282,-6.7744,-6.7359,-6.6744,-6.5936,-6.6667,-6.6705,-6.5897,-6.6282,-6.6282,-6.5897,-6.5897,-6.5897,-6.5897,-6.5474,-6.5513,-6.5897,-6.5897,0.0,-6.8436,-6.8859,-6.9744,-7.0871,-7.0593,-6.9833,-6.8798,-6.8101,-6.6711,-6.5137,0.0,0.0,0.0,0.0,0.0,0.0,0.0,-1.969,-1.969,-1.969,-1.969,-1.969,-1.969,-1.969,0.0,0.0,0.0,0.0,0.0,0.0,0.0,0.0,0.0,0.0,0.0,0.0,0.0,0.0,0.0,0.0,0.0,0.0,0.0,0.0,0.0,0.0,0.0,0.0,0.0,0.0,0.0,0.0,0.0,0.0,0.0,0.0,0.0,0.0,0.0,0.0,-3.6559,-4.0637,-4.6426,-5.1201,-5.4891,-5.63,-5.8107,-5.9832,-6.0823,-6.2181,-6.2768,-6.0456,-5.7336,-5.3408,-4.8086,-4.4085,0.0,0.0,-3.4844,-3.4578,-3.3917,0.0,0.0,0.0,0.0,0.0,0.0,0.0,0.0,0.0,0.0,0.0,0.0,0.0,0.0,0.0,0.0,0.0,-6.7821,-6.7205,-6.6551,-6.5897,-6.5897,-6.5897,-6.5897,-6.5897,-6.5897,-6.5897,-6.5897,-6.5782,-6.5628,-6.5628,-6.5628,-6.5628,-6.582,0.0,0.0,-6.859,-6.9498,-7.0681,-7.0266,-6.9344,-6.8144,-6.7049,-6.5731,-6.4345,0.0,0.0,0.0,0.0,0.0,0.0,0.0,-1.969,-1.969,-1.969,-1.969,-1.969,-1.969,-1.969,0.0,0.0,0.0,0.0,0.0,0.0,0.0,0.0,0.0,0.0,0.0,0.0,0.0,0.0,0.0,0.0,0.0,0.0,0.0,0.0,0.0,0.0,0.0,0.0,0.0,0.0,0.0,0.0,0.0,0.0,0.0,0.0,0.0,0.0,0.0,0.0,0.0,-3.5224,-3.8531,-4.5048,-5.1637,-5.2328,0.0,0.0,-5.9024,-6.0089,-6.0346,-5.8621,-5.5244,-5.1206,-4.6985,0.0,0.0,-3.554,-3.4431,-3.388,-3.3807,-3.4568,0.0,0.0,0.0,0.0,0.0,0.0,0.0,0.0,0.0,0.0,0.0,0.0,0.0,0.0,0.0,0.0,-6.6128,-6.6051,-6.5974,-6.5897,-6.5897,-6.5897,-6.5897,-6.5897,-6.5897,-6.5897,-6.5897,-6.5474,-6.4705,-6.4705,-6.4705,-6.4743,-6.5551,0.0,0.0,-6.9244,-6.9817,-7.0162,-7.0129,-6.8565,-6.6306,-6.6187,-6.4809,-6.2978,0.0,0.0,0.0,0.0,0.0,0.0,0.0,-1.969,-1.969,-1.969,-1.969,-1.969,-1.969,-1.969,-1.969,0.0,0.0,0.0,0.0,0.0,0.0,0.0,0.0,0.0,0.0,0.0,0.0,0.0,0.0,0.0,0.0,0.0,0.0,0.0,0.0,0.0,0.0,0.0,0.0,0.0,0.0,0.0,0.0,0.0,0.0,0.0,0.0,0.0,0.0,0.0,0.0,0.0,-3.1474,-3.6247,0.0,0.0,-5.1353,-5.4473,-5.7079,-5.9061,-6.0015,-5.84,-5.4987,-5.0802,-4.6214,0.0,0.0,-3.4174,-3.2926,-3.2485,-3.2999,-3.3366,-3.4228,0.0,0.0,0.0,0.0,0.0,0.0,0.0,0.0,0.0,0.0,0.0,0.0,0.0,0.0,0.0,-6.5897,-6.5897,-6.5897,-6.5897,-6.5897,-6.5897,-6.5897,-6.5897,-6.5897,-6.5897,-6.5897,-6.5436,-6.4589,-6.4589,-6.4589,-6.4628,-6.4974,0.0,0.0,-6.8097,-6.8608,-6.8868,-6.8558,-6.7466,-6.6015,-6.5197,-6.4009,-6.2805,0.0,0.0,0.0,0.0,0.0,0.0,-1.9369,-1.9617,-1.969,-1.969,-1.969,-1.969,-1.969,-1.969,-1.969,-1.969,0.0,0.0,0.0,0.0,0.0,0.0,0.0,0.0,0.0,0.0,0.0,0.0,0.0,0.0,0.0,0.0,0.0,0.0,0.0,0.0,0.0,0.0,0.0,0.0,0.0,0.0,0.0,0.0,0.0,0.0,0.0,0.0,0.0,0.0,0.0,0.0,0.0,0.0,0.0,0.0,-4.6911,-5.0839,-5.3849,-5.6602,-5.829,-5.6932,-5.3702,-4.9701,0.0,0.0,0.0,-3.3256,-3.1971,-3.1593,-3.2244,-3.25,-3.2989,0.0,0.0,-3.7178,0.0,0.0,0.0,0.0,0.0,0.0,0.0,0.0,0.0,0.0,0.0,0.0,-6.5513,-6.5282,-6.5243,-6.5513,-6.5282,-6.5243,-6.5513,-6.5513,-6.5628,-6.5897,-6.5628,-6.5051,-6.4205,-6.3974,-6.3858,-6.3858,-6.3988,0.0,0.0,-6.6759,-6.7202,-6.7447,-6.7091,-6.637,-6.5403,-6.4475,-6.3539,-6.2805,0.0,0.0,0.0,0.0,0.0,0.0,0.0,-1.9369,-1.969,-1.969,-1.969,-1.969,-1.969,-1.969,-1.969,-1.969,0.0,0.0,0.0,0.0,0.0,0.0,0.0,0.0,0.0,0.0,0.0,-2.0265,0.0,0.0,0.0,0.0,0.0,0.0,0.0,0.0,0.0,0.0,0.0,0.0,0.0,0.0,0.0,0.0,0.0,0.0,0.0,0.0,0.0,0.0,0.0,0.0,0.0,0.0,0.0,0.0,-4.0928,-4.6507,-4.9003,-5.2013,-5.4289,-5.3445,-5.0765,-4.7278,0.0,0.0,0.0,-3.3109,-3.1971,-3.1483,-3.1786,-3.2244,-3.2672,-3.2966,-3.6032,0.0,0.0,0.0,0.0,0.0,0.0,0.0,0.0,0.0,0.0,0.0,0.0,0.0,-6.4628,-6.382,-6.3743,-6.4589,-6.3782,-6.3743,-6.4628,-6.4628,-6.5051,-6.5897,-6.5013,-6.4166,-6.3281,-6.2474,-6.2127,-6.2166,0.0,0.0,0.0,-6.5499,-6.5827,-6.6135,-6.6097,-6.5319,-6.409,-6.409,-6.3539,-6.2805,0.0,0.0,0.0,0.0,0.0,0.0,0.0,-1.9617,-1.969,-1.969,-1.969,-1.969,-1.969,-1.969,-1.969,-1.969,0.0,0.0,0.0,0.0,0.0,0.0,0.0,0.0,0.0,0.0,0.0,-2.057,-2.175,-2.2798,0.0,0.0,0.0,0.0,0.0,0.0,0.0,0.0,0.0,0.0,0.0,0.0,0.0,0.0,0.0,0.0,0.0,0.0,0.0,0.0,0.0,0.0,0.0,0.0,0.0,0.0,0.0,0.0,-4.2983,-4.5333,-4.6764,-4.5957,-4.4562,-4.247,-3.8982,0.0,0.0,-3.1458,-3.032,-2.994,-3.0586,-3.087,-3.1703,-3.3987,-3.5843,0.0,0.0,0.0,0.0,0.0,0.0,0.0,0.0,0.0,0.0,0.0,0.0,0.0,-6.4628,-6.3782,-6.3435,-6.3705,-6.3435,-6.3435,-6.3705,-6.3705,-6.3858,-6.4128,-6.3858,-6.3281,-6.2474,-6.2204,-6.2089,0.0,0.0,0.0,0.0,-6.4697,-6.4919,-6.4734,-6.4734,-6.4475,-6.4016,-6.3429,-6.2695,-6.1998,0.0,0.0,0.0,0.0,0.0,0.0,0.0,-1.9442,-1.969,-1.969,-1.969,-1.969,-1.969,-1.969,-1.969,-1.969,0.0,0.0,0.0,0.0,0.0,0.0,0.0,0.0,0.0,0.0,-2.0601,-2.1239,-2.2505,-2.3687,-2.4769,-2.5614,-2.6251,0.0,0.0,0.0,0.0,0.0,0.0,0.0,0.0,0.0,-2.297,0.0,0.0,0.0,0.0,0.0,0.0,0.0,0.0,0.0,0.0,0.0,0.0,0.0,-2.8998,0.0,0.0,-4.023,-4.1625,-4.1442,-4.0561,0.0,0.0,0.0,0.0,0.0,-2.9586,-2.9278,-3.0167,-3.0618,-3.1589,-3.3994,-3.5614,0.0,0.0,0.0,0.0,0.0,0.0,0.0,0.0,0.0,0.0,0.0,0.0,0.0,-6.3705,-6.2964,-6.2452,-6.2106,-6.2246,-6.2512,-6.2858,-6.2858,-6.3012,-6.332,-6.2974,-6.2502,-6.1838,-6.1493,-6.1261,0.0,0.0,0.0,0.0,-6.3282,-6.359,-6.3613,-6.3613,-6.3613,-6.3503,-6.2658,-6.2218,-6.1998,0.0,0.0,0.0,0.0,0.0,0.0,0.0,0.0,0.0,0.0,-1.969,-1.969,-1.969,-1.969,-1.969,0.0,0.0,0.0,0.0,0.0,0.0,0.0,0.0,0.0,0.0,-2.0158,-2.0944,-2.2146,-2.3391,-2.458,-2.5713,-2.6556,-2.686,-2.6759,0.0,0.0,0.0,0.0,0.0,0.0,0.0,0.0,0.0,0.0,0.0,0.0,0.0,0.0,0.0,0.0,0.0,0.0,0.0,0.0,0.0,0.0,0.0,0.0,0.0,0.0,0.0,0.0,0.0,0.0,0.0,0.0,0.0,0.0,0.0,0.0,0.0,-3.1241,-3.2147,-3.3481,0.0,0.0,0.0,0.0,0.0,0.0,0.0,0.0,0.0,0.0,0.0,0.0,0.0,0.0,-6.2142,-6.1639,-6.0951,-6.0074,-6.0482,-6.1118,-6.195,-6.1925,-6.231,-6.304,-6.2271,-6.167,-6.1217,-6.0417,-5.9823,0.0,0.0,0.0,0.0,-6.1429,-6.2034,-6.2732,-6.2732,-6.2768,-6.2695,-6.1887,-6.2071,-6.2622,0.0,0.0,0.0,0.0,0.0,0.0,0.0,0.0,0.0,0.0,0.0,-1.969,-1.969,-1.969,0.0,0.0,0.0,0.0,0.0,0.0,0.0,0.0,0.0,0.0,0.0,-2.0599,-2.1499,-2.2847,-2.4414,-2.5748,-2.677,-2.8471,-2.8687,-2.7571,-2.7571,0.0,0.0,0.0,0.0,0.0,0.0,0.0,0.0,0.0,0.0,0.0,-2.3259,-2.3961,0.0,0.0,0.0,0.0,0.0,0.0,0.0,0.0,-2.4483,-2.5071,-2.7824,0.0,-3.054,-3.1384,-3.1751,0.0,0.0,0.0,0.0,0.0,0.0,0.0,0.0,0.0,0.0,0.0,0.0,0.0,0.0,0.0,0.0,0.0,0.0,0.0,0.0,0.0,0.0,0.0,0.0,-6.2615,-6.1621,-6.1109,-6.0467,-5.9597,-5.9658,-6.003,-6.0551,-6.022,-6.0297,-6.0856,-6.0297,-5.9961,-5.9862,-5.9673,-5.9492,0.0,0.0,0.0,-6.0269,-6.1208,-6.1704,-6.1887,-6.1887,-6.2254,-6.2695,-6.1887,-6.1704,-6.1777,0.0,0.0,0.0,0.0,0.0,0.0,0.0,0.0,0.0,0.0,0.0,0.0,0.0,0.0,0.0,0.0,0.0,0.0,0.0,0.0,0.0,0.0,0.0,0.0,0.0,-2.0764,-2.1794,-2.3482,-2.4545,-2.5882,-2.7414,-2.8508,-2.8619,-2.7772,-2.7469,0.0,0.0,0.0,0.0,0.0,-2.2462,0.0,0.0,0.0,0.0,0.0,-2.3566,-2.4085,0.0,-2.4298,-2.4483,-2.4777,0.0,0.0,0.0,0.0,-2.419,-2.4557,-2.6172,-2.7457,-2.8631,-2.9806,-3.043,-3.065,0.0,0.0,0.0,0.0,0.0,0.0,0.0,0.0,0.0,0.0,0.0,0.0,0.0,0.0,0.0,0.0,0.0,0.0,0.0,0.0,0.0,0.0,0.0,-6.1761,-6.0551,-6.041,-6.0004,-5.9103,-5.9065,-5.9284,-5.9792,-5.9526,-5.9526,-5.9792,-5.9526,-5.9284,-5.9065,-5.9065,-5.899,0.0,0.0,0.0,-5.9627,-6.0267,-6.0933,-6.1594,-6.1594,-6.1851,-6.2144,-6.1337,-6.1043,-6.0933,0.0,0.0,0.0,0.0,0.0,0.0,0.0,0.0,0.0,0.0,0.0,0.0,0.0,0.0,0.0,0.0,0.0,0.0,0.0,0.0,0.0,0.0,0.0,0.0,-2.0398,-2.0797,-2.1989,-2.4016,-2.4538,-2.5913,-2.801,-2.8349,-2.8383,-2.8112,-2.7131,0.0,0.0,0.0,0.0,0.0,-2.2587,0.0,0.0,0.0,0.0,0.0,0.0,0.0,0.0,-2.4226,-2.4373,-2.452,-2.4263,0.0,0.0,0.0,0.0,0.0,-2.6465,-2.8205,-2.9782,-3.0797,-3.1311,-3.1531,0.0,0.0,0.0,0.0,0.0,0.0,0.0,0.0,0.0,0.0,0.0,0.0,0.0,0.0,0.0,0.0,0.0,0.0,0.0,0.0,0.0,0.0,0.0,-6.0789,-5.9359,-5.9547,-5.9376,-5.8628,-5.8673,-5.8799,-5.9095,-5.9095,-5.9131,-5.9201,-5.8947,-5.8615,-5.8219,-5.8219,-5.8005,-5.7629,0.0,0.0,-5.8841,-5.8988,-5.9905,-6.1227,-6.1227,-6.13,-6.13,-6.0529,-6.0309,-6.0272,0.0,0.0,0.0,0.0,0.0,0.0,0.0,0.0,0.0,0.0,0.0,0.0,0.0,0.0,0.0,0.0,0.0,0.0,0.0,0.0,0.0,0.0,0.0,0.0,0.0,0.0,0.0,-2.443,0.0,0.0,-2.8856,-3.0717,-3.092,-2.9668,-2.7604,-2.5947,-2.4594,-2.3883,-2.3139,-2.2491,-2.2588,0.0,0.0,0.0,0.0,0.0,0.0,0.0,0.0,-2.441,-2.5107,-2.5988,-2.463,0.0,0.0,0.0,0.0,0.0,-2.7824,-3.0296,-3.1641,-2.9843,-3.0907,-3.2082,-3.0687,0.0,0.0,0.0,0.0,0.0,0.0,0.0,0.0,0.0,0.0,0.0,0.0,0.0,0.0,0.0,0.0,0.0,0.0,0.0,0.0,0.0,0.0,-5.9057,-5.8796,-5.8523,-5.8244,-5.8097,-5.8503,-5.8381,-5.7711,-5.775,-5.7978,-5.837,-5.692,-5.6123,-5.6073,-5.6073,-5.6029,-5.5978,0.0,-5.6418,-5.7226,-5.7886,-5.8731,-5.9575,-5.9575,-5.9979,-6.0493,-5.9685,-5.9832,-6.0272,0.0,0.0,0.0,0.0,0.0,0.0,0.0,0.0,0.0,0.0,0.0,0.0,0.0,0.0,0.0,0.0,0.0,0.0,0.0,0.0,0.0,0.0,0.0,0.0,0.0,0.0,0.0,0.0,0.0,-2.7672,-2.96,-3.0209,-3.0142,-2.9397,-2.7537,-2.6082,-2.5033,-2.4289,-2.3663,-2.3144,0.0,0.0,0.0,0.0,0.0,0.0,0.0,0.0,0.0,0.0,-2.4961,-2.5731,-2.4557,0.0,0.0,0.0,0.0,0.0,-2.7714,-2.9806,-3.1127,-3.0467,-3.2779,-3.4853,-3.3389,0.0,0.0,0.0,0.0,0.0,0.0,0.0,0.0,0.0,0.0,0.0,0.0,0.0,0.0,0.0,0.0,0.0,0.0,0.0,0.0,0.0,0.0,0.0,-5.8326,-5.8097,-5.7997,-5.7997,-5.8713,-5.8653,-5.779,-5.7414,-5.7189,-5.7116,-5.6071,-5.5574,-5.5574,-5.5574,-5.5574,-5.5574,0.0,-5.5794,-5.6198,-5.7005,-5.785,-5.8584,-5.9061,-5.9428,-5.9648,-5.8841,-5.8804,-5.9061,0.0,0.0,0.0,0.0,0.0,0.0,0.0,0.0,0.0,0.0,0.0,0.0,0.0,0.0,0.0,0.0,0.0,0.0,0.0,0.0,0.0,0.0,0.0,0.0,0.0,0.0,-2.3947,-2.5879,-2.6793,-2.8213,-3.0108,-2.9499,-2.9132,-2.8832,0.0,-2.6351,-2.57,-2.4951,-2.4447,-2.4116,0.0,0.0,0.0,0.0,0.0,0.0,0.0,0.0,0.0,0.0,0.0,0.0,0.0,0.0,0.0,-2.5658,-2.5658,-2.6062,-2.786,-2.9402,-3.0687,-3.1494,0.0,-3.6499,-3.6059,0.0,0.0,0.0,0.0,0.0,0.0,0.0,0.0,0.0,0.0,0.0,0.0,0.0,0.0,0.0,0.0,0.0,0.0,0.0,0.0,0.0,0.0,0.0,-5.7997,-5.7813,-5.7703,-5.7703,-5.8348,-5.8234,-5.7406,-5.6801,-5.6396,-5.6071,-5.5364,-5.5023,-5.5023,-5.5023,-5.5023,-5.5023,-5.5023,-5.5133,-5.5354,-5.5978,-5.6822,-5.7776,-5.84,-5.8767,-5.8841,-5.8217,-5.7997,-5.7997,0.0,0.0,0.0,0.0,0.0,0.0,0.0,0.0,0.0,0.0,0.0,0.0,0.0,0.0,0.0,0.0,0.0,0.0,0.0,0.0,0.0,0.0,0.0,0.0,0.0,-2.3194,-2.4746,-2.6623,-2.8112,-2.9262,-3.0108,-3.0074,-2.9481,-2.8384,0.0,-2.6514,-2.6095,-2.5363,-2.5045,-2.499,-2.4837,0.0,0.0,0.0,0.0,0.0,0.0,0.0,0.0,0.0,0.0,0.0,0.0,0.0,-2.6502,-2.6502,-2.6502,-2.7016,-2.9402,-3.065,-3.1494,-3.2302,-3.3293,0.0,-3.6875,-3.7904,0.0,0.0,0.0,0.0,0.0,0.0,0.0,0.0,0.0,0.0,0.0,0.0,0.0,0.0,0.0,0.0,0.0,0.0,0.0,0.0,0.0,0.0,-5.7997,-5.7299,-5.6895,-5.6895,-5.6651,-5.6107,-5.5212,-5.5212,-5.5394,-5.5734,-5.416,-5.3371,-5.3371,-5.3371,-5.3371,-5.3371,-5.3371,-5.3812,-5.4473,-5.4546,-5.55,-5.6895,-5.6969,-5.7446,-5.807,-5.8033,-5.7997,-5.7997,0.0,0.0,0.0,0.0,0.0,0.0,0.0,0.0,0.0,0.0,0.0,0.0,0.0,0.0,0.0,0.0,0.0,0.0,0.0,0.0,0.0,0.0,0.0,-2.1472,-2.2475,-2.3649,-2.531,-2.7402,-2.8924,-2.9714,-2.9728,-2.9248,0.0,0.0,0.0,-2.7372,-2.7203,-2.6458,-2.6242,-2.6381,-2.5841,-2.547,0.0,0.0,0.0,0.0,0.0,0.0,0.0,0.0,-2.474,-2.5311,0.0,-2.5548,-2.6612,-2.6612,-2.6943,-2.764,-2.9072,-3.0393,-3.1568,-3.2412,0.0,0.0,0.0,0.0,0.0,0.0,0.0,0.0,0.0,0.0,0.0,0.0,0.0,0.0,0.0,0.0,0.0,0.0,0.0,0.0,0.0,0.0,0.0,0.0,0.0,0.0,-5.6492,-5.6198,-5.6051,-5.6051,-5.624,-5.5883,-5.5025,-5.4578,-5.4166,-5.3746,-5.3373,-5.3225,-5.3225,-5.3225,-5.3225,-5.3225,-5.3225,-5.3371,-5.3702,-5.4179,-5.4766,-5.5427,-5.6418,-5.7299,-5.7997,-5.7997,-5.7997,-5.7997,0.0,0.0,0.0,0.0,0.0,0.0,0.0,0.0,0.0,0.0,0.0,0.0,0.0,0.0,0.0,0.0,0.0,0.0,0.0,0.0,0.0,0.0,0.0,-2.1725,-2.2917,-2.3728,-2.5236,-2.7469,-2.9102,-2.9658,-2.9142,0.0,0.0,0.0,0.0,0.0,-2.8378,-2.7629,-2.7404,-2.7536,-2.6897,-2.6461,0.0,0.0,0.0,0.0,0.0,0.0,0.0,0.0,-2.4557,0.0,0.0,0.0,0.0,-2.72,-2.7567,-2.797,-2.8778,-2.9622,-3.0625,0.0,0.0,0.0,0.0,0.0,0.0,0.0,0.0,0.0,0.0,0.0,0.0,0.0,0.0,0.0,0.0,0.0,0.0,0.0,0.0,0.0,0.0,0.0,0.0,0.0,0.0,0.0,0.0,-5.5354,-5.5207,-5.5207,-5.5299,-5.4904,-5.4088,-5.3532,-5.2865,-5.2048,-5.2287,-5.2601,-5.2821,-5.2564,-5.2601,-5.2821,-5.2821,-5.2821,-5.2858,-5.3408,-5.3775,-5.4216,-5.6088,-5.7152,-5.7666,-5.7923,-5.7997,-5.7997,0.0,0.0,0.0,0.0,0.0,0.0,0.0,0.0,0.0,0.0,0.0,0.0,0.0,0.0,0.0,0.0,0.0,0.0,0.0,0.0,0.0,0.0,0.0,-2.2156,-2.3376,-2.341,-2.4458,-2.6657,-2.8561,-2.9073,-2.838,-2.882,0.0,0.0,0.0,0.0,-2.9547,-2.8727,-2.8402,-2.8391,-2.7967,-2.7787,-2.7603,0.0,0.0,0.0,0.0,0.0,0.0,0.0,-2.419,0.0,0.0,0.0,0.0,-2.8498,-2.8448,-2.797,-2.8778,-2.8448,0.0,0.0,0.0,0.0,0.0,0.0,0.0,0.0,0.0,0.0,0.0,0.0,0.0,0.0,0.0,0.0,0.0,0.0,0.0,0.0,0.0,0.0,0.0,0.0,0.0,0.0,0.0,0.0,0.0,-5.4803,-5.4363,-5.4363,-5.3592,-5.2784,-5.1977,-5.1977,-5.1573,-5.0802,-5.0765,-5.1206,-5.194,-5.1169,-5.1242,-5.1977,-5.1977,-5.1977,-5.1977,-5.1977,-5.2454,-5.3445,-5.5831,-5.6785,-5.6895,-5.7703,-5.7997,-5.7997,0.0,0.0,0.0,0.0,0.0,0.0,0.0,0.0,0.0,0.0,0.0,0.0,0.0,0.0,0.0,0.0,0.0,0.0,0.0,0.0,0.0,0.0,0.0,0.0,0.0,0.0,-2.3985,-2.5135,-2.6982,-2.7674,0.0,0.0,0.0,-2.9186,0.0,0.0,-2.915,-2.8931,-2.8797,-2.8821,-2.8695,-2.8301,-2.7677,0.0,0.0,0.0,0.0,0.0,0.0,0.0,0.0,0.0,0.0,0.0,0.0,-2.786,-2.8374,-2.8705,-2.8938,0.0,0.0,0.0,0.0,0.0,0.0,0.0,0.0,0.0,0.0,0.0,0.0,0.0,0.0,0.0,0.0,0.0,0.0,0.0,0.0,0.0,0.0,0.0,0.0,0.0,0.0,0.0,0.0,0.0,0.0,-5.2601,-5.2123,-5.2674,-5.194,-5.1389,-5.1169,-5.0582,-5.0178,-4.9958,-4.9334,-4.9774,-5.1169,-5.0912,-5.0949,-5.1169,-5.1169,-5.1169,-5.1169,-5.1169,-5.1977,-5.3298,-5.3995,-5.5317,-5.6822,-5.7079,-5.7519,-5.7997,0.0,0.0,0.0,0.0,0.0,0.0,0.0,0.0,0.0,0.0,0.0,0.0,0.0,0.0,0.0,0.0,0.0,0.0,0.0,0.0,0.0,0.0,0.0,0.0,0.0,-2.3147,-2.3676,0.0,0.0,0.0,0.0,0.0,0.0,-2.9953,0.0,-2.9365,0.0,-2.9269,-2.8975,-2.8975,-2.8975,-2.8705,-2.8191,0.0,0.0,0.0,0.0,0.0,0.0,0.0,0.0,0.0,0.0,0.0,0.0,-2.7567,-2.8154,-2.8521,-2.8521,0.0,0.0,0.0,0.0,0.0,0.0,0.0,0.0,0.0,0.0,0.0,0.0,0.0,0.0,0.0,0.0,0.0,0.0,0.0,0.0,0.0,0.0,0.0,0.0,0.0,0.0,0.0,0.0,0.0,0.0,-5.1353,-5.1022,-5.1499,-5.1059,-5.0655,-5.0325,-4.9481,-4.893,-4.86,-4.8086,-4.8343,-4.9334,-4.9664,-4.9994,-5.0325,-5.0288,-5.0288,-5.0362,-5.0655,-5.1169,-5.1867,-5.2821,-5.4106,-5.55,-5.6455,-5.7116,-5.7556,0.0,0.0,0.0,0.0,0.0,0.0,0.0,0.0,0.0,0.0,0.0,0.0,0.0,0.0,0.0,0.0,0.0,0.0,0.0,0.0,0.0,0.0,0.0,0.0,0.0,0.0,0.0,0.0,0.0,0.0,0.0,0.0,-2.8962,-3.1201,0.0,-2.9843,-3.1201,-2.9659,-2.8975,-2.8975,-2.8975,-2.8975,-2.8902,-2.8117,0.0,0.0,0.0,0.0,0.0,0.0,0.0,0.0,0.0,0.0,-2.6869,-2.7677,-2.7897,-2.7934,0.0,0.0,0.0,0.0,0.0,0.0,0.0,0.0,0.0,0.0,0.0,0.0,0.0,0.0,0.0,0.0,0.0,0.0,0.0,0.0,0.0,0.0,0.0,0.0,0.0,0.0,0.0,0.0,0.0,0.0,0.0,-5.0655,-5.0582,-5.0582,-5.0508,-5.0068,-4.926,-4.8489,-4.7719,-4.7021,-4.7021,-4.7021,-4.7021,-4.7829,-4.8636,-4.937,-4.9297,-4.9297,-4.9407,-5.0178,-5.0068,-4.9701,-5.1977,-5.3004,-5.3482,-5.5684,-5.6565,-5.6822,0.0,0.0,0.0,0.0,0.0,0.0,0.0,0.0,0.0,0.0,0.0,0.0,0.0,0.0,0.0,0.0,0.0,0.0,0.0,0.0,0.0,0.0,0.0,0.0,0.0,0.0,0.0,0.0,0.0,0.0,0.0,0.0,0.0,-3.043,0.0,-2.9549,-3.0393,-2.9439,-2.8975,-2.8975,-2.8975,-2.8975,-2.8902,-2.8117,-2.7787,0.0,0.0,0.0,0.0,0.0,0.0,0.0,-2.7273,-2.753,-2.7714,-2.8521,-2.8741,0.0,0.0,0.0,0.0,0.0,0.0,0.0,0.0,0.0,0.0,0.0,0.0,0.0,0.0,0.0,0.0,0.0,0.0,0.0,0.0,0.0,0.0,0.0,0.0,0.0,0.0,0.0,0.0,0.0,0.0,0.0,-5.0765,-4.9554,-4.8857,-4.8857,-4.8233,-4.7535,-4.6691,-4.6507,-4.6324,0.0,-4.6177,-4.6177,-4.6177,-4.6985,-4.7462,-4.7645,-4.7645,-4.7645,-4.7645,-4.7829,-4.8196,-4.871,-4.9884,-5.1536,-5.3261,-5.3775,-5.4766,-5.5868,0.0,0.0,0.0,0.0,0.0,0.0,0.0,0.0,0.0,0.0,0.0,0.0,0.0,0.0,0.0,0.0,0.0,0.0,0.0,0.0,0.0,0.0,0.0,0.0,0.0,0.0,0.0,0.0,0.0,0.0,0.0,0.0,0.0,-3.0723,0.0,-3.0026,-3.0687,-2.9512,-2.8975,-2.8975,-2.8975,-2.8975,-2.8938,-2.8521,-2.8374,-2.8338,-2.7897,0.0,0.0,0.0,0.0,0.0,0.0,0.0,-2.786,-2.8301,-2.8705,-2.9012,0.0,0.0,0.0,0.0,0.0,0.0,0.0,0.0,0.0,0.0,0.0,0.0,0.0,0.0,0.0,0.0,0.0,0.0,0.0,0.0,0.0,0.0,0.0,0.0,0.0,0.0,0.0,0.0,0.0,-4.8159,-4.9003,-4.7829,-4.7168,-4.7168,-4.6728,-4.6324,-4.5883,-4.5516,-4.5333,-4.5333,-4.5333,-4.5333,-4.5369,-4.6177,-4.6544,-4.6544,-4.6544,-4.6544,-4.6544,-4.6544,-4.6764,-4.7278,-4.8489,-4.9738,-5.1059,-5.2637,-5.3739,-5.4546,0.0,0.0,0.0,0.0,0.0,0.0,0.0,0.0,0.0,0.0,0.0,0.0,0.0,0.0,0.0,0.0,0.0,0.0,0.0,0.0,0.0,0.0,0.0,0.0,0.0,0.0,0.0,0.0,0.0,0.0,0.0,0.0,0.0,-3.1347,0.0,-3.0834,-3.1494,-2.9879,-2.9269,-2.9402,-2.9085,-2.9085,-2.9219,-2.9049,-2.8975,-2.8975,-2.8975,-2.8975,-2.8902,-2.8227,0.0,0.0,0.0,0.0,-2.8007,-2.8007,-2.8484,-2.8888,0.0,0.0,0.0,0.0,0.0,0.0,0.0,0.0,0.0,0.0,0.0,0.0,0.0,0.0,0.0,0.0,0.0,0.0,0.0,0.0,0.0,0.0,0.0,0.0,0.0,0.0,0.0,0.0,0.0,-4.6177,-4.6874,-4.625,-4.5847,-4.57,-4.57,-4.5626,-4.548,-4.4819,-4.4488,-4.4488,-4.4488,-4.4488,-4.4525,-4.5186,-4.5553,-4.57,-4.57,-4.57,-4.57,-4.57,-4.57,-4.5847,-4.7315,-4.7976,-4.8453,-5.1316,-5.2454,-5.2821,0.0,0.0,0.0,0.0,0.0,0.0,0.0,0.0,0.0,0.0,0.0,0.0,0.0,0.0,0.0,0.0,0.0,0.0,-2.2327,0.0,0.0,-2.3117,-2.3477,-2.3631,0.0,0.0,0.0,0.0,0.0,0.0,0.0,0.0,0.0,-3.1384,0.0,0.0,-3.2339,-3.0723,-3.043,-3.0944,-2.9586,-2.9439,-2.9953,-2.9269,-2.8975,-2.8975,-2.8975,-2.8975,-2.8975,-2.8865,-2.8851,0.0,0.0,0.0,-2.8851,-2.8851,-2.8925,0.0,0.0,0.0,0.0,0.0,0.0,0.0,0.0,0.0,0.0,0.0,0.0,0.0,0.0,0.0,0.0,0.0,0.0,0.0,0.0,0.0,0.0,0.0,0.0,0.0,0.0,0.0,0.0,0.0,-4.6104,-4.5957,-4.6067,-4.5957,-4.559,-4.4892,-4.4856,-4.4525,-4.3828,-4.3718,-4.3644,-4.3644,-4.3644,-4.3644,-4.3644,-4.3754,-4.4195,-4.4856,-4.4856,-4.4856,-4.4856,-4.4856,-4.4856,-4.4966,-4.5847,-4.6654,-4.7425,-4.8563,-4.9444,-5.0288,0.0,0.0,0.0,0.0,0.0,0.0,0.0,0.0,0.0,0.0,0.0,0.0,0.0,0.0,0.0,-2.2327,-2.2327,-2.2377,-2.2527,-2.2617,-2.2947,-2.3477,-2.4042,-2.4447,-2.4652,0.0,0.0,0.0,0.0,0.0,0.0,-3.0369,-3.1641,0.0,0.0,0.0,0.0,0.0,0.0,-3.1347,-3.0613,0.0,0.0,-3.032,-2.9769,-2.9122,-3.0026,-2.9769,-2.9049,-2.9512,-2.9365,-2.8975,-2.8975,0.0,0.0,0.0,-2.8975,0.0,0.0,0.0,0.0,0.0,0.0,0.0,0.0,0.0,0.0,0.0,0.0,0.0,0.0,0.0,0.0,0.0,0.0,0.0,0.0,0.0,0.0,0.0,0.0,0.0,0.0,0.0,0.0,0.0,-4.5039,-4.4745,-4.5223,-4.4782,-4.4378,-4.4048,-4.4011,-4.3864,-4.3497,-4.3497,-4.3497,-4.3497,-4.3497,-4.3497,-4.3497,-4.3497,-4.3681,-4.4011,-4.4011,-4.4011,-4.4011,-4.4011,-4.4011,-4.4121,-4.4929,-4.5443,-4.592,-4.7168,-4.7865,-4.8416,0.0,0.0,0.0,0.0,0.0,0.0,0.0,0.0,0.0,0.0,0.0,0.0,0.0,0.0,0.0,0.0,-2.2327,-2.2453,-2.2797,-2.2822,-2.3117,-2.3795,-2.449,-2.499,-2.5241,0.0,0.0,0.0,0.0,0.0,-2.9515,-3.1627,-3.3093,0.0,-3.4293,0.0,0.0,0.0,0.0,0.0,0.0,0.0,0.0,-3.0723,-3.0173,-2.9475,-3.065,-3.0467,-2.9696,-3.0283,-2.9989,-2.9329,-2.9329,-2.9159,0.0,0.0,0.0,0.0,0.0,0.0,0.0,0.0,0.0,0.0,0.0,0.0,0.0,0.0,0.0,0.0,0.0,0.0,0.0,0.0,0.0,0.0,0.0,0.0,0.0,0.0,0.0,0.0,0.0,0.0,0.0,0.0,-4.4158,-4.3754,-4.4378,-4.3644,-4.3204,-4.3204,-4.3204,-4.3204,-4.3204,-4.3204,-4.3204,-4.3204,-4.3204,-4.3204,-4.3204,-4.3387,-4.3497,-4.3497,-4.3497,-4.3497,-4.3497,-4.3497,-4.3497,-4.3534,-4.4158,-4.4415,-4.4562,-4.5993,-4.6507,-4.6728,0.0,0.0,0.0,0.0,0.0,0.0,0.0,0.0,0.0,0.0,0.0,0.0,-2.2327,-2.2327,-2.2327,-2.2327,-2.2327,-2.2561,-2.3141,-2.3165,-2.3477,-2.4151,-2.4556,0.0,-2.482,-2.6071,0.0,0.0,0.0,0.0,-3.072,-3.2009,-3.325,-3.4418,-3.5645,-3.5275,-3.3807,0.0,0.0,0.0,0.0,0.0,0.0,0.0,-2.9549,-3.0136,-3.0246,-3.0687,-3.1274,-3.1311,-3.0797,-3.0136,-3.0136,-2.9622,-2.8975,0.0,0.0,0.0,0.0,0.0,0.0,0.0,0.0,0.0,0.0,0.0,0.0,0.0,0.0,0.0,0.0,0.0,0.0,0.0,0.0,0.0,0.0,0.0,0.0,0.0,0.0,0.0,0.0,0.0,0.0,0.0,-4.3534,-4.3497,-4.3534,-4.28,-4.2359,-4.2359,-4.2359,-4.2359,-4.2359,-4.2359,-4.2359,-4.2359,-4.2359,-4.2359,-4.2396,-4.313,-4.3497,-4.3497,-4.3497,-4.3497,-4.3497,-4.3497,-4.3497,-4.3497,-4.3534,-4.3534,-4.3644,-4.4525,-4.4819,-4.5076,0.0,0.0,0.0,0.0,0.0,0.0,0.0,0.0,0.0,0.0,0.0,0.0,0.0,-2.2327,-2.2327,-2.2327,-2.2327,-2.2658,-2.3589,-2.365,-2.4065,-2.498,-2.5668,-2.6019,-2.6019,-2.6969,0.0,0.0,0.0,-2.8877,-3.0446,-3.1707,-3.2762,-3.3665,-3.4921,-3.5128,-3.4541,-3.4027,0.0,0.0,0.0,0.0,0.0,0.0,0.0,0.0,0.0,0.0,0.0,-3.2008,-3.1641,-3.098,-3.098,-3.076,-3.054,-3.054,-2.9806,-2.9085,-2.9622,0.0,0.0,0.0,0.0,0.0,0.0,0.0,0.0,0.0,0.0,0.0,0.0,0.0,0.0,0.0,0.0,0.0,0.0,0.0,0.0,0.0,0.0,0.0,0.0,0.0,0.0,0.0,0.0,-4.2727,-4.2727,-4.1992,-4.1552,-4.1552,-4.1552,-4.1552,-4.1552,-4.1552,-4.1552,-4.1552,-4.1552,-4.1552,-4.1552,-4.2359,-4.2727,-4.2763,-4.3277,-4.3497,-4.3497,-4.3497,-4.3497,-4.3497,-4.3497,-4.3497,-4.3534,-4.3828,-4.3938,-4.4085,0.0,0.0,0.0,0.0,0.0,0.0,0.0,0.0,0.0,0.0,0.0,0.0,0.0,0.0,-2.2767,-2.3004,-2.3038,-2.3414,-2.4199,-2.4261,-2.4669,-2.5456,-2.6149,-2.6514,-2.6514,-2.7163,0.0,0.0,0.0,0.0,0.0,-3.0868,-3.1864,-3.2655,-3.3873,-3.4467,0.0,0.0,0.0,-3.377,0.0,0.0,-3.3073,0.0,0.0,0.0,0.0,0.0,0.0,0.0,-3.2485,-3.1788,-3.1788,-3.1604,-3.1384,-3.1384,-3.065,-2.9879,-3.0136,0.0,0.0,0.0,0.0,0.0,0.0,0.0,0.0,0.0,0.0,0.0,0.0,0.0,0.0,0.0,0.0,0.0,0.0,0.0,0.0,0.0,0.0,0.0,0.0,0.0,0.0,0.0,0.0,0.0,-4.1643,-4.1046,-4.0708,-4.0708,-4.0451,-4.0414,-4.0708,-4.0157,-4.0047,-4.0304,-4.0304,-4.0451,-4.0744,-4.1552,-4.1919,-4.1956,-4.2763,-4.324,-4.3497,-4.3497,-4.3497,-4.3497,-4.3497,-4.3497,-4.3497,-4.3497,-4.3497,-4.3571,0.0,0.0,0.0,0.0,0.0,0.0,0.0,0.0,0.0,-2.2327,0.0,0.0,0.0,0.0,0.0,-2.4455,-2.4523,-2.4675,-2.4965,-2.5029,-2.5171,-2.55,-2.5901,-2.6139,-2.6139,-2.6516,0.0,0.0,0.0,0.0,0.0,0.0,-3.0623,0.0,-3.2655,-3.3437,-3.3844,0.0,-3.4541,-3.377,0.0,-3.312,-3.3844,0.0,0.0,0.0,-3.499,-3.5027,0.0,-3.41,0.0,0.0,0.0,-3.2082,-3.1421,-3.1458,-3.1421,-3.1237,0.0,0.0,0.0,0.0,0.0,0.0,0.0,0.0,0.0,0.0,0.0,0.0,0.0,0.0,0.0,0.0,0.0,0.0,0.0,0.0,0.0,0.0,0.0,0.0,0.0,0.0,0.0,0.0,-4.1005,-4.0802,-4.0239,-3.9929,-3.979,-3.979,-3.9056,-3.9019,-3.979,-3.8212,-3.7845,-3.8652,-3.8652,-3.9093,-3.99,-4.0708,-4.1075,-4.1111,-4.1919,-4.2727,-4.3461,-4.3497,-4.3497,-4.3497,-4.3497,-4.3497,-4.3497,-4.3497,-4.3497,-4.3497,0.0,0.0,0.0,0.0,0.0,0.0,0.0,0.0,0.0,0.0,0.0,0.0,-2.4154,-2.4218,-2.4286,-2.4489,-2.4523,-2.4791,-2.5394,-2.5428,-2.5698,-2.6336,-2.6447,-2.6551,-2.6551,-2.6656,0.0,0.0,0.0,0.0,0.0,0.0,0.0,0.0,-3.2906,-3.3437,-3.3807,-3.4027,0.0,0.0,-3.4055,-3.4186,0.0,0.0,0.0,0.0,0.0,-3.5422,-3.5826,0.0,-3.4513,-3.422,0.0,0.0,-3.2375,-3.2963,-3.2302,-3.1458,-3.1861,0.0,0.0,0.0,0.0,0.0,0.0,0.0,0.0,0.0,0.0,0.0,0.0,0.0,0.0,0.0,0.0,0.0,0.0,0.0,0.0,0.0,0.0,0.0,0.0,0.0,0.0,0.0,-3.9483,-3.8866,-3.7817,-3.7447,-3.7294,-3.7294,-3.7074,-3.7074,-3.7294,-3.6853,-3.7037,-3.7808,-3.7808,-3.8248,-3.9056,-3.9863,-4.023,-4.0267,-4.1075,-4.1882,-4.269,-4.324,-4.3497,-4.3497,-4.3497,-4.3497,-4.3497,-4.3497,-4.3497,-4.3497,0.0,0.0,0.0,0.0,0.0,0.0,0.0,-2.3376,-2.3849,0.0,0.0,0.0,-2.4932,-2.5507,-2.5879,-2.5879,-2.5879,-2.6048,-2.6488,-2.6251,-2.6251,-2.6657,-2.6691,-2.6691,-2.6691,-2.6996,0.0,0.0,0.0,0.0,0.0,0.0,0.0,0.0,0.0,0.0,0.0,0.0,0.0,0.0,-3.455,0.0,0.0,-3.6,-3.6316,0.0,0.0,0.0,-3.711,-3.5936,-3.5312,0.0,0.0,0.0,0.0,-3.366,-3.3146,-3.2412,-3.2559,0.0,0.0,0.0,0.0,0.0,-3.0687,-3.043,0.0,0.0,0.0,0.0,0.0,0.0,0.0,0.0,0.0,0.0,0.0,0.0,0.0,0.0,0.0,0.0,0.0,-3.9309,-3.8779,-3.7503,-3.7205,-3.687,-3.6335,-3.5897,-3.5866,-3.6303,-3.5936,-3.5752,-3.5752,-3.5422,-3.5826,-3.6964,-3.6633,-3.7074,-3.8212,-3.8689,-3.8872,-3.8946,-4.0084,-4.1075,-4.1882,-4.2653,-4.3204,-4.3497,-4.3497,-4.3497,-4.3497,-4.3497,-4.3497,-4.3497,0.0,0.0,0.0,0.0,0.0,0.0,0.0,0.0,-2.4594,0.0,0.0,0.0,-2.5913,-2.7165,-2.7908,-2.7908,-2.7908,-2.7908,-2.7908,-2.7334,-2.6962,-2.6962,-2.6962,-2.6962,-2.6962,-2.7604,0.0,0.0,0.0,0.0,0.0,0.0,0.0,0.0,0.0,0.0,0.0,0.0,0.0,-3.3707,-3.4454,-3.536,0.0,0.0,-3.8314,-3.848,-3.848,-3.8585,-3.8469,-3.6964,-3.5862,0.0,0.0,0.0,0.0,0.0,-3.3917,0.0,0.0,0.0,0.0,0.0,0.0,0.0,-3.1531,-3.0907,-3.032,0.0,0.0,0.0,0.0,0.0,0.0,0.0,0.0,0.0,0.0,0.0,0.0,0.0,0.0,0.0,-3.6591,-3.6486,-3.5924,-3.4621,-3.455,-3.4825,-3.5327,-3.493,-3.5098,-3.5981,-3.5202,-3.477,-3.4844,-3.4064,-3.4504,-3.6156,-3.5385,-3.5826,-3.7367,-3.7367,-3.7434,-3.7581,-3.8982,-4.0157,-4.1038,-4.1735,-4.2616,-4.3497,-4.3497,-4.3497,-4.3497,-4.3497,-4.3497,-4.3497,0.0,0.0,0.0,0.0,0.0,0.0,0.0,0.0,0.0,0.0,0.0,0.0,0.0,-2.8586,-2.8755,-2.8755,-2.8755,-2.8755,-2.8755,-2.8619,-2.8552,-2.8552,-2.8552,-2.8552,-2.8552,-2.8687,-2.8755,0.0,0.0,0.0,0.0,0.0,0.0,0.0,0.0,0.0,0.0,0.0,0.0,-3.2766,-3.3247,0.0,-3.5901,-3.5256,-3.5901,-3.7091,-3.7091,-3.7754,-3.8542,-3.7588,-3.6707,-3.6009,0.0,0.0,0.0,-3.4981,0.0,0.0,0.0,0.0,0.0,0.0,0.0,0.0,-3.2522,-3.1751,-3.098,0.0,0.0,0.0,0.0,0.0,0.0,0.0,0.0,0.0,0.0,0.0,0.0,0.0,0.0,0.0,-3.4401,-3.4401,-3.3728,-3.2175,-3.2389,-3.2859,-3.3629,-3.3873,-3.4081,-3.4284,-3.3513,-3.3403,-3.4027,-3.3256,-3.366,-3.5247,-3.5064,-3.5569,-3.6523,-3.6523,-3.689,-3.7514,-3.7838,-3.8799,-4.0157,-4.0304,-4.1589,-4.3497,-4.3497,-4.3497,-4.3497,-4.3497,-4.3497,-4.3497,0.0,0.0,0.0,0.0,0.0,0.0,0.0,0.0,0.0,0.0,0.0,0.0,0.0,0.0,-2.9533,-2.9533,-2.9533,-2.9533,-2.9533,-2.9194,-2.9028,-2.9028,-2.9028,-2.9028,-2.9028,-2.9364,-2.9533,-2.9533,0.0,0.0,0.0,0.0,0.0,0.0,0.0,0.0,0.0,0.0,-3.2439,-3.2986,-3.3209,0.0,-3.5331,-3.5109,-3.5971,-3.7282,-3.7282,-3.7907,-3.8579,-3.7771,-3.7221,0.0,-3.5936,-3.5936,-3.6119,0.0,-3.499,-3.4807,0.0,0.0,0.0,-3.3807,0.0,0.0,0.0,-3.2302,-3.1751,0.0,0.0,0.0,0.0,0.0,0.0,0.0,0.0,0.0,0.0,0.0,0.0,0.0,0.0,0.0,-3.1735,-3.1702,-3.1285,-3.0282,-3.0381,-3.0882,-3.1678,-3.1887,-3.2391,-3.3156,-3.2412,-3.2596,-3.3807,-3.2999,-3.344,-3.499,-3.4614,-3.4835,-3.5642,-3.5642,-3.5862,-3.6303,-3.711,-3.8175,-3.9313,-3.9717,-4.0855,-4.2323,-4.2727,-4.313,-4.3497,-4.3497,-4.3497,-4.3497,-2.4594,0.0,0.0,0.0,0.0,0.0,0.0,0.0,0.0,0.0,0.0,0.0,0.0,0.0,0.0,-3.1123,-3.0514,-3.0345,-3.092,-2.9837,-2.9194,-2.9194,-2.933,-2.933,-2.9194,-2.9939,-3.0311,-3.0311,0.0,0.0,0.0,0.0,0.0,0.0,0.0,0.0,0.0,0.0,0.0,-3.2998,0.0,-3.4057,-3.5004,-3.5357,-3.636,-3.7649,-3.7825,-3.8267,-3.8615,-3.7955,-3.7734,-3.7477,-3.6156,-3.6193,0.0,0.0,0.0,0.0,0.0,0.0,0.0,0.0,0.0,-3.4,0.0,0.0,0.0,0.0,0.0,0.0,0.0,0.0,0.0,0.0,0.0,0.0,0.0,0.0,0.0,0.0,0.0,0.0,0.0,-2.9209,-2.9041,-2.8791,-2.8971,-2.9417,-3.0168,-3.035,-3.1124,-3.257,-3.1825,-3.2155,-3.377,-3.2999,-3.333,-3.4734,-3.41,-3.4137,-3.477,-3.477,-3.4844,-3.5064,-3.6597,-3.7734,-3.8542,-3.935,-4.0157,-4.0965,-4.1919,-4.269,-4.3277,-4.3424,-4.3497,-4.3497,-2.5473,-2.4932,0.0,0.0,0.0,0.0,0.0,0.0,0.0,0.0,0.0,0.0,0.0,0.0,0.0,0.0,0.0,0.0,-3.3829,-3.1461,-2.9973,-2.9973,-3.0581,-3.0649,-3.0006,-3.0683,-3.1089,-3.1089,0.0,0.0,0.0,0.0,0.0,0.0,-3.1235,0.0,0.0,0.0,-3.1947,0.0,-3.2196,-3.37,0.0,-3.4134,-3.4885,-3.6666,-3.7578,-3.8267,-3.8689,0.0,-3.8579,-3.8542,0.0,-3.8358,-3.8285,-3.7441,0.0,0.0,0.0,0.0,0.0,0.0,-3.5192,0.0,0.0,0.0,-3.3323,-3.2162,0.0,0.0,0.0,0.0,0.0,0.0,0.0,0.0,0.0,0.0,0.0,0.0,0.0,0.0,0.0,-2.7736,-2.7665,-2.7909,-2.8925,-2.9748,-3.0163,-3.0903,-3.1675,-3.257,-3.1825,-3.2155,-3.377,-3.2999,-3.3073,-3.3954,-3.3844,-3.3844,-3.3954,-3.3954,-3.4321,-3.5027,-3.6009,-3.689,-3.7698,-3.8505,-3.9313,-4.0194,-4.1699,-4.2359,-4.2506,-4.324,-4.3497,-4.3497,-2.6251,-2.5981,0.0,0.0,0.0,0.0,0.0,0.0,0.0,0.0,0.0,0.0,0.0,0.0,0.0,0.0,0.0,-3.366,0.0,0.0,-3.2002,-3.2002,-3.2307,-3.2138,-3.1393,-3.1664,-3.163,-3.119,-3.119,0.0,0.0,0.0,0.0,0.0,-3.1021,0.0,-3.0649,0.0,0.0,0.0,0.0,0.0,0.0,-3.3322,-3.3888,-3.5641,-3.6789,-3.7253,-3.7294,0.0,-3.7624,0.0,0.0,0.0,0.0,-3.7734,0.0,0.0,0.0,0.0,0.0,0.0,0.0,0.0,-3.3574,0.0,-3.3588,0.0,0.0,0.0,0.0,0.0,0.0,0.0,-2.8328,0.0,0.0,0.0,0.0,0.0,0.0,0.0,0.0,0.0,0.0,0.0,-2.7627,-2.8167,-2.8853,-2.9625,-3.0631,-3.1861,-3.1568,-3.2155,-3.377,-3.2999,-3.2999,-3.3807,-3.3807,-3.3807,-3.3807,-3.3807,-3.399,-3.4357,-3.5202,-3.6009,-3.6853,-3.7661,-3.8469,-3.9313,-4.0451,-4.1479,-4.2396,-4.3204,-4.3497,-4.3497,-2.6996,0.0,0.0,0.0,0.0,0.0,0.0,0.0,0.0,0.0,0.0,0.0,-3.6197,-3.6265,0.0,0.0,-3.6671,-3.5554,0.0,0.0,-3.3119,-3.251,-3.3085,-3.2949,-3.2002,-3.2212,-3.2036,-3.1495,-3.1292,0.0,0.0,0.0,0.0,0.0,0.0,-3.1089,-3.0514,0.0,0.0,-3.2814,-3.3017,-3.3423,-3.3795,-3.2916,-3.3313,-3.4482,-3.5754,-3.615,-3.615,-3.6274,-3.6817,0.0,-3.7507,0.0,-3.8542,0.0,0.0,0.0,-3.6668,0.0,0.0,0.0,0.0,0.0,0.0,0.0,0.0,0.0,0.0,0.0,0.0,0.0,0.0,0.0,0.0,-2.8303,0.0,0.0,0.0,0.0,0.0,0.0,0.0,0.0,0.0,-2.6691,-2.6889,-2.7241,-2.7725,-2.8777,-2.9882,-3.0892,-3.1249,-3.1994,-3.3305,-3.2837,-3.2947,-3.3634,-3.3753,-3.3807,-3.3807,-3.3807,-3.3807,-3.3844,-3.4651,-3.5495,-3.634,-3.7147,-3.7955,-3.8799,-3.9827,-4.0928,-4.2066,-4.2873,-4.3314,-4.3497,-2.7739,-2.7199,0.0,0.0,0.0,0.0,0.0,0.0,0.0,0.0,0.0,0.0,0.0,0.0,0.0,0.0,0.0,-3.6231,-3.7686,0.0,-3.2442,0.0,0.0,-3.2713,-3.1258,-3.1901,-3.2313,-3.2239,-3.1529,0.0,0.0,0.0,0.0,0.0,0.0,-3.1833,-3.1258,-3.2747,-3.2544,-3.1326,-3.2036,-3.2381,-3.2408,0.0,-3.3282,-3.331,-3.4447,0.0,0.0,-3.615,-3.6817,0.0,0.0,0.0,0.0,0.0,0.0,0.0,0.0,0.0,0.0,-3.6434,0.0,0.0,0.0,0.0,-3.3948,0.0,0.0,0.0,0.0,0.0,-2.9952,-2.9523,0.0,0.0,0.0,0.0,0.0,0.0,0.0,0.0,0.0,0.0,-2.6691,-2.6691,-2.7426,-2.7725,-2.7334,-2.9107,-3.0002,-2.9682,-3.0794,-3.1634,-3.2047,-3.2411,-3.2812,-3.3196,-3.3606,-3.3807,-3.3807,-3.3807,-3.3807,-3.3844,-3.4651,-3.5495,-3.634,-3.7147,-3.7955,-3.8872,-4.0451,-4.1111,-4.1258,-4.2029,-4.2837,-4.3497,0.0,0.0,0.0,0.0,0.0,0.0,0.0,-3.3863,0.0,0.0,0.0,0.0,0.0,-4.232,-4.2929,0.0,0.0,-4.1136,-4.0155,-3.8667,0.0,0.0,-3.5994,-3.569,-3.4167,-3.437,-3.3998,-3.3017,-3.2273,0.0,0.0,0.0,0.0,0.0,0.0,-3.1867,0.0,0.0,0.0,0.0,0.0,-3.3322,-3.366,0.0,-3.2838,-3.3095,-3.3776,-3.4008,0.0,-3.5096,-3.5433,-3.5684,-3.7088,-3.7107,-3.688,-3.7967,-3.8102,-3.7827,0.0,0.0,-3.894,-3.6506,0.0,0.0,0.0,0.0,0.0,0.0,0.0,0.0,0.0,0.0,0.0,-2.9989,-2.9573,0.0,0.0,0.0,0.0,0.0,0.0,0.0,0.0,0.0,0.0,-2.6691,-2.6954,-2.7178,-2.7303,-2.8428,-2.9512,-3.045,-3.106,-3.2004,-3.3177,-3.2769,-3.2913,-3.3578,-3.3465,-3.355,-3.3807,-3.3807,-3.3807,-3.3807,-3.41,-3.5018,-3.6303,-3.6597,-3.7477,-3.8762,-3.9313,-4.0157,-4.1258,-4.2616,-4.3277,-4.3497,-2.9394,0.0,0.0,0.0,0.0,0.0,0.0,0.0,0.0,0.0,-4.0493,0.0,-4.435,0.0,-4.5297,0.0,-4.5399,-4.391,-4.1373,-4.1001,0.0,-3.7212,-3.7855,-3.7313,0.0,-3.5757,-3.5182,-3.3423,0.0,-3.3051,0.0,0.0,0.0,0.0,0.0,0.0,0.0,0.0,-3.2577,0.0,0.0,-3.3457,0.0,0.0,-3.318,-3.3824,0.0,-3.3616,-3.3768,-3.4513,-3.4788,-3.4966,-3.5882,-3.6254,-3.6584,-3.7348,-3.7754,-3.7796,-3.7286,-3.8176,0.0,-3.6604,-3.6645,0.0,-3.5104,0.0,-3.5238,0.0,0.0,0.0,0.0,0.0,0.0,-3.0581,-3.0277,-2.9567,0.0,-2.7165,0.0,0.0,0.0,0.0,0.0,0.0,-2.6758,-2.6889,-2.6889,-2.6954,0.0,-2.8369,-2.947,-3.022,-3.0955,-3.1923,-3.3177,-3.2583,-3.2757,-3.3578,-3.3465,-3.355,-3.3807,-3.3807,-3.3807,-3.3807,-3.3807,-3.4761,-3.6303,-3.6303,-3.7257,-3.8726,-3.9019,-3.9937,-4.1258,-4.2249,-4.302,-4.3497,0.0,0.0,0.0,0.0,-3.207,0.0,0.0,0.0,-3.9309,0.0,-4.2219,-4.3842,-4.4688,-4.5432,-4.6143,-4.6853,-4.6244,-4.4553,-4.161,-4.2049,0.0,0.0,-3.7956,-3.7719,-3.4776,0.0,-3.5757,-3.3558,0.0,0.0,0.0,0.0,0.0,0.0,-3.2002,0.0,-3.1292,-3.1968,-3.1867,-3.1326,-3.2002,-3.278,-3.3525,-3.3423,-3.424,-3.5248,-3.4129,-3.4041,-3.4429,-3.4398,-3.4902,-3.5274,-3.4157,-3.5577,-3.7428,-3.6089,-3.7067,-3.8182,-3.6399,-3.6899,-3.7685,-3.662,-3.6182,0.0,0.0,0.0,-3.5048,0.0,0.0,0.0,0.0,0.0,0.0,-3.1258,-3.0615,-2.96,0.0,0.0,-2.6759,0.0,0.0,0.0,0.0,-2.6922,-2.6889,-2.7272,-2.7303,0.0,0.0,0.0,-2.9779,-2.913,-3.0521,-3.1524,-3.2054,-3.2054,-3.2444,-3.3225,-3.3606,-3.378,-3.3807,-3.3807,-3.3807,-3.3807,-3.3844,-3.4798,-3.6303,-3.634,-3.7294,-3.8799,-3.957,-4.0414,-4.1185,-4.1222,-4.2176,-4.3497,-3.1746,-3.2916,-3.3795,0.0,-3.3829,-3.4844,0.0,0.0,0.0,0.0,-4.4418,-4.5805,-4.7665,-4.8037,-4.824,-4.8409,-4.7767,0.0,0.0,0.0,0.0,-3.9884,-4.0324,-3.9749,-3.7889,-3.7686,-3.7043,-3.5926,0.0,0.0,-3.4709,0.0,0.0,0.0,0.0,0.0,-3.2002,-3.2205,-3.2171,-3.2002,-3.2205,-3.3389,0.0,0.0,-3.4848,-3.6693,-3.4697,-3.4303,-3.4691,-3.4657,-3.4763,-3.5012,-3.5261,-3.522,-3.532,-3.6469,-3.6684,-3.6577,-3.6361,-3.7263,-3.7842,-3.6251,-3.6483,-3.6887,0.0,0.0,0.0,0.0,0.0,0.0,0.0,0.0,0.0,0.0,-3.0954,-2.977,0.0,0.0,0.0,-2.7537,0.0,0.0,-2.6856,-2.7019,-2.7178,-2.7303,-2.7303,0.0,0.0,0.0,-2.8731,-2.944,-3.0382,-3.1517,-3.2877,-3.2572,-3.2798,-3.3634,-3.3465,-3.3522,-3.3807,-3.3807,-3.3807,-3.3844,-3.4431,-3.5312,-3.634,-3.6927,-3.7771,-3.8799,-3.957,-4.0744,-4.2066,-4.2653,-4.313,-4.3497,-3.3152,0.0,0.0,-3.64,0.0,0.0,-3.8734,-3.9749,0.0,-4.4215,-4.55,0.0,-4.7902,-4.8612,-4.9018,-4.9018,-4.8342,0.0,-4.5805,0.0,0.0,-4.1305,-4.1508,-4.0527,-3.8091,-3.7956,-3.7212,-3.5791,-3.4844,0.0,-3.4607,0.0,0.0,0.0,0.0,-3.278,0.0,-3.2408,-3.2313,-3.2313,-3.2313,0.0,0.0,-3.4066,-3.5061,-3.6517,-3.5206,-3.497,-3.5224,-3.5039,-3.4964,-3.4926,-3.484,-3.4926,-3.5278,-3.6155,-3.6456,-3.6456,-3.64,-3.6975,-3.7225,-3.5912,-3.6161,-3.6542,-3.5735,-3.596,-3.6028,0.0,-3.481,-3.4506,0.0,0.0,0.0,0.0,0.0,-2.9973,-2.9533,0.0,0.0,0.0,-2.7334,-2.6954,-2.6725,-2.7241,-2.7487,-2.7334,-2.7303,0.0,0.0,0.0,-2.8732,-2.9589,-3.0764,-3.1952,-3.3166,-3.3051,-3.3275,-3.3807,-3.3578,-3.3578,-3.3807,-3.3807,-3.3807,-3.3844,-3.4651,-3.5495,-3.634,-3.7147,-3.7955,-3.8799,-3.9974,-4.1001,-4.1919,-4.3057,-4.3497,-4.3497,0.0,0.0,0.0,0.0,0.0,0.0,0.0,-4.1847,0.0,-4.4688,0.0,-4.709,-4.709,-4.824,-4.8951,-4.8883,0.0,-4.7192,-4.5805,-4.55,-4.4181,-4.1474,-4.188,-4.0561,-3.7144,-3.7516,-3.6806,-3.4776,-3.5148,-3.4776,0.0,0.0,0.0,0.0,0.0,0.0,0.0,-3.2544,-3.2313,-3.2273,-3.2171,-3.2713,-3.3592,-3.4134,-3.4878,-3.5622,-3.5622,-3.5759,-3.5887,-3.5491,-3.533,-3.5145,-3.4032,-3.4882,-3.6153,-3.5538,-3.6103,-3.6865,-3.6416,-3.6291,-3.6165,-3.5711,-3.5622,-3.5622,-3.5711,-3.5677,-3.5722,-3.581,-3.4746,-3.4024,-3.4635,0.0,0.0,0.0,0.0,0.0,0.0,0.0,0.0,0.0,0.0,0.0,-2.6826,-2.7465,-2.7695,-2.7334,0.0,0.0,0.0,0.0,-2.9073,-2.9589,-3.1305,-3.2611,-3.3491,-3.3577,-3.38,-3.4137,-3.3917,-3.3807,-3.3807,-3.3807,-3.3844,-3.399,-3.4835,-3.5679,-3.6523,-3.7331,-3.8175,-3.9166,-4.0561,-4.1258,-4.1589,-4.2983,-4.3497,-4.3497,0.0,0.0,0.0,0.0,0.0,-4.32,-4.3707,-4.4553,-4.5432,-4.6278,-4.7699,-4.8612,-4.8612,-4.8849,-4.8781,-4.8173,-4.7428,0.0,0.0,0.0,0.0,-4.2151,-4.1644,-4.0527,-3.8667,-3.755,-3.6772,-3.6366,-3.4641,-3.4303,-3.5216,0.0,0.0,0.0,0.0,0.0,-3.2476,-3.2381,0.0,-3.228,-3.163,-3.2544,-3.4269,-3.3795,-3.4438,-3.5622,-3.5622,-3.5925,-3.6249,-3.5736,-3.5822,-3.6084,-3.5426,-3.5464,-3.5722,-3.5586,-3.5708,-3.5854,-3.58,-3.5722,-3.5756,-3.5622,-3.5622,-3.5711,-3.6165,-3.6249,-3.6374,-3.6825,-3.6336,-3.5904,-3.6042,0.0,0.0,0.0,0.0,0.0,0.0,0.0,0.0,0.0,0.0,-2.8331,-2.7674,-2.7493,-2.7396,0.0,0.0,0.0,0.0,0.0,-2.8492,0.0,-3.0865,0.0,0.0,0.0,-3.4475,-3.5862,-3.4468,-3.3807,-3.3807,-3.3807,-3.4174,-3.4844,-3.5716,-3.6523,-3.7331,-3.8175,-3.935,-4.0708,-4.1001,-4.1919,-4.3094,-4.3387,-4.3497,-4.3497,0.0,0.0,0.0,0.0,0.0,0.0,0.0,-4.7022,-4.7699,-4.6887,-4.7428,-4.7868,-4.7868,-4.8545,-4.8714,-4.797,-4.7225,-4.6312,-4.5196,-4.4045,-4.2929,-4.1779,-4.1407,-4.0527,-3.9039,-3.7144,-3.6366,-3.6772,-3.4506,-3.3964,-3.5013,0.0,0.0,0.0,0.0,-3.3761,0.0,0.0,0.0,-3.2814,-3.207,-3.2848,-3.4404,-3.3694,-3.4336,-3.5622,-3.5622,-3.58,-3.5941,-3.5711,-3.5766,-3.5941,-3.5711,-3.5622,-3.5622,-3.5622,-3.5622,-3.5622,-3.5622,-3.5622,-3.5622,-3.5622,-3.5622,-3.5667,-3.5941,-3.6207,-3.6457,-3.6706,-3.6307,-3.5641,-3.4974,-3.4338,0.0,0.0,0.0,0.0,0.0,0.0,-2.9837,0.0,0.0,-2.8305,0.0,0.0,0.0,0.0,0.0,0.0,0.0,0.0,-2.8661,0.0,0.0,0.0,-3.4352,0.0,-3.4353,-3.4981,-3.4174,-3.3807,-3.3807,-3.3807,-3.4027,-3.4468,-3.5752,-3.6523,-3.6964,-3.8212,-3.9386,-4.0524,-4.0965,-4.1846,-4.291,-4.3351,-4.3497,-4.3497,0.0,-4.2382,0.0,0.0,-4.5872,0.0,-4.7056,-4.8781,-4.9424,-4.753,-4.7259,-4.7192,-4.7056,-4.8206,-4.8578,-4.753,-4.7056,-4.6143,-4.4688,-4.3707,-4.2658,-4.1474,-4.1136,-4.0358,-3.9039,-3.6941,-3.6163,-3.6772,-3.4675,-3.3998,-3.4742,-3.5351,0.0,0.0,0.0,0.0,0.0,0.0,-3.3626,-3.3558,-3.2814,-3.3423,-3.4641,-3.3931,-3.4472,-3.5622,-3.5622,-3.5622,-3.5622,-3.5622,-3.5622,-3.5622,-3.5622,-3.5622,-3.5622,-3.5622,-3.5622,-3.5622,-3.5622,-3.5622,-3.5622,-3.5622,-3.5622,-3.5588,-3.5552,-3.5924,-3.6296,-3.6301,-3.5908,-3.518,-3.405,-3.4201,0.0,0.0,0.0,0.0,0.0,0.0,-3.0006,0.0,0.0,-2.8416,-2.6993,0.0,0.0,0.0,0.0,0.0,-2.7754,0.0,0.0,0.0,0.0,-3.2827,-3.3857,0.0,-3.4491,-3.4578,-3.4394,-3.4321,-3.4321,-3.4321,-3.4431,-3.4651,-3.5973,-3.6743,-3.7147,-3.8432,-3.9533,-4.0451,-4.1111,-4.1846,-4.2616,-4.3277,-4.3497,-4.3497,0.0,0.0,0.0,0.0,0.0,0.0,-4.7902,-4.912,-4.9796,-4.8917,-4.8781,-4.8545,-4.7868,-4.8511,-4.8173,-4.6109,-4.6447,-4.6143,-4.4688,-4.32,-4.232,-4.2185,-4.0899,-3.9817,-3.9005,-3.7483,-3.6705,0.0,-3.5182,-3.4776,-3.552,-3.5588,0.0,0.0,0.0,0.0,0.0,-3.4438,-3.4404,-3.4336,-3.3592,-3.4201,-3.5419,-3.4675,-3.4912,-3.5622,-3.5622,-3.5622,-3.5622,-3.5622,-3.5622,-3.5622,-3.5622,-3.5622,-3.5622,-3.5622,-3.5622,-3.5622,-3.5622,-3.5622,-3.5622,-3.5622,-3.5622,-3.5552,-3.5387,-3.5657,-3.5964,-3.6038,-3.6147,-3.6146,-3.5508,-3.4912,-3.4472,0.0,0.0,0.0,0.0,0.0,-3.0581,-2.9161,0.0,-3.0018,-2.7511,-2.9289,0.0,0.0,-2.8229,0.0,0.0,0.0,0.0,-3.0792,-3.1686,-3.3379,-3.5988,-3.5292,-3.5659,-3.711,-3.6413,-3.6083,-3.6083,-3.6083,-3.645,-3.7147,-3.7294,-3.8212,-3.957,-3.9717,-4.0671,-4.2066,-4.2176,-4.269,-4.3387,-4.3461,-4.3497,-4.3497,0.0,0.0,0.0,0.0,0.0,0.0,0.0,-4.9729,-4.983,-4.9086,-4.9018,-4.8883,-4.8612,-4.8443,-4.78,-4.6481,-4.6244,-4.55,-4.3978,-4.2895,-4.2083,-4.1644,-4.0629,-3.9952,-3.9648,-3.8193,-3.7449,0.0,-3.5926,-3.5318,-3.5622,-3.5622,-3.5622,0.0,0.0,-3.4776,-3.4506,-3.4506,-3.4506,-3.4472,-3.4167,-3.4675,-3.5554,-3.4776,-3.4979,-3.5622,-3.5622,-3.5622,-3.5622,-3.5622,-3.5622,-3.5622,-3.5622,-3.5622,-3.5622,-3.5622,-3.5622,-3.5622,-3.5622,-3.5622,-3.5622,-3.5622,-3.5622,-3.5565,-3.5522,-3.5503,-3.5692,-3.6147,-3.6331,-3.6207,-3.5711,-3.5385,-3.5237,-3.5591,0.0,0.0,0.0,0.0,0.0,-2.977,-3.0629,-3.061,-2.8858,-3.0227,0.0,0.0,0.0,0.0,0.0,0.0,0.0,-3.1144,0.0,-3.3415,-3.5495,-3.5174,-3.5605,-3.678,-3.645,-3.6303,-3.6303,-3.6303,-3.6743,-3.7544,-3.7991,-3.8872,-3.9937,-4.0414,-4.1295,-4.2286,-4.2286,-4.28,-4.3497,-4.3497,-4.3497,-4.3497,-4.9173,0.0,-4.9357,0.0,-5.0473,-5.0067,-5.0371,-5.0236,-4.983,-4.9086,-4.9018,-4.8917,-4.8714,-4.824,-4.753,-4.6549,-4.6007,-4.5162,-4.3842,-4.2828,-4.2049,-4.1542,-4.0595,0.0,-4.0087,-3.887,-3.8227,-3.8227,-3.6705,-3.596,-3.596,-3.5723,0.0,0.0,-3.5047,-3.481,-3.481,-3.481,-3.481,-3.481,-3.481,-3.5148,-3.5554,-3.5013,-3.5148,-3.5622,-3.5622,-3.5622,-3.5622,-3.5622,-3.5622,-3.5622,-3.5622,-3.5622,-3.5622,-3.5622,-3.5622,-3.5622,-3.5622,-3.5622,-3.5622,-3.5622,-3.5622,-3.5554,-3.5351,-3.5274,-3.5411,-3.5925,-3.6111,-3.6071,-3.5667,-3.5622,-3.5654,-3.5805,0.0,0.0,0.0,-3.2406,0.0,-3.0553,-3.1317,-3.1359,-3.0117,-3.1273,0.0,0.0,0.0,0.0,0.0,0.0,0.0,0.0,0.0,0.0,-3.499,-3.5495,-3.6046,-3.667,-3.689,-3.7,-3.7,-3.7,-3.7331,-3.7881,-3.8469,-3.9276,-4.0304,-4.0891,-4.1699,-4.2653,-4.2653,-4.2983,-4.3497,-4.3497,-4.3497,-4.3497,-5.0686,-5.1183,-5.1657,-5.3179,-5.2807,-5.2029,-5.1319,-5.0574,-4.983,-4.9086,-4.9018,-4.8714,-4.8003,-4.7936,-4.7327,-4.5838,-4.5703,-4.5365,-4.4621,-4.3132,-4.2286,0.0,0.0,-4.0087,-4.0087,-3.9343,-3.8971,-3.8971,0.0,0.0,-3.6738,-3.5994,-3.5622,-3.5622,-3.5622,-3.5622,-3.5622,-3.5622,-3.5622,-3.5622,-3.5622,-3.5622,-3.5622,-3.5622,-3.5577,-3.5622,-3.5622,-3.5622,-3.5622,-3.5622,-3.5622,-3.5622,-3.5622,-3.5622,-3.5622,-3.5622,-3.5622,-3.5622,-3.5622,-3.5622,-3.5622,-3.5622,-3.5622,-3.5419,-3.4675,-3.4856,-3.5192,-3.5192,-3.5429,-3.5622,-3.5622,-3.5622,-3.5385,-3.4641,0.0,0.0,0.0,-3.2291,0.0,-3.1405,-3.245,-3.2552,-3.1028,-3.263,0.0,0.0,0.0,0.0,0.0,0.0,0.0,-3.2596,-3.4147,0.0,-3.499,-3.6633,-3.7507,-3.7507,-3.8285,-3.8689,-3.8689,-3.8689,-3.8689,-3.8689,-3.8689,-3.9606,-4.1111,-4.1111,-4.2029,-4.3497,-4.3497,-4.3497,-4.3497,-4.3497,-4.3497,-4.3497,-5.2337,-5.2773,-5.2739,-5.2706,-5.2469,-5.1894,-5.0642,-5.0236,-4.983,-4.9086,-4.9018,-4.8917,-4.868,-4.7767,-4.6955,0.0,-4.5534,-4.4823,0.0,-4.3132,-4.2286,-4.2286,-4.0865,-4.0087,-4.0087,-3.9851,-3.9478,-3.9005,0.0,0.0,0.0,-3.6535,-3.6129,-3.5622,-3.5622,-3.5622,-3.5622,-3.5622,-3.5622,-3.5622,-3.5622,-3.5622,-3.5622,-3.5622,-3.5622,-3.5622,-3.5622,-3.5622,-3.5622,-3.5622,-3.5622,-3.5622,-3.5622,-3.5622,-3.5622,-3.5622,-3.5622,-3.5622,-3.5622,-3.5622,-3.5622,-3.5622,-3.5622,-3.5554,-3.5318,-3.5382,-3.53,-3.4832,-3.4805,-3.4844,-3.4844,-3.4438,-3.416,-3.4266,-3.3653,0.0,-3.3092,0.0,-3.2126,-3.1708,-3.2585,-3.3015,-3.2509,-3.3286,0.0,0.0,0.0,0.0,0.0,0.0,0.0,0.0,-3.4468,0.0,-3.667,-3.7221,-3.7771,-3.8322,-3.8579,-3.8689,-3.8689,-3.8689,-3.9019,-3.9533,-4.012,-4.0965,-4.1956,-4.2506,-4.302,-4.3497,-4.3497,-4.3497,-4.3497,-4.3497,-4.3497,-4.3497,-5.3111,-5.3518,-5.3348,-5.2841,-5.2739,-5.2232,-5.0744,-5.0217,-4.9653,-4.8647,-4.8216,-4.8048,-4.8048,-4.708,0.0,-4.6786,-4.5432,-4.4587,-4.4587,-4.3132,-4.2286,-4.2286,-4.0865,-4.0087,-4.0087,-4.0087,0.0,-3.9411,-3.914,-3.8396,-3.7212,-3.6907,-3.6535,-3.6062,-3.5757,-3.5622,-3.5622,-3.5622,-3.5622,-3.5622,-3.5622,-3.5622,-3.5622,-3.5622,-3.5622,-3.5622,-3.5622,-3.5622,-3.5622,-3.5622,-3.5622,-3.5622,-3.5622,-3.5622,-3.5622,-3.5622,-3.5622,-3.5622,-3.5622,-3.5622,-3.5622,-3.5622,-3.5622,-3.5622,-3.5622,-3.5622,-3.5487,-3.5013,-3.4912,-3.4912,-3.4912,-3.4303,-3.3854,-3.3917,-3.3269,-3.2766,-3.286,-3.2649,-3.25,-3.2565,-3.3039,-3.3437,0.0,-3.3634,-3.3807,0.0,0.0,0.0,0.0,0.0,-3.3514,-3.4247,-3.5349,-3.645,-3.7477,-3.7771,-3.8358,-3.9166,-3.9166,-3.9166,-3.9129,-3.8836,-3.8982,-3.9496,-4.0304,-4.1111,-4.1919,-4.2727,-4.3204,-4.3497,-4.3497,-4.3497,-4.3497,-4.3497,-4.3497,-4.3497,-5.3041,-5.3416,-5.3416,0.0,-5.3315,0.0,-5.1157,-5.0225,-4.9151,-4.7704,-4.6881,-4.6454,-4.6486,-4.6046,-4.5949,-4.665,0.0,0.0,-4.4587,-4.3132,-4.2286,-4.2286,-4.0865,-4.0087,-4.0087,-4.0087,-4.0054,-3.9986,-3.9309,-3.8599,-3.7821,-3.711,-3.6738,-3.6671,-3.5926,-3.5622,-3.5622,-3.5622,-3.5622,-3.5622,-3.5622,-3.5622,-3.5622,-3.5622,-3.5622,-3.5622,-3.5622,-3.5622,-3.5622,-3.5622,-3.5622,-3.5622,-3.5622,-3.5622,-3.5622,-3.5622,-3.5622,-3.5622,-3.5622,-3.5622,-3.5622,-3.5622,-3.5622,-3.5622,-3.5622,-3.5622,-3.5622,-3.5622,-3.5588,-3.5554,-3.5554,-3.4878,-3.41,-3.3465,-3.2761,-3.2334,-3.2472,-3.2533,-3.2854,-3.3662,0.0,0.0,-3.388,-3.388,-3.3917,0.0,0.0,0.0,0.0,0.0,-3.521,-3.5174,-3.6743,-3.7617,-3.7691,-3.8469,-3.9203,-3.99,-3.99,-3.99,-3.9863,-3.9129,-3.8836,-3.8982,-3.9753,-4.0524,-4.1332,-4.2066,-4.28,-4.3497,-4.3497,-4.3497,-4.3497,-4.3497,-4.3497,-4.3497,0.0,0.0,-5.2146,-5.1582,-5.127,-5.0431,-4.8453,-4.8472,-4.8135,-4.6717,-4.6394,-4.6309,-4.6454,-4.5854,-4.5563,-4.5916,-4.5128,-4.4587,-4.4587,-4.3132,-4.2286,-4.2286,-4.0865,-4.0087,-4.0087,-4.0087,-3.9817,-3.9242,-3.9073,-3.8328,-3.7043,-3.6874,-3.6468,-3.5893,-3.569,-3.5622,-3.5622,-3.5622,-3.5622,-3.5622,-3.5622,-3.5622,-3.5622,-3.5622,-3.5622,-3.5622,-3.5622,-3.5622,-3.5622,-3.5622,-3.5622,-3.5622,-3.5622,-3.5622,-3.5622,-3.5622,-3.5622,-3.5622,-3.5622,-3.5622,-3.5622,-3.5622,-3.5622,-3.5622,-3.5622,-3.5622,-3.5622,-3.5622,-3.5148,-3.4776,-3.4776,-3.3694,-3.291,-3.3063,-3.2715,-3.2441,-3.2502,-3.3075,-3.3429,0.0,-3.4154,-3.4697,-3.4697,-3.4697,-3.5018,0.0,0.0,0.0,-3.5679,-3.7037,-3.7551,-3.6927,-3.7881,-3.8689,-3.9313,-4.012,-4.0341,-3.99,-3.99,-3.99,-3.99,-3.968,-4.0304,-4.1479,-4.1662,-4.2176,-4.2947,-4.313,-4.3314,-4.3497,-4.3497,-4.3497,-4.3497,-4.3497,-4.3497,-4.3497,-5.1921,-5.1525,-5.1002,-5.0253,-5.0005,-4.9309,-4.7517,-4.7215,-4.676,-4.5687,-4.4993,-4.4668,-4.4733,-4.4561,-4.4495,-4.4582,-4.4619,-4.4587,-4.4587,-4.3132,-4.2286,-4.2286,-4.0865,-4.0087,-4.0087,-4.0087,-3.9715,-3.9005,-3.9005,-3.8396,-3.728,-3.6941,-3.6569,-3.6129,-3.5791,-3.5622,-3.5622,-3.5622,-3.5622,-3.5622,-3.5622,-3.5622,-3.5622,-3.5622,-3.5622,-3.5622,-3.5622,-3.5622,-3.5622,-3.5622,-3.5622,-3.5622,-3.5622,-3.5622,-3.5622,-3.5622,-3.5622,-3.5622,-3.5622,-3.5622,-3.5622,-3.5622,-3.5622,-3.5622,-3.5622,-3.5622,-3.5622,-3.5622,-3.5284,-3.4912,-3.4539,-3.3558,-3.2802,-3.2706,-3.2251,-3.2056,-3.2433,-3.2885,-3.3429,-3.3975,-3.4585,-3.5137,-3.5569,-3.5605,-3.5789,-3.6266,-3.6193,0.0,-3.6817,-3.8358,-3.8872,-3.8065,-3.9203,-4.001,-4.0451,-4.1258,-4.1442,-4.1001,-4.1001,-4.1001,-4.0965,-4.0634,-4.0928,-4.1772,-4.2139,-4.2543,-4.2983,-4.3351,-4.3497,-4.3497,-4.3497,-4.3497,-4.3497,-4.3497,-4.3497,-4.3497,-5.1271,-5.0682,-4.9846,-4.9413,-4.9069,-4.8517,-4.7247,-4.6216,-4.5403,-4.4678,-4.3494,-4.2767,-4.2726,-4.3103,-4.3338,-4.3323,-4.4064,-4.4587,-4.4587,-4.3234,-4.2422,-4.2286,-4.0967,-4.0189,-4.0087,-4.0087,-3.9715,-3.9005,-3.9005,-3.8565,-3.7719,-3.7077,-3.6738,-3.6569,-3.5926,-3.5622,-3.5622,-3.5622,-3.5622,-3.5622,-3.5622,-3.5622,-3.5622,-3.5622,-3.5622,-3.5622,-3.5622,-3.5622,-3.5622,-3.5622,-3.5622,-3.5622,-3.5622,-3.5622,-3.5622,-3.5622,-3.5622,-3.5622,-3.5622,-3.5622,-3.5622,-3.5622,-3.5723,-3.5791,-3.5791,-3.5893,-3.5926,-3.5825,-3.5791,-3.552,-3.4641,-3.3897,-3.3228,-3.2666,-3.193,-3.1728,-3.2643,0.0,-3.3414,-3.4824,-3.521,-3.5679,-3.6413,-3.6486,-3.656,-3.6817,-3.7367,-3.7771,-3.8028,-3.946,-3.9937,-3.9276,-4.0561,-4.1368,-4.1479,-4.2029,-4.2286,-4.2286,-4.2286,-4.2286,-4.2286,-4.1589,-4.1368,-4.1515,-4.2176,-4.247,-4.2543,-4.3204,-4.3497,-4.3497,-4.3497,-4.3497,-4.3497,-4.3497,-4.3497,-4.3497,-4.933,-4.8667,-4.8337,-4.8805,-4.7732,-4.6494,-4.5707,-4.5052,-4.4288,-4.3626,-4.3386,-4.3122,-4.2747,-4.3427,-4.3751,-4.3361,-4.4064,-4.4587,-4.4587,-4.3741,-4.2963,-4.232,-4.1474,-4.073,-4.0087,-4.0087,-3.9715,-3.9005,-3.9005,-3.8294,-3.6941,-3.684,-3.6434,-3.5791,-3.569,-3.5622,-3.5622,-3.5622,-3.5622,-3.5622,-3.5622,-3.5622,-3.5622,-3.5622,-3.5622,-3.5622,-3.5622,-3.5622,-3.5622,-3.5622,-3.5622,-3.5622,-3.5622,-3.5622,-3.5622,-3.5622,-3.5622,-3.5622,-3.5622,-3.5622,-3.5622,-3.5622,-3.6129,-3.6603,-3.6603,-3.711,-3.7381,-3.6738,-3.6603,-3.6163,-3.4742,-3.3897,-3.3481,-3.3756,-3.2962,-3.2714,-3.3849,0.0,-3.4731,-3.499,-3.6266,-3.7147,-3.7323,-3.7294,-3.7881,-3.9239,-3.8836,-3.9129,-4.0487,-4.1442,-4.1882,-4.1735,-4.1992,-4.2433,-4.313,-4.258,-4.2286,-4.2286,-4.2286,-4.2286,-4.2286,-4.2176,-4.247,-4.313,-4.324,-4.3314,-4.3314,-4.3424,-4.3497,-4.3497,-4.3497,-4.3497,-4.3497,-4.3497,-4.3497,-4.3497,-4.7822,-4.7027,-4.6407,-4.6376,-4.5725,-4.5005,-4.4347,-4.3988,-4.3688,-4.3359,-4.303,-4.2587,-4.2045,-4.2426,-4.2532,-4.1948,-4.2707,-4.341,-4.3889,-4.3586,-4.3064,-4.232,-4.1576,-4.0832,-4.0087,-4.0087,-3.9715,-3.9005,-3.9005,-3.8227,-3.6772,-3.6772,-3.6366,-3.5622,-3.5622,-3.5622,-3.5622,-3.5622,-3.5622,-3.5622,-3.5622,-3.5622,-3.5622,-3.5622,-3.5622,-3.5622,-3.5622,-3.5622,-3.5622,-3.5622,-3.5622,-3.5622,-3.5622,-3.5622,-3.5622,-3.5622,-3.5622,-3.5622,-3.5622,-3.5622,-3.5622,-3.5622,-3.6197,-3.6772,-3.6772,-3.7347,-3.7821,-3.7449,-3.7077,-3.6434,-3.5318,-3.4167,-3.3473,-3.3721,-3.281,-3.2686,-3.4367,-3.4609,-3.5264,-3.6824,-3.7294,-3.7991,-3.9313,-3.9056,-3.9276,-4.0451,-4.0194,-4.0524,-4.1699,-4.2103,-4.2506,-4.291,-4.2947,-4.313,-4.3497,-4.313,-4.2947,-4.2947,-4.2947,-4.2947,-4.2947,-4.2947,-4.313,-4.3497,-4.3497,-4.3497,-4.3497,-4.3497,-4.3497,-4.3497,-4.3497,-4.3497,-4.3497,-4.3497,-4.3497,-4.3497,-4.648,-4.5779,-4.4945,-4.4616,-4.4407,-4.4137,-4.3629,-4.3419,-4.3329,-4.3329,-4.291,-4.2342,-4.1683,-4.1851,-4.1643,-4.1,-4.1557,-4.2269,-4.2986,-4.2924,-4.2747,-4.2557,-4.1677,-4.0832,-4.0087,-4.0087,-3.9817,-3.9242,-3.9242,-3.8497,-3.7043,-3.7043,-3.6535,-3.5622,-3.5622,-3.5622,-3.5622,-3.5622,-3.5622,-3.5622,-3.5622,-3.5622,-3.5622,-3.5622,-3.5622,-3.5622,-3.5622,-3.5622,-3.5622,-3.5622,-3.5622,-3.5622,-3.5622,-3.5757,-3.5893,-3.5893,-3.6028,-3.6129,-3.5926,-3.6028,-3.6163,-3.6163,-3.6738,-3.728,-3.728,-3.7855,-3.8362,-3.8193,-3.755,-3.6806,-3.6028,-3.481,-3.3931,-3.3931,0.0,-3.3413,-3.5118,-3.5429,-3.6322,-3.87,-3.8579,-3.9056,-4.0928,-4.0561,-4.0524,-4.1332,-4.1405,-4.1735,-4.2543,-4.258,-4.2873,-4.3461,-4.3497,-4.3497,-4.3497,-4.3497,-4.3497,-4.3497,-4.3497,-4.3497,-4.3497,-4.3497,-4.3497,-4.3497,-4.3497,-4.3497,-4.3497,-4.3497,-4.3497,-4.3497,-4.3497,-4.3497,-4.3497,-4.3497,-4.3497,-4.3497,-4.532,-4.4877,-4.4556,-4.5125,-4.4706,-4.4287,-4.4257,-4.3718,-4.3329,-4.3329,-4.3299,-4.3,-4.2372,-4.248,-4.2355,-4.1643,-4.1873,-4.2045,-4.2045,-4.153,-4.1782,-4.328,-4.1982,-4.0832,-4.0087,-4.0087,-4.0054,-3.9986,-3.9986,-3.9242,-3.7821,-3.7821,-3.7043,-3.5622,-3.5622,-3.5622,-3.5622,-3.5622,-3.5622,-3.5622,-3.5622,-3.5622,-3.5622,-3.5622,-3.5622,-3.5622,-3.5622,-3.5622,-3.5622,-3.5622,-3.5622,-3.5622,-3.5622,-3.6129,-3.6705,-3.6705,-3.7178,-3.7584,-3.6874,-3.7212,-3.7753,-3.7753,-3.8294,-3.8836,-3.8836,-3.9411,-3.9715,-3.9039,-3.8328,-3.7584,-3.684,-3.6028,-3.5453,-3.5453,0.0,0.0,-3.692,-3.7972,-3.8934,-3.9722,-4.0414,-4.0928,-4.1075,-4.1075,-4.1368,-4.2139,-4.2213,-4.2543,-4.3351,-4.3387,-4.3424,-4.3497,-4.3497,-4.3497,-4.3497,-4.3497,-4.3497,-4.3497,-4.3497,-4.3497,-4.3497,-4.3497,-4.3497,-4.3497,-4.3497,-4.3497,-4.3497,-4.3497,-4.3497,-4.3497,-4.3497,-4.3497,-4.3497,-4.3497,-4.3497,-4.3497,-4.4018,-4.3868,-4.3778,-4.4047,-4.3868,-4.3718,-4.3718,-4.3479,-4.3329,-4.3329,-4.3329,-4.309,-4.2432,-4.2123,-4.1607,-4.094,-4.0567,-4.0653,-4.1162,-4.057,-4.0542,-4.1311,-4.0712,-4.0294,-4.0087,-4.0087,-4.0087,-4.0087,-4.0087,-3.958,-3.8565,-3.8125,-3.7347,-3.6332,-3.5825,-3.5893,-3.6299,-3.5825,-3.5893,-3.6299,-3.5825,-3.5622,-3.5622,-3.5622,-3.5622,-3.5622,-3.5622,-3.5622,-3.5622,-3.5622,-3.5622,-3.569,-3.6197,-3.6535,-3.6874,-3.7347,-3.799,-3.8531,-3.8227,-3.8024,-3.7922,-3.7922,-3.8464,-3.9005,-3.9005,-3.9546,-3.9986,-3.9715,-3.9073,-3.8497,-3.8193,-3.7178,-3.6502,-3.6975,0.0,-3.6686,-3.7917,-3.8329,-3.9079,-4.0636,-4.0671,-4.1067,-4.2436,-4.2139,-4.2176,-4.2983,-4.302,-4.3167,-4.3461,-4.3497,-4.3497,-4.3497,-4.3497,-4.3497,-4.3497,-4.3497,-4.3497,-4.3497,-4.3497,-4.3497,-4.3497,-4.3497,-4.3497,-4.3497,-4.3497,-4.3497,-4.3497,-4.3497,-4.3497,-4.3497,-4.3497,-4.3497,-4.3497,-4.3497,-4.3497,-4.3497,-4.3329,-4.3329,-4.3329,-4.3329,-4.3329,-4.3329,-4.3329,-4.3329,-4.3329,-4.3329,-4.3329,-4.315,-4.2731,-4.1893,-4.1205,-4.0756,-3.9918,-3.9666,-4.0239,-3.9665,-3.9437,-3.9723,-3.9658,-3.9555,-3.9348,-3.9401,-3.9506,-3.9714,-3.9714,-3.948,-3.8971,-3.8497,-3.7855,-3.711,-3.6569,-3.6502,-3.6738,-3.6197,-3.6163,-3.6366,-3.5825,-3.5757,-3.596,-3.5723,-3.5791,-3.5994,-3.5994,-3.5825,-3.5656,-3.5893,-3.5994,-3.6062,-3.6603,-3.711,-3.7618,-3.8362,-3.8937,-3.9343,-3.9343,-3.8971,-3.8599,-3.8599,-3.8971,-3.9343,-3.9343,-3.9715,-4.0087,-4.0087,-3.9512,-3.9073,-3.9276,-3.8328,-3.7652,-3.8159,-3.7797,-3.7841,-3.8866,-3.9033,-3.9711,-4.1569,-4.132,-4.1651,-4.3353,-4.2983,-4.291,-4.3461,-4.3497,-4.3497,-4.3497,-4.3497,-4.3497,-4.3497,-4.3497,-4.3497,-4.3497,-4.3497,-4.3497,-4.3497,-4.3497,-4.3497,-4.3497,-4.3497,-4.3497,-4.3497,-4.3497,-4.3497,-4.3497,-4.3497,-4.3497,-4.3497,-4.3497,-4.3497,-4.3497,-4.3497,-4.3497,-4.3497,-4.3329,-4.3329,-4.3329,-4.3329,-4.3329,-4.3329,-4.3329,-4.3329,-4.3329,-4.3329,-4.3329,-4.3329,-4.3329,-4.2162,-4.1384,-4.1384,-4.0187,-3.9409,-3.9409,-3.8751,-3.8549,-3.891,-3.8905,-3.8584,-3.7822,-3.7822,-3.8133,-3.8908,-3.8908,-3.8949,-3.9005,-3.9005,-3.8599,-3.7922,-3.7922,-3.7483,-3.6806,-3.6806,-3.6332,-3.5656,-3.5656,-3.6096,-3.6705,-3.5926,-3.6129,-3.6806,-3.6806,-3.6299,-3.5757,-3.6535,-3.6806,-3.6806,-3.6806,-3.7821,-3.914,-3.9884,-4.0087,-4.0087,-4.0087,-4.0087,-4.0087,-4.0087,-4.0087,-4.0087,-4.0087,-4.0087,-4.0087,-4.0087,-3.9512,-3.9208,-3.9952,-3.9478,-3.9005,-3.9005,-3.9614,-4.0031,-3.9824,-4.0435,-4.134,-4.2577,-4.2693,-4.292,-4.3463,-4.3497,-4.3497,-4.3497,-4.3497,-4.3497,-4.3497,-4.3497,-4.3497,-4.3497,-4.3497,-4.3497,-4.3497,-4.3497,-4.3497,-4.3497,-4.3497,-4.3497,-4.3497,-4.3497,-4.3497,-4.3497,-4.3497,-4.3497,-4.3497,-4.3497,-4.3497,-4.3497,-4.3497,-4.3497,-4.3497,-4.3497,-4.3497,-4.3497,-4.3329,-4.3329,-4.3329,-4.3329,-4.3329,-4.3329,-4.3329,-4.3329,-4.3329,-4.3329,-4.3329,-4.3329,-4.3329,-4.2162,-4.1384,-4.1384,-4.0187,-3.92,-3.8721,-3.8063,-3.7586,-3.7235,-3.7716,-3.7928,-3.7764,-3.7822,-3.8133,-3.8908,-3.8908,-3.9215,-3.9749,-3.9242,-3.887,-3.8633,-3.8125,-3.8058,-3.8294,-3.7787,-3.7719,-3.7956,-3.7415,-3.7381,-3.755,-3.7313,-3.7381,-3.7584,-3.7584,-3.7415,-3.7246,-3.7483,-3.7584,-3.7652,-3.8159,-3.8971,-3.9783,-4.002,-4.0087,-4.0087,-4.0087,-4.0087,-4.0087,-4.0087,-4.0087,-4.0087,-4.0087,-4.0087,-4.0087,-4.0087,-3.9884,-3.9817,-4.0054,-3.9884,-3.9749,-3.9749,-3.9952,-4.0086,-4.0046,-4.0182,-4.0767,-4.1937,-4.2062,-4.2462,-4.3391,-4.3178,-4.3105,-4.3497,-4.3497,-4.3497,-4.3497,-4.3497,-4.3497,-4.3497,-4.3497,-4.3497,-4.3497,-4.3497,-4.3497,-4.3497,-4.3497,-4.3497,-4.3497,-4.3497,-4.3497,-4.3497,-4.3497,-4.3497,-4.3497,-4.3497,-4.3497,-4.3497,-4.3497,-4.3497,-4.3497,-4.3497,-4.3497,-4.3497,-4.3329,-4.3329,-4.3329,-4.3329,-4.3329,-4.3329,-4.3329,-4.3329,-4.3329,-4.3329,-4.3329,-4.324,-4.297,-4.2013,-4.1265,-4.1025,-4.0038,-3.926,-3.8811,-3.7913,-3.7255,-3.6866,-3.6823,-3.6815,-3.6906,-3.6906,-3.7413,-3.8469,-3.8157,-3.8745,-4.0054,-3.9328,-3.9127,-3.9411,-3.8971,-3.887,-3.8971,-3.8531,-3.843,-3.8531,-3.8091,-3.8091,-3.8294,-3.8024,-3.8091,-3.8328,-3.8328,-3.8159,-3.7956,-3.8227,-3.8328,-3.8464,-3.9174,-3.9715,-4.0087,-4.0087,-4.0087,-4.0087,-4.0087,-4.0087,-4.0087,-4.0087,-4.0087,-4.0087,-4.0087,-4.0087,-4.0087,-4.0087,-4.0087,-4.0087,-4.0087,-4.0087,-4.0087,-4.0087,-4.0087,-4.0087,-4.0087,-4.0087,-4.0417,-4.1375,-4.1429,-4.1817,-4.2734,-4.2541,-4.2462,-4.281,-4.3032,-4.3178,-4.3178,-4.3356,-4.3497,-4.3497,-4.3497,-4.3497,-4.3497,-4.3497,-4.3497,-4.3497,-4.3497,-4.3497,-4.3497,-4.3497,-4.3497,-4.3497,-4.3497,-4.3497,-4.3497,-4.3497,-4.3497,-4.3497,-4.3497,-4.3497,-4.3497,-4.3497,-4.3497,-4.3497,-4.3329,-4.3329,-4.3329,-4.3329,-4.3329,-4.3329,-4.3329,-4.3329,-4.3329,-4.3329,-4.3269,-4.303,-4.2432,-4.1713,-4.1055,-4.0457,-3.9798,-3.9409,-3.9409,-3.8212,-3.7464,-3.7404,-3.6237,-3.5579,-3.5519,-3.5519,-3.6196,-3.7706,-3.6964,-3.77,-3.9901,-3.9209,-3.9262,-3.9901,-3.9952,-3.9581,-3.8974,-3.8974,-3.8652,-3.8091,-3.8091,-3.8497,-3.9005,-3.8362,-3.8497,-3.9073,-3.9073,-3.8667,-3.8193,-3.887,-3.9073,-3.9208,-3.9884,-4.0087,-4.0087,-4.0087,-4.0087,-4.0087,-4.0087,-4.0087,-4.0087,-4.0087,-4.0087,-4.0087,-4.0087,-4.0087,-4.0087,-4.0087,-4.0087,-4.0087,-4.0087,-4.0087,-4.0087,-4.0087,-4.0087,-4.0087,-4.0087,-4.0087,-4.0269,-4.0827,-4.092,-4.1115,-4.1768,-4.181,-4.1768,-4.1725,-4.2302,-4.2616,-4.2616,-4.3069,-4.3356,-4.3428,-4.3428,-4.3463,-4.3497,-4.3497,-4.3497,-4.3497,-4.3497,-4.3497,-4.3497,-4.3497,-4.3497,-4.3497,-4.3497,-4.3497,-4.3497,-4.3497,-4.3497,-4.3497,-4.3497,-4.3497,-4.3497,-4.3497,-4.3497,-4.3497,-4.3329,-4.3329,-4.3329,-4.3329,-4.3329,-4.3329,-4.3329,-4.3329,-4.3329,-4.3329,-4.288,-4.2521,-4.2372,-4.1324,-4.0546,-4.0397,-3.9798,-3.9409,-3.9409,-3.8631,-3.7943,-3.7434,-3.6686,-3.6028,-3.5519,-3.5519,-3.5973,-3.6843,-3.6661,-3.7203,-3.8334,-3.869,-3.869,-3.8302,-3.8908,-3.9056,-3.8924,-3.8924,-3.9172,-3.9614,-3.9614,-3.9715,-3.9817,-3.9648,-3.9715,-3.9851,-3.9851,-3.9749,-3.9648,-3.9783,-3.9851,-3.9884,-4.002,-4.0087,-4.0087,-4.0087,-4.0087,-4.0087,-4.0087,-4.0087,-4.0087,-4.0087,-4.0087,-4.0087,-4.0087,-4.0087,-4.0087,-4.0087,-4.0087,-4.0087,-4.0087,-4.0087,-4.0087,-4.0087,-4.0087,-4.0087,-4.0087,-4.0087,-4.0269,-4.0827,-4.092,-4.1115,-4.1768,-4.181,-4.1603,-4.1115,-4.1647,-4.1979,-4.1979,-4.2103,-4.2422,-4.2846,-4.2846,-4.3069,-4.3497,-4.3497,-4.3497,-4.3497,-4.3497,-4.3497,-4.3497,-4.3497,-4.3497,-4.3497,-4.3497,-4.3497,-4.3497,-4.3497,-4.3497,-4.3497,-4.3497,-4.3497,-4.3497,-4.3497,-4.3497,-4.3497,-4.3329,-4.3329,-4.3329,-4.3329,-4.3329,-4.3329,-4.3329,-4.3329,-4.3329,-4.3329,-4.2761,-4.2252,-4.1923,-4.0995,-4.0277,-3.9948,-3.9619,-3.9409,-3.9409,-3.8781,-3.8093,-3.7434,-3.6806,-3.6178,-3.5519,-3.5519,-3.5846,-3.66,-3.629,-3.6874,-3.8302,-3.8358,-3.8525,-3.8887,-3.9315,-3.9473,-3.9473,-3.9473,-3.9714,-4.0087,-4.0087,-4.0087,-4.0087,-4.0087,-4.0087,-4.0087,-4.0087,-4.0087,-4.0087,-4.0087,-4.0087,-4.0087,-4.0087,-4.0087,-4.0087,-4.0087,-4.0087,-4.0087,-4.0087,-4.0087,-4.0087,-4.0087,-4.0358,-4.0527,-4.0155,-4.0087,-4.0189,-4.0527,-4.0595,-4.073,-4.1068,-4.1136,-4.1001,-4.0663,-4.0899,-4.0865,-4.0189,-4.0696,-4.1121,-4.1013,-4.1028,-4.1037,-4.099,-4.1001,-4.1,-4.1043,-4.1568,-4.1936,-4.1936,-4.2203,-4.2454,-4.2655,-4.2693,-4.2957,-4.3497,-4.3497,-4.3497,-4.3497,-4.3497,-4.3497,-4.3497,-4.3497,-4.3497,-4.3497,-4.3497,-4.3497,-4.3497,-4.3497,-4.3497,-4.3497,-4.3497,-4.3497,-4.3497,-4.3497,-4.3497,-4.3497,-4.3329,-4.324,-4.321,-4.3299,-4.324,-4.321,-4.3299,-4.3329,-4.3329,-4.3329,-4.2671,-4.1983,-4.1444,-4.0696,-4.0008,-3.9469,-3.9409,-3.9409,-3.9409,-3.8781,-3.8093,-3.7434,-3.6806,-3.6178,-3.5519,-3.5519,-3.5782,-3.6384,-3.5782,-3.6538,-3.8492,-3.8019,-3.8502,-3.9714,-3.985,-3.9901,-3.9901,-3.9901,-3.9952,-4.0087,-4.0087,-4.0087,-4.0087,-4.0087,-4.0087,-4.0087,-4.0087,-4.0087,-4.0087,-4.0087,-4.0087,-4.0087,-4.0087,-4.0087,-4.0087,-4.0087,-4.0087,-4.0087,-4.0087,-4.0155,-4.0257,-4.0257,-4.0832,-4.1238,-4.0595,-4.046,-4.0629,-4.1271,-4.1407,-4.1576,-4.2185,-4.2286,-4.2083,-4.1508,-4.188,-4.1847,-4.0629,-4.1508,-4.2049,-4.1474,-4.1407,-4.1136,-4.0527,-4.046,-4.073,-4.1339,-4.185,-4.2078,-4.194,-4.2347,-4.2546,-4.2418,-4.2498,-4.2808,-4.3356,-4.3463,-4.3497,-4.3497,-4.3497,-4.3571,-4.3718,-4.3718,-4.3718,-4.3681,-4.3534,-4.3497,-4.3497,-4.3497,-4.3497,-4.3497,-4.3497,-4.3497,-4.3497,-4.3497,-4.3497,-4.3497,-4.3329,-4.288,-4.2671,-4.324,-4.288,-4.2671,-4.324,-4.3329,-4.3329,-4.3329,-4.2282,-4.1474,-4.1384,-4.0277,-3.9529,-3.9439,-3.9409,-3.9409,-3.9409,-3.8781,-3.8093,-3.7434,-3.6806,-3.6178,-3.5519,-3.5519,-3.5554,-3.5683,-3.5554,-3.6006,-3.6904,-3.7499,-3.7937,-3.8165,-3.8745,-3.9069,-3.9069,-3.9069,-3.9473,-4.0087,-4.0087,-4.0087,-4.0087,-4.0087,-4.0087,-4.0087,-4.0087,-4.0087,-4.0087,-4.0087,-4.0087,-4.0087,-4.0087,-4.0087,-4.0087,-4.0087,-4.0087,-4.0087,-4.0087,-4.0561,-4.1068,-4.1068,-4.161,-4.2117,-4.2016,-4.1982,-4.2016,-4.2117,-4.2151,-4.2185,-4.2286,-4.2286,-4.2252,-4.2151,-4.2219,-4.2219,-4.2016,-4.2151,-4.2252,-4.2151,-4.2151,-4.2117,-4.2016,-4.1982,-4.2016,-4.2117,-4.2257,-4.2004,-4.1341,-4.1376,-4.1317,-4.115,-4.1682,-4.2221,-4.2808,-4.325,-4.3497,-4.3497,-4.3497,-4.3864,-4.4562,-4.4562,-4.4562,-4.4525,-4.3791,-4.3497,-4.3497,-4.3497,-4.3497,-4.3497,-4.3497,-4.3497,-4.3497,-4.3497,-4.3497,-4.3497,-4.3269,-4.2521,-4.2013,-4.2671,-4.2551,-4.2462,-4.2761,-4.309,-4.321,-4.2851,-4.1953,-4.1235,-4.0876,-3.9978,-3.9409,-3.9409,-3.9409,-3.9409,-3.9409,-3.8781,-3.8093,-3.7434,-3.6806,-3.6178,-3.5519,-3.5519,-3.5519,-3.5519,-3.5519,-3.6133,-3.7263,-3.7616,-3.8278,-3.9049,-3.8962,-3.8908,-3.8908,-3.8908,-3.9069,-3.942,-3.942,-3.9714,-4.0054,-3.961,-3.9714,-4.0087,-4.0087,-4.0087,-4.0087,-4.0087,-4.0087,-4.0087,-4.0087,-4.0087,-4.0087,-4.0087,-4.0087,-4.0155,-4.0595,-4.0933,-4.1305,-4.1711,-4.2388,-4.2929,-4.2929,-4.3267,-4.3436,-4.2997,-4.2929,-4.3064,-4.347,-4.3572,-4.3436,-4.2997,-4.3267,-4.3267,-4.2422,-4.3031,-4.3403,-4.2963,-4.2929,-4.276,-4.232,-4.2286,-4.2455,-4.2895,-4.2929,-4.2591,-4.1847,-4.2142,-4.2058,-4.142,-4.1979,-4.258,-4.3142,-4.3356,-4.3718,-4.4195,-4.4635,-4.4782,-4.4709,-4.4709,-4.4966,-4.5333,-4.4525,-4.4158,-4.4121,-4.3681,-4.3497,-4.3497,-4.3497,-4.3497,-4.3497,-4.3497,-4.3497,-4.3497]}]]